<?xml version="1.0" encoding="UTF-8" standalone="no" ?>
<gpx xmlns="http://www.topografix.com/GPX/1/1" creator="MapSource 6.16.3" version="1.1" xmlns:xsi="http://www.w3.org/2001/XMLSchema-instance" xsi:schemaLocation="http://www.topografix.com/GPX/1/1 http://www.topografix.com/GPX/1/1/gpx.xsd">

  <metadata>
    <link href="http://www.garmin.com">
      <text>Garmin International</text>
    </link>
    <time>2014-09-30T19:17:41Z</time>
    <bounds maxlat="39.737169714644551" maxlon="3.312414307147265" minlat="39.71536167897284" minlon="3.285629600286484"/>
  </metadata>

  <trk>
    <name>06-SEP-14 16:54:35</name>
    <extensions>
      <gpxx:TrackExtension xmlns:gpxx="http://www.garmin.com/xmlschemas/GpxExtensions/v3">
        <gpxx:DisplayColor>DarkBlue</gpxx:DisplayColor>
      </gpxx:TrackExtension>
    </extensions>
    <trkseg>
      <trkpt lat="39.736141674220562" lon="3.312414307147265">
        <ele>264.5</ele>
        <time>2014-09-06T08:31:51Z</time>
      </trkpt>
      <trkpt lat="39.736225577071309" lon="3.312294445931912">
        <ele>262.10000000000002</ele>
        <time>2014-09-06T08:31:58Z</time>
      </trkpt>
      <trkpt lat="39.736279975622892" lon="3.312264271080494">
        <ele>262.10000000000002</ele>
        <time>2014-09-06T08:32:06Z</time>
      </trkpt>
      <trkpt lat="39.736301517114043" lon="3.312277514487505">
        <ele>261.62</ele>
        <time>2014-09-06T08:32:09Z</time>
      </trkpt>
      <trkpt lat="39.736341834068298" lon="3.312307437881827">
        <ele>261.13999999999999</ele>
        <time>2014-09-06T08:32:19Z</time>
      </trkpt>
      <trkpt lat="39.736336218193173" lon="3.312303330749273">
        <ele>261.13999999999999</ele>
        <time>2014-09-06T08:32:23Z</time>
      </trkpt>
      <trkpt lat="39.73634485155344" lon="3.312256308272481">
        <ele>261.13999999999999</ele>
        <time>2014-09-06T08:32:29Z</time>
      </trkpt>
      <trkpt lat="39.736368823796511" lon="3.312294194474816">
        <ele>261.13999999999999</ele>
        <time>2014-09-06T08:32:44Z</time>
      </trkpt>
      <trkpt lat="39.736378462985158" lon="3.312311712652445">
        <ele>261.62</ele>
        <time>2014-09-06T08:32:50Z</time>
      </trkpt>
      <trkpt lat="39.736385755240917" lon="3.312307354062796">
        <ele>261.13999999999999</ele>
        <time>2014-09-06T08:33:01Z</time>
      </trkpt>
      <trkpt lat="39.736385755240917" lon="3.312307354062796">
        <ele>262.10000000000002</ele>
        <time>2014-09-06T08:33:33Z</time>
      </trkpt>
      <trkpt lat="39.736384665593505" lon="3.312315819784999">
        <ele>262.10000000000002</ele>
        <time>2014-09-06T08:34:01Z</time>
      </trkpt>
      <trkpt lat="39.736383408308029" lon="3.312319088727236">
        <ele>262.10000000000002</ele>
        <time>2014-09-06T08:34:29Z</time>
      </trkpt>
      <trkpt lat="39.736380474641919" lon="3.312324872240424">
        <ele>261.62</ele>
        <time>2014-09-06T08:34:59Z</time>
      </trkpt>
      <trkpt lat="39.736380474641919" lon="3.312324872240424">
        <ele>262.10000000000002</ele>
        <time>2014-09-06T08:35:28Z</time>
      </trkpt>
      <trkpt lat="39.73638541996479" lon="3.312330152839422">
        <ele>262.10000000000002</ele>
        <time>2014-09-06T08:35:59Z</time>
      </trkpt>
      <trkpt lat="39.736390868201852" lon="3.312333673238754">
        <ele>262.10000000000002</ele>
        <time>2014-09-06T08:36:27Z</time>
      </trkpt>
      <trkpt lat="39.736394053325057" lon="3.312330404296517">
        <ele>262.10000000000002</ele>
        <time>2014-09-06T08:36:54Z</time>
      </trkpt>
      <trkpt lat="39.736374691128731" lon="3.312320513650775">
        <ele>262.57999999999998</ele>
        <time>2014-09-06T08:37:05Z</time>
      </trkpt>
      <trkpt lat="39.736359687522054" lon="3.312242813408375">
        <ele>262.57999999999998</ele>
        <time>2014-09-06T08:37:15Z</time>
      </trkpt>
      <trkpt lat="39.736362788826227" lon="3.312214147299528">
        <ele>262.57999999999998</ele>
        <time>2014-09-06T08:37:27Z</time>
      </trkpt>
      <trkpt lat="39.736362788826227" lon="3.312214147299528">
        <ele>263.06</ele>
        <time>2014-09-06T08:37:29Z</time>
      </trkpt>
      <trkpt lat="39.736373350024223" lon="3.312183050438762">
        <ele>262.10000000000002</ele>
        <time>2014-09-06T08:37:43Z</time>
      </trkpt>
      <trkpt lat="39.736389527097344" lon="3.31211993470788">
        <ele>264.98000000000002</ele>
        <time>2014-09-06T08:37:53Z</time>
      </trkpt>
      <trkpt lat="39.736395310610533" lon="3.31211406737566">
        <ele>261.62</ele>
        <time>2014-09-06T08:37:59Z</time>
      </trkpt>
      <trkpt lat="39.736385587602854" lon="3.3121258020401">
        <ele>263.54000000000002</ele>
        <time>2014-09-06T08:38:20Z</time>
      </trkpt>
      <trkpt lat="39.736250471323729" lon="3.312146086245775">
        <ele>263.06</ele>
        <time>2014-09-06T08:38:31Z</time>
      </trkpt>
      <trkpt lat="39.736196072772145" lon="3.312119515612721">
        <ele>262.10000000000002</ele>
        <time>2014-09-06T08:38:38Z</time>
      </trkpt>
      <trkpt lat="39.736194731667638" lon="3.312115240842104">
        <ele>262.57999999999998</ele>
        <time>2014-09-06T08:38:43Z</time>
      </trkpt>
      <trkpt lat="39.736161204054952" lon="3.312083557248116">
        <ele>264.5</ele>
        <time>2014-09-06T08:38:52Z</time>
      </trkpt>
      <trkpt lat="39.736164808273315" lon="3.312066961079836">
        <ele>265.45999999999998</ele>
        <time>2014-09-06T08:38:54Z</time>
      </trkpt>
      <trkpt lat="39.73614159040153" lon="3.312039887532592">
        <ele>265.45999999999998</ele>
        <time>2014-09-06T08:38:58Z</time>
      </trkpt>
      <trkpt lat="39.736108984798193" lon="3.312021195888519">
        <ele>266.42000000000002</ele>
        <time>2014-09-06T08:39:02Z</time>
      </trkpt>
      <trkpt lat="39.736048383638263" lon="3.311944333836436">
        <ele>266.89999999999998</ele>
        <time>2014-09-06T08:39:09Z</time>
      </trkpt>
      <trkpt lat="39.73602969199419" lon="3.311844421550632">
        <ele>269.79000000000002</ele>
        <time>2014-09-06T08:39:18Z</time>
      </trkpt>
      <trkpt lat="39.735943861305714" lon="3.311753394082189">
        <ele>269.31</ele>
        <time>2014-09-06T08:39:31Z</time>
      </trkpt>
      <trkpt lat="39.735904382541776" lon="3.311612829566002">
        <ele>271.23000000000002</ele>
        <time>2014-09-06T08:39:40Z</time>
      </trkpt>
      <trkpt lat="39.735884601250291" lon="3.311590198427439">
        <ele>271.70999999999998</ele>
        <time>2014-09-06T08:39:43Z</time>
      </trkpt>
      <trkpt lat="39.735810840502381" lon="3.311517359688878">
        <ele>271.70999999999998</ele>
        <time>2014-09-06T08:39:49Z</time>
      </trkpt>
      <trkpt lat="39.735758285969496" lon="3.311444101855159">
        <ele>272.19</ele>
        <time>2014-09-06T08:39:58Z</time>
      </trkpt>
      <trkpt lat="39.735707994550467" lon="3.311401689425111">
        <ele>273.14999999999998</ele>
        <time>2014-09-06T08:40:02Z</time>
      </trkpt>
      <trkpt lat="39.735625684261322" lon="3.311366401612759">
        <ele>273.63</ele>
        <time>2014-09-06T08:40:09Z</time>
      </trkpt>
      <trkpt lat="39.73563976585865" lon="3.311284342780709">
        <ele>274.58999999999997</ele>
        <time>2014-09-06T08:40:18Z</time>
      </trkpt>
      <trkpt lat="39.735623924061656" lon="3.311226591467857">
        <ele>274.58999999999997</ele>
        <time>2014-09-06T08:40:26Z</time>
      </trkpt>
      <trkpt lat="39.73564513027668" lon="3.311154758557677">
        <ele>275.06999999999999</ele>
        <time>2014-09-06T08:40:31Z</time>
      </trkpt>
      <trkpt lat="39.735604226589203" lon="3.311054594814777">
        <ele>275.06999999999999</ele>
        <time>2014-09-06T08:40:38Z</time>
      </trkpt>
      <trkpt lat="39.735585702583194" lon="3.310930710285902">
        <ele>275.06999999999999</ele>
        <time>2014-09-06T08:40:45Z</time>
      </trkpt>
      <trkpt lat="39.735563825815916" lon="3.310891399160028">
        <ele>274.58999999999997</ele>
        <time>2014-09-06T08:40:48Z</time>
      </trkpt>
      <trkpt lat="39.735472127795219" lon="3.310756450518966">
        <ele>275.56</ele>
        <time>2014-09-06T08:40:58Z</time>
      </trkpt>
      <trkpt lat="39.735415214672685" lon="3.310676403343678">
        <ele>277.48000000000002</ele>
        <time>2014-09-06T08:41:09Z</time>
      </trkpt>
      <trkpt lat="39.735301891341805" lon="3.310584034770727">
        <ele>278.44</ele>
        <time>2014-09-06T08:41:23Z</time>
      </trkpt>
      <trkpt lat="39.735273979604244" lon="3.310570288449526">
        <ele>278.44</ele>
        <time>2014-09-06T08:41:26Z</time>
      </trkpt>
      <trkpt lat="39.735170211642981" lon="3.310535671189427">
        <ele>278.44</ele>
        <time>2014-09-06T08:41:36Z</time>
      </trkpt>
      <trkpt lat="39.735170295462012" lon="3.310524523258209">
        <ele>277.95999999999998</ele>
        <time>2014-09-06T08:41:46Z</time>
      </trkpt>
      <trkpt lat="39.735151855275035" lon="3.310465263202786">
        <ele>278.44</ele>
        <time>2014-09-06T08:41:52Z</time>
      </trkpt>
      <trkpt lat="39.735168619081378" lon="3.310431065037847">
        <ele>276.04000000000002</ele>
        <time>2014-09-06T08:41:59Z</time>
      </trkpt>
      <trkpt lat="39.735167445614934" lon="3.310363925993443">
        <ele>277</ele>
        <time>2014-09-06T08:42:03Z</time>
      </trkpt>
      <trkpt lat="39.735168032348156" lon="3.310352358967066">
        <ele>275.06999999999999</ele>
        <time>2014-09-06T08:42:04Z</time>
      </trkpt>
      <trkpt lat="39.735173145309091" lon="3.310287483036518">
        <ele>275.06999999999999</ele>
        <time>2014-09-06T08:42:18Z</time>
      </trkpt>
      <trkpt lat="39.735174905508757" lon="3.31029343418777">
        <ele>275.06999999999999</ele>
        <time>2014-09-06T08:42:21Z</time>
      </trkpt>
      <trkpt lat="39.735170798376203" lon="3.310352442786098">
        <ele>275.06999999999999</ele>
        <time>2014-09-06T08:42:26Z</time>
      </trkpt>
      <trkpt lat="39.735149424523115" lon="3.310417318716645">
        <ele>275.56</ele>
        <time>2014-09-06T08:42:32Z</time>
      </trkpt>
      <trkpt lat="39.735151939094067" lon="3.31042586825788">
        <ele>277</ele>
        <time>2014-09-06T08:42:33Z</time>
      </trkpt>
      <trkpt lat="39.735156381502748" lon="3.310458222404122">
        <ele>278.92000000000002</ele>
        <time>2014-09-06T08:42:35Z</time>
      </trkpt>
      <trkpt lat="39.735166104510427" lon="3.310495018959045">
        <ele>279.88</ele>
        <time>2014-09-06T08:42:40Z</time>
      </trkpt>
      <trkpt lat="39.735164679586887" lon="3.310532066971064">
        <ele>276.51999999999998</ele>
        <time>2014-09-06T08:42:42Z</time>
      </trkpt>
      <trkpt lat="39.735117824748158" lon="3.31054799258709">
        <ele>277.48000000000002</ele>
        <time>2014-09-06T08:42:47Z</time>
      </trkpt>
      <trkpt lat="39.73501238040626" lon="3.310547154396772">
        <ele>277.95999999999998</ele>
        <time>2014-09-06T08:42:55Z</time>
      </trkpt>
      <trkpt lat="39.734972231090069" lon="3.310573389753699">
        <ele>279.88</ele>
        <time>2014-09-06T08:42:59Z</time>
      </trkpt>
      <trkpt lat="39.734917245805264" lon="3.310577413067222">
        <ele>279.39999999999998</ele>
        <time>2014-09-06T08:43:03Z</time>
      </trkpt>
      <trkpt lat="39.734873156994581" lon="3.310587974265218">
        <ele>277.95999999999998</ele>
        <time>2014-09-06T08:43:07Z</time>
      </trkpt>
      <trkpt lat="39.734796714037657" lon="3.310631643980742">
        <ele>278.92000000000002</ele>
        <time>2014-09-06T08:43:13Z</time>
      </trkpt>
      <trkpt lat="39.73472747951746" lon="3.310651341453195">
        <ele>278.44</ele>
        <time>2014-09-06T08:43:22Z</time>
      </trkpt>
      <trkpt lat="39.734681295230985" lon="3.310647737234831">
        <ele>280.36000000000001</ele>
        <time>2014-09-06T08:43:26Z</time>
      </trkpt>
      <trkpt lat="39.734621280804276" lon="3.310682186856866">
        <ele>280.36000000000001</ele>
        <time>2014-09-06T08:43:37Z</time>
      </trkpt>
      <trkpt lat="39.73458431661129" lon="3.310680845752358">
        <ele>278.92000000000002</ele>
        <time>2014-09-06T08:43:41Z</time>
      </trkpt>
      <trkpt lat="39.734549280256033" lon="3.310714038088918">
        <ele>280.36000000000001</ele>
        <time>2014-09-06T08:43:44Z</time>
      </trkpt>
      <trkpt lat="39.73451005294919" lon="3.310714289546013">
        <ele>278.92000000000002</ele>
        <time>2014-09-06T08:43:47Z</time>
      </trkpt>
      <trkpt lat="39.734499491751194" lon="3.310718983411789">
        <ele>277.95999999999998</ele>
        <time>2014-09-06T08:43:49Z</time>
      </trkpt>
      <trkpt lat="39.734468562528491" lon="3.310749158263207">
        <ele>279.39999999999998</ele>
        <time>2014-09-06T08:43:52Z</time>
      </trkpt>
      <trkpt lat="39.734441991895437" lon="3.310766760259867">
        <ele>278.44</ele>
        <time>2014-09-06T08:43:54Z</time>
      </trkpt>
      <trkpt lat="39.734350629150867" lon="3.310807915404439">
        <ele>277</ele>
        <time>2014-09-06T08:44:06Z</time>
      </trkpt>
      <trkpt lat="39.734277036041021" lon="3.310821997001767">
        <ele>277</ele>
        <time>2014-09-06T08:44:14Z</time>
      </trkpt>
      <trkpt lat="39.734226996079087" lon="3.31082602031529">
        <ele>276.04000000000002</ele>
        <time>2014-09-06T08:44:19Z</time>
      </trkpt>
      <trkpt lat="39.734099758788943" lon="3.310818644240499">
        <ele>275.06999999999999</ele>
        <time>2014-09-06T08:44:32Z</time>
      </trkpt>
      <trkpt lat="39.733975622802973" lon="3.310820320621133">
        <ele>274.11000000000001</ele>
        <time>2014-09-06T08:44:43Z</time>
      </trkpt>
      <trkpt lat="39.733849223703146" lon="3.310848399996758">
        <ele>273.14999999999998</ele>
        <time>2014-09-06T08:44:55Z</time>
      </trkpt>
      <trkpt lat="39.733720729127526" lon="3.310927608981729">
        <ele>272.67000000000002</ele>
        <time>2014-09-06T08:45:05Z</time>
      </trkpt>
      <trkpt lat="39.733599694445729" lon="3.310963986441493">
        <ele>272.67000000000002</ele>
        <time>2014-09-06T08:45:16Z</time>
      </trkpt>
      <trkpt lat="39.733586618676782" lon="3.310968764126301">
        <ele>271.70999999999998</ele>
        <time>2014-09-06T08:45:17Z</time>
      </trkpt>
      <trkpt lat="39.733485784381628" lon="3.310992401093245">
        <ele>271.23000000000002</ele>
        <time>2014-09-06T08:45:27Z</time>
      </trkpt>
      <trkpt lat="39.733436666429043" lon="3.311006231233478">
        <ele>271.70999999999998</ele>
        <time>2014-09-06T08:45:31Z</time>
      </trkpt>
      <trkpt lat="39.733395595103502" lon="3.311020731925964">
        <ele>271.70999999999998</ele>
        <time>2014-09-06T08:45:35Z</time>
      </trkpt>
      <trkpt lat="39.733319990336895" lon="3.311041938140988">
        <ele>271.70999999999998</ele>
        <time>2014-09-06T08:45:40Z</time>
      </trkpt>
      <trkpt lat="39.733185041695833" lon="3.311057696118951">
        <ele>271.70999999999998</ele>
        <time>2014-09-06T08:45:53Z</time>
      </trkpt>
      <trkpt lat="39.733180096372962" lon="3.311054762452841">
        <ele>271.23000000000002</ele>
        <time>2014-09-06T08:45:56Z</time>
      </trkpt>
      <trkpt lat="39.733093427494168" lon="3.311090636998415">
        <ele>271.70999999999998</ele>
        <time>2014-09-06T08:46:04Z</time>
      </trkpt>
      <trkpt lat="39.733032239601016" lon="3.311138246208429">
        <ele>272.19</ele>
        <time>2014-09-06T08:46:10Z</time>
      </trkpt>
      <trkpt lat="39.732957640662789" lon="3.311176551505923">
        <ele>272.19</ele>
        <time>2014-09-06T08:46:23Z</time>
      </trkpt>
      <trkpt lat="39.732805760577321" lon="3.311254503205419">
        <ele>272.19</ele>
        <time>2014-09-06T08:46:35Z</time>
      </trkpt>
      <trkpt lat="39.732736358419061" lon="3.311255173757672">
        <ele>273.14999999999998</ele>
        <time>2014-09-06T08:46:44Z</time>
      </trkpt>
      <trkpt lat="39.732614066451788" lon="3.311230782419443">
        <ele>273.63</ele>
        <time>2014-09-06T08:46:59Z</time>
      </trkpt>
      <trkpt lat="39.73255698569119" lon="3.311220724135637">
        <ele>274.11000000000001</ele>
        <time>2014-09-06T08:47:04Z</time>
      </trkpt>
      <trkpt lat="39.732415582984686" lon="3.311145203188062">
        <ele>274.58999999999997</ele>
        <time>2014-09-06T08:47:18Z</time>
      </trkpt>
      <trkpt lat="39.732360849156976" lon="3.311123829334974">
        <ele>275.06999999999999</ele>
        <time>2014-09-06T08:47:25Z</time>
      </trkpt>
      <trkpt lat="39.732301672920585" lon="3.311120308935642">
        <ele>275.56</ele>
        <time>2014-09-06T08:47:32Z</time>
      </trkpt>
      <trkpt lat="39.732246017083526" lon="3.311105975881219">
        <ele>276.51999999999998</ele>
        <time>2014-09-06T08:47:37Z</time>
      </trkpt>
      <trkpt lat="39.732160856947303" lon="3.311111256480217">
        <ele>277</ele>
        <time>2014-09-06T08:47:47Z</time>
      </trkpt>
      <trkpt lat="39.732154738157988" lon="3.311047302559018">
        <ele>277</ele>
        <time>2014-09-06T08:47:56Z</time>
      </trkpt>
      <trkpt lat="39.73222179338336" lon="3.3109325543046">
        <ele>277.95999999999998</ele>
        <time>2014-09-06T08:48:08Z</time>
      </trkpt>
      <trkpt lat="39.732244173064828" lon="3.310816967859864">
        <ele>278.44</ele>
        <time>2014-09-06T08:48:20Z</time>
      </trkpt>
      <trkpt lat="39.732249788939953" lon="3.310792576521635">
        <ele>278.44</ele>
        <time>2014-09-06T08:48:22Z</time>
      </trkpt>
      <trkpt lat="39.732238724827766" lon="3.310712361708283">
        <ele>279.39999999999998</ele>
        <time>2014-09-06T08:48:29Z</time>
      </trkpt>
      <trkpt lat="39.73224526271224" lon="3.310668943449855">
        <ele>279.39999999999998</ele>
        <time>2014-09-06T08:48:33Z</time>
      </trkpt>
      <trkpt lat="39.732280215248466" lon="3.310621669515967">
        <ele>283.25</ele>
        <time>2014-09-06T08:48:49Z</time>
      </trkpt>
      <trkpt lat="39.732280215248466" lon="3.310621669515967">
        <ele>281.80000000000001</ele>
        <time>2014-09-06T08:48:52Z</time>
      </trkpt>
      <trkpt lat="39.732280215248466" lon="3.310621669515967">
        <ele>277.95999999999998</ele>
        <time>2014-09-06T08:49:00Z</time>
      </trkpt>
      <trkpt lat="39.732280215248466" lon="3.310621669515967">
        <ele>281.80000000000001</ele>
        <time>2014-09-06T08:49:01Z</time>
      </trkpt>
      <trkpt lat="39.732288094237447" lon="3.310619490221143">
        <ele>279.88</ele>
        <time>2014-09-06T08:49:31Z</time>
      </trkpt>
      <trkpt lat="39.732304187491536" lon="3.310541035607457">
        <ele>280.83999999999997</ele>
        <time>2014-09-06T08:49:48Z</time>
      </trkpt>
      <trkpt lat="39.732307875528932" lon="3.310518739745021">
        <ele>282.27999999999997</ele>
        <time>2014-09-06T08:49:50Z</time>
      </trkpt>
      <trkpt lat="39.732328075915575" lon="3.310500467196107">
        <ele>281.31999999999999</ele>
        <time>2014-09-06T08:49:55Z</time>
      </trkpt>
      <trkpt lat="39.732357580214739" lon="3.31037063151598">
        <ele>281.80000000000001</ele>
        <time>2014-09-06T08:50:04Z</time>
      </trkpt>
      <trkpt lat="39.732421115040779" lon="3.310215650126338">
        <ele>283.73000000000002</ele>
        <time>2014-09-06T08:50:14Z</time>
      </trkpt>
      <trkpt lat="39.732458498328924" lon="3.310116743668914">
        <ele>283.73000000000002</ele>
        <time>2014-09-06T08:50:23Z</time>
      </trkpt>
      <trkpt lat="39.732473501935601" lon="3.309994954615831">
        <ele>284.20999999999998</ele>
        <time>2014-09-06T08:50:32Z</time>
      </trkpt>
      <trkpt lat="39.732486326247454" lon="3.309930162504315">
        <ele>285.17000000000002</ele>
        <time>2014-09-06T08:50:37Z</time>
      </trkpt>
      <trkpt lat="39.73250225186348" lon="3.309824550524354">
        <ele>286.13</ele>
        <time>2014-09-06T08:50:46Z</time>
      </trkpt>
      <trkpt lat="39.732510130852461" lon="3.309775767847896">
        <ele>287.08999999999997</ele>
        <time>2014-09-06T08:50:51Z</time>
      </trkpt>
      <trkpt lat="39.732530247420073" lon="3.309718519449234">
        <ele>287.56999999999999</ele>
        <time>2014-09-06T08:50:56Z</time>
      </trkpt>
      <trkpt lat="39.732549358159304" lon="3.309667808935046">
        <ele>288.05000000000001</ele>
        <time>2014-09-06T08:51:00Z</time>
      </trkpt>
      <trkpt lat="39.732550531625748" lon="3.309656409546733">
        <ele>289.00999999999999</ele>
        <time>2014-09-06T08:51:02Z</time>
      </trkpt>
      <trkpt lat="39.732614569365978" lon="3.309520371258259">
        <ele>289.49000000000001</ele>
        <time>2014-09-06T08:51:13Z</time>
      </trkpt>
      <trkpt lat="39.732619011774659" lon="3.309498829767108">
        <ele>289.00999999999999</ele>
        <time>2014-09-06T08:51:15Z</time>
      </trkpt>
      <trkpt lat="39.732622783631086" lon="3.309472929686308">
        <ele>289.49000000000001</ele>
        <time>2014-09-06T08:51:17Z</time>
      </trkpt>
      <trkpt lat="39.732651198282838" lon="3.30941827967763">
        <ele>290.45999999999998</ele>
        <time>2014-09-06T08:51:22Z</time>
      </trkpt>
      <trkpt lat="39.732664693146944" lon="3.309371760115027">
        <ele>290.94</ele>
        <time>2014-09-06T08:51:27Z</time>
      </trkpt>
      <trkpt lat="39.732718337327242" lon="3.309316774830222">
        <ele>291.89999999999998</ele>
        <time>2014-09-06T08:51:32Z</time>
      </trkpt>
      <trkpt lat="39.732759408652782" lon="3.30920621752739">
        <ele>292.86000000000001</ele>
        <time>2014-09-06T08:51:41Z</time>
      </trkpt>
      <trkpt lat="39.732767539098859" lon="3.309167576953769">
        <ele>292.38</ele>
        <time>2014-09-06T08:51:45Z</time>
      </trkpt>
      <trkpt lat="39.732767287641764" lon="3.309106472879648">
        <ele>293.81999999999999</ele>
        <time>2014-09-06T08:51:51Z</time>
      </trkpt>
      <trkpt lat="39.73278664983809" lon="3.309027347713709">
        <ele>295.74000000000001</ele>
        <time>2014-09-06T08:52:02Z</time>
      </trkpt>
      <trkpt lat="39.732806431129575" lon="3.308955011889339">
        <ele>297.18000000000001</ele>
        <time>2014-09-06T08:52:13Z</time>
      </trkpt>
      <trkpt lat="39.732823362573981" lon="3.308933302760124">
        <ele>297.67000000000002</ele>
        <time>2014-09-06T08:52:27Z</time>
      </trkpt>
      <trkpt lat="39.732842473313212" lon="3.308839509263635">
        <ele>298.63</ele>
        <time>2014-09-06T08:52:40Z</time>
      </trkpt>
      <trkpt lat="39.732871307060122" lon="3.308777147904038">
        <ele>289.49000000000001</ele>
        <time>2014-09-06T08:52:44Z</time>
      </trkpt>
      <trkpt lat="39.732875414192677" lon="3.308757701888681">
        <ele>303.43000000000001</ele>
        <time>2014-09-06T08:52:45Z</time>
      </trkpt>
      <trkpt lat="39.732921263203025" lon="3.308676648885012">
        <ele>300.55000000000001</ele>
        <time>2014-09-06T08:52:52Z</time>
      </trkpt>
      <trkpt lat="39.73296208307147" lon="3.308597691357136">
        <ele>301.50999999999999</ele>
        <time>2014-09-06T08:52:59Z</time>
      </trkpt>
      <trkpt lat="39.732978092506528" lon="3.308569611981511">
        <ele>301.99000000000001</ele>
        <time>2014-09-06T08:53:02Z</time>
      </trkpt>
      <trkpt lat="39.732987815514207" lon="3.308545220643282">
        <ele>302.47000000000003</ele>
        <time>2014-09-06T08:53:04Z</time>
      </trkpt>
      <trkpt lat="39.732996532693505" lon="3.308392753824592">
        <ele>302.94999999999999</ele>
        <time>2014-09-06T08:53:14Z</time>
      </trkpt>
      <trkpt lat="39.732999969273806" lon="3.308384120464325">
        <ele>303.43000000000001</ele>
        <time>2014-09-06T08:53:15Z</time>
      </trkpt>
      <trkpt lat="39.733011201024055" lon="3.308320082724094">
        <ele>303.91000000000003</ele>
        <time>2014-09-06T08:53:20Z</time>
      </trkpt>
      <trkpt lat="39.733033329248428" lon="3.308225953951478">
        <ele>304.38999999999999</ele>
        <time>2014-09-06T08:53:27Z</time>
      </trkpt>
      <trkpt lat="39.732984630391002" lon="3.30818111076951">
        <ele>304.38999999999999</ele>
        <time>2014-09-06T08:53:34Z</time>
      </trkpt>
      <trkpt lat="39.732941379770637" lon="3.308112546801567">
        <ele>304.38999999999999</ele>
        <time>2014-09-06T08:53:39Z</time>
      </trkpt>
      <trkpt lat="39.732911791652441" lon="3.308061501011252">
        <ele>304.38999999999999</ele>
        <time>2014-09-06T08:53:48Z</time>
      </trkpt>
      <trkpt lat="39.732912043109536" lon="3.308064099401236">
        <ele>304.88</ele>
        <time>2014-09-06T08:53:50Z</time>
      </trkpt>
      <trkpt lat="39.732883125543594" lon="3.308105673640966">
        <ele>304.38999999999999</ele>
        <time>2014-09-06T08:53:57Z</time>
      </trkpt>
      <trkpt lat="39.732762509956956" lon="3.308127634227276">
        <ele>304.88</ele>
        <time>2014-09-06T08:54:06Z</time>
      </trkpt>
      <trkpt lat="39.732730994001031" lon="3.3081263769418">
        <ele>305.83999999999997</ele>
        <time>2014-09-06T08:54:10Z</time>
      </trkpt>
      <trkpt lat="39.732649605721235" lon="3.308154875412583">
        <ele>305.83999999999997</ele>
        <time>2014-09-06T08:54:16Z</time>
      </trkpt>
      <trkpt lat="39.732593363150954" lon="3.308198628947139">
        <ele>306.31999999999999</ele>
        <time>2014-09-06T08:54:20Z</time>
      </trkpt>
      <trkpt lat="39.73250568844378" lon="3.308244729414582">
        <ele>306.31999999999999</ele>
        <time>2014-09-06T08:54:28Z</time>
      </trkpt>
      <trkpt lat="39.732452630996704" lon="3.30826073884964">
        <ele>307.27999999999997</ele>
        <time>2014-09-06T08:54:33Z</time>
      </trkpt>
      <trkpt lat="39.732434609904885" lon="3.308285633102059">
        <ele>306.80000000000001</ele>
        <time>2014-09-06T08:54:36Z</time>
      </trkpt>
      <trkpt lat="39.732399825006723" lon="3.308285130187869">
        <ele>307.75999999999999</ele>
        <time>2014-09-06T08:54:41Z</time>
      </trkpt>
      <trkpt lat="39.732372667640448" lon="3.308285046368837">
        <ele>307.27999999999997</ele>
        <time>2014-09-06T08:54:43Z</time>
      </trkpt>
      <trkpt lat="39.732233276590705" lon="3.308312706649303">
        <ele>307.75999999999999</ele>
        <time>2014-09-06T08:54:54Z</time>
      </trkpt>
      <trkpt lat="39.732215758413076" lon="3.308322513476014">
        <ele>308.24000000000001</ele>
        <time>2014-09-06T08:54:56Z</time>
      </trkpt>
      <trkpt lat="39.732132023200393" lon="3.308325782418251">
        <ele>308.72000000000003</ele>
        <time>2014-09-06T08:55:05Z</time>
      </trkpt>
      <trkpt lat="39.732108386233449" lon="3.308344641700387">
        <ele>309.19999999999999</ele>
        <time>2014-09-06T08:55:08Z</time>
      </trkpt>
      <trkpt lat="39.732020711526275" lon="3.308355286717415">
        <ele>310.63999999999999</ele>
        <time>2014-09-06T08:55:15Z</time>
      </trkpt>
      <trkpt lat="39.731995398178697" lon="3.308374062180519">
        <ele>310.63999999999999</ele>
        <time>2014-09-06T08:55:18Z</time>
      </trkpt>
      <trkpt lat="39.731876961886883" lon="3.308348832651973">
        <ele>311.60000000000002</ele>
        <time>2014-09-06T08:55:32Z</time>
      </trkpt>
      <trkpt lat="39.731858689337969" lon="3.308344641700387">
        <ele>311.60000000000002</ele>
        <time>2014-09-06T08:55:34Z</time>
      </trkpt>
      <trkpt lat="39.731816109269857" lon="3.30834480933845">
        <ele>312.56999999999999</ele>
        <time>2014-09-06T08:55:38Z</time>
      </trkpt>
      <trkpt lat="39.731796830892563" lon="3.308319747447968">
        <ele>313.05000000000001</ele>
        <time>2014-09-06T08:55:41Z</time>
      </trkpt>
      <trkpt lat="39.731771936640143" lon="3.30828127451241">
        <ele>313.52999999999997</ele>
        <time>2014-09-06T08:55:45Z</time>
      </trkpt>
      <trkpt lat="39.731752825900912" lon="3.308272557333112">
        <ele>313.52999999999997</ele>
        <time>2014-09-06T08:55:48Z</time>
      </trkpt>
      <trkpt lat="39.731717118993402" lon="3.308233330026269">
        <ele>314.00999999999999</ele>
        <time>2014-09-06T08:55:53Z</time>
      </trkpt>
      <trkpt lat="39.731616284698248" lon="3.308196701109409">
        <ele>315.44999999999999</ele>
        <time>2014-09-06T08:56:04Z</time>
      </trkpt>
      <trkpt lat="39.731587115675211" lon="3.308169795200229">
        <ele>316.88999999999999</ele>
        <time>2014-09-06T08:56:14Z</time>
      </trkpt>
      <trkpt lat="39.731549983844161" lon="3.308151522651315">
        <ele>318.32999999999998</ele>
        <time>2014-09-06T08:56:25Z</time>
      </trkpt>
      <trkpt lat="39.731533220037818" lon="3.308131992816925">
        <ele>320.25999999999999</ele>
        <time>2014-09-06T08:56:29Z</time>
      </trkpt>
      <trkpt lat="39.731519892811775" lon="3.308128388598561">
        <ele>315.44999999999999</ele>
        <time>2014-09-06T08:56:31Z</time>
      </trkpt>
      <trkpt lat="39.731514696031809" lon="3.308135429397225">
        <ele>319.77999999999997</ele>
        <time>2014-09-06T08:56:32Z</time>
      </trkpt>
      <trkpt lat="39.731493070721626" lon="3.308131154626608">
        <ele>316.41000000000003</ele>
        <time>2014-09-06T08:56:43Z</time>
      </trkpt>
      <trkpt lat="39.73145610652864" lon="3.308110116049647">
        <ele>317.85000000000002</ele>
        <time>2014-09-06T08:56:47Z</time>
      </trkpt>
      <trkpt lat="39.731451077386737" lon="3.308105506002903">
        <ele>319.77999999999997</ele>
        <time>2014-09-06T08:56:50Z</time>
      </trkpt>
      <trkpt lat="39.731451077386737" lon="3.308105506002903">
        <ele>319.30000000000001</ele>
        <time>2014-09-06T08:57:02Z</time>
      </trkpt>
      <trkpt lat="39.731445210054517" lon="3.308095531538129">
        <ele>321.22000000000003</ele>
        <time>2014-09-06T08:57:04Z</time>
      </trkpt>
      <trkpt lat="39.731435822322965" lon="3.308073990046978">
        <ele>316.88999999999999</ele>
        <time>2014-09-06T08:57:06Z</time>
      </trkpt>
      <trkpt lat="39.731410425156355" lon="3.308021519333124">
        <ele>316.88999999999999</ele>
        <time>2014-09-06T08:57:10Z</time>
      </trkpt>
      <trkpt lat="39.731388799846172" lon="3.307979945093393">
        <ele>320.25999999999999</ele>
        <time>2014-09-06T08:57:13Z</time>
      </trkpt>
      <trkpt lat="39.731358960270882" lon="3.307942226529121">
        <ele>320.74000000000001</ele>
        <time>2014-09-06T08:57:17Z</time>
      </trkpt>
      <trkpt lat="39.731331216171384" lon="3.307902663946152">
        <ele>320.25999999999999</ele>
        <time>2014-09-06T08:57:21Z</time>
      </trkpt>
      <trkpt lat="39.731288803741336" lon="3.307881793007255">
        <ele>321.22000000000003</ele>
        <time>2014-09-06T08:57:26Z</time>
      </trkpt>
      <trkpt lat="39.73120104521513" lon="3.307774420827627">
        <ele>321.69999999999999</ele>
        <time>2014-09-06T08:57:36Z</time>
      </trkpt>
      <trkpt lat="39.731156453490257" lon="3.307747934013605">
        <ele>322.66000000000003</ele>
        <time>2014-09-06T08:57:41Z</time>
      </trkpt>
      <trkpt lat="39.73111848346889" lon="3.307723626494408">
        <ele>323.62</ele>
        <time>2014-09-06T08:57:45Z</time>
      </trkpt>
      <trkpt lat="39.731079339981079" lon="3.307674676179886">
        <ele>323.62</ele>
        <time>2014-09-06T08:57:51Z</time>
      </trkpt>
      <trkpt lat="39.731016475707293" lon="3.307612147182226">
        <ele>324.10000000000002</ele>
        <time>2014-09-06T08:57:58Z</time>
      </trkpt>
      <trkpt lat="39.730990994721651" lon="3.307590438053012">
        <ele>324.57999999999998</ele>
        <time>2014-09-06T08:58:01Z</time>
      </trkpt>
      <trkpt lat="39.730942379683256" lon="3.307568142190576">
        <ele>325.54000000000002</ele>
        <time>2014-09-06T08:58:05Z</time>
      </trkpt>
      <trkpt lat="39.730930728837848" lon="3.307546516880393">
        <ele>325.54000000000002</ele>
        <time>2014-09-06T08:58:07Z</time>
      </trkpt>
      <trkpt lat="39.730897536501288" lon="3.307519778609276">
        <ele>326.5</ele>
        <time>2014-09-06T08:58:11Z</time>
      </trkpt>
      <trkpt lat="39.730846993625164" lon="3.30748038366437">
        <ele>326.5</ele>
        <time>2014-09-06T08:58:16Z</time>
      </trkpt>
      <trkpt lat="39.730813382193446" lon="3.307451801374555">
        <ele>326.99000000000001</ele>
        <time>2014-09-06T08:58:20Z</time>
      </trkpt>
      <trkpt lat="39.730753703042865" lon="3.307413831353188">
        <ele>327.94999999999999</ele>
        <time>2014-09-06T08:58:28Z</time>
      </trkpt>
      <trkpt lat="39.730691844597459" lon="3.307374771684408">
        <ele>328.91000000000003</ele>
        <time>2014-09-06T08:58:37Z</time>
      </trkpt>
      <trkpt lat="39.730639457702637" lon="3.307353733107448">
        <ele>329.38999999999999</ele>
        <time>2014-09-06T08:58:41Z</time>
      </trkpt>
      <trkpt lat="39.730610959231853" lon="3.307339316233993">
        <ele>329.87</ele>
        <time>2014-09-06T08:58:44Z</time>
      </trkpt>
      <trkpt lat="39.730553878471255" lon="3.307316685095429">
        <ele>330.35000000000002</ele>
        <time>2014-09-06T08:58:49Z</time>
      </trkpt>
      <trkpt lat="39.730499815195799" lon="3.307290030643344">
        <ele>330.82999999999998</ele>
        <time>2014-09-06T08:58:54Z</time>
      </trkpt>
      <trkpt lat="39.730453714728355" lon="3.307268153876066">
        <ele>331.79000000000002</ele>
        <time>2014-09-06T08:58:59Z</time>
      </trkpt>
      <trkpt lat="39.730342738330364" lon="3.307237979024649">
        <ele>332.75</ele>
        <time>2014-09-06T08:59:10Z</time>
      </trkpt>
      <trkpt lat="39.730302086099982" lon="3.30723755992949">
        <ele>332.75</ele>
        <time>2014-09-06T08:59:14Z</time>
      </trkpt>
      <trkpt lat="39.730267133563757" lon="3.307222304865718">
        <ele>333.23000000000002</ele>
        <time>2014-09-06T08:59:18Z</time>
      </trkpt>
      <trkpt lat="39.730229498818517" lon="3.30720822326839">
        <ele>334.68000000000001</ele>
        <time>2014-09-06T08:59:22Z</time>
      </trkpt>
      <trkpt lat="39.730154983699322" lon="3.307207720354199">
        <ele>335.63999999999999</ele>
        <time>2014-09-06T08:59:29Z</time>
      </trkpt>
      <trkpt lat="39.730100585147738" lon="3.307166146114469">
        <ele>336.12</ele>
        <time>2014-09-06T08:59:34Z</time>
      </trkpt>
      <trkpt lat="39.729985920712352" lon="3.307173438370228">
        <ele>336.60000000000002</ele>
        <time>2014-09-06T08:59:47Z</time>
      </trkpt>
      <trkpt lat="39.729976449161768" lon="3.307175114750862">
        <ele>337.07999999999998</ele>
        <time>2014-09-06T08:59:48Z</time>
      </trkpt>
      <trkpt lat="39.72985876724124" lon="3.307152567431331">
        <ele>339</ele>
        <time>2014-09-06T09:00:01Z</time>
      </trkpt>
      <trkpt lat="39.729838566854596" lon="3.307122141122818">
        <ele>339</ele>
        <time>2014-09-06T09:00:04Z</time>
      </trkpt>
      <trkpt lat="39.729818115010858" lon="3.307120883837342">
        <ele>339.95999999999998</ele>
        <time>2014-09-06T09:00:06Z</time>
      </trkpt>
      <trkpt lat="39.729786599054933" lon="3.307100934907794">
        <ele>339</ele>
        <time>2014-09-06T09:00:10Z</time>
      </trkpt>
      <trkpt lat="39.729695739224553" lon="3.30711979418993">
        <ele>339</ele>
        <time>2014-09-06T09:00:18Z</time>
      </trkpt>
      <trkpt lat="39.729648632928729" lon="3.307118285447359">
        <ele>338.51999999999998</ele>
        <time>2014-09-06T09:00:22Z</time>
      </trkpt>
      <trkpt lat="39.729641675949097" lon="3.307129601016641">
        <ele>337.56</ele>
        <time>2014-09-06T09:00:24Z</time>
      </trkpt>
      <trkpt lat="39.729570597410202" lon="3.307162541896105">
        <ele>336.60000000000002</ele>
        <time>2014-09-06T09:00:35Z</time>
      </trkpt>
      <trkpt lat="39.729517539963126" lon="3.307199086993933">
        <ele>335.16000000000003</ele>
        <time>2014-09-06T09:00:41Z</time>
      </trkpt>
      <trkpt lat="39.729472529143095" lon="3.30724828876555">
        <ele>334.68000000000001</ele>
        <time>2014-09-06T09:00:47Z</time>
      </trkpt>
      <trkpt lat="39.729422656819224" lon="3.307299334555864">
        <ele>333.70999999999998</ele>
        <time>2014-09-06T09:00:54Z</time>
      </trkpt>
      <trkpt lat="39.729393403977156" lon="3.307375442236662">
        <ele>331.79000000000002</ele>
        <time>2014-09-06T09:01:00Z</time>
      </trkpt>
      <trkpt lat="39.729379406198859" lon="3.307527070865035">
        <ele>332.26999999999998</ele>
        <time>2014-09-06T09:01:10Z</time>
      </trkpt>
      <trkpt lat="39.72937161102891" lon="3.307583732530475">
        <ele>331.31</ele>
        <time>2014-09-06T09:01:14Z</time>
      </trkpt>
      <trkpt lat="39.72937261685729" lon="3.307653218507767">
        <ele>330.82999999999998</ele>
        <time>2014-09-06T09:01:19Z</time>
      </trkpt>
      <trkpt lat="39.729368928819895" lon="3.307663109153509">
        <ele>330.35000000000002</ele>
        <time>2014-09-06T09:01:20Z</time>
      </trkpt>
      <trkpt lat="39.729327186942101" lon="3.307732595130801">
        <ele>328.43000000000001</ele>
        <time>2014-09-06T09:01:29Z</time>
      </trkpt>
      <trkpt lat="39.729292569682002" lon="3.307667300105095">
        <ele>328.91000000000003</ele>
        <time>2014-09-06T09:01:33Z</time>
      </trkpt>
      <trkpt lat="39.729282930493355" lon="3.307620780542493">
        <ele>327.94999999999999</ele>
        <time>2014-09-06T09:01:38Z</time>
      </trkpt>
      <trkpt lat="39.729234650731087" lon="3.307585911825299">
        <ele>327.47000000000003</ele>
        <time>2014-09-06T09:01:42Z</time>
      </trkpt>
      <trkpt lat="39.729201793670654" lon="3.307610470801592">
        <ele>325.54000000000002</ele>
        <time>2014-09-06T09:01:47Z</time>
      </trkpt>
      <trkpt lat="39.729179497808218" lon="3.307718513533473">
        <ele>324.57999999999998</ele>
        <time>2014-09-06T09:01:54Z</time>
      </trkpt>
      <trkpt lat="39.729176731780171" lon="3.307819934561849">
        <ele>324.10000000000002</ele>
        <time>2014-09-06T09:02:00Z</time>
      </trkpt>
      <trkpt lat="39.729166673496366" lon="3.307916997000575">
        <ele>323.13999999999999</ele>
        <time>2014-09-06T09:02:07Z</time>
      </trkpt>
      <trkpt lat="39.729127613827586" lon="3.308049598708749">
        <ele>322.18000000000001</ele>
        <time>2014-09-06T09:02:17Z</time>
      </trkpt>
      <trkpt lat="39.729109592735767" lon="3.308084132149816">
        <ele>321.22000000000003</ele>
        <time>2014-09-06T09:02:22Z</time>
      </trkpt>
      <trkpt lat="39.729078076779842" lon="3.308117492124438">
        <ele>320.25999999999999</ele>
        <time>2014-09-06T09:02:27Z</time>
      </trkpt>
      <trkpt lat="39.729005070403218" lon="3.308199299499393">
        <ele>319.30000000000001</ele>
        <time>2014-09-06T09:02:37Z</time>
      </trkpt>
      <trkpt lat="39.728961484506726" lon="3.308165352791548">
        <ele>316.41000000000003</ele>
        <time>2014-09-06T09:02:48Z</time>
      </trkpt>
      <trkpt lat="39.728966597467661" lon="3.308119168505073">
        <ele>316.41000000000003</ele>
        <time>2014-09-06T09:02:52Z</time>
      </trkpt>
      <trkpt lat="39.728931896388531" lon="3.308089161291719">
        <ele>315.44999999999999</ele>
        <time>2014-09-06T09:02:58Z</time>
      </trkpt>
      <trkpt lat="39.728892920538783" lon="3.308144481852651">
        <ele>313.52999999999997</ele>
        <time>2014-09-06T09:03:05Z</time>
      </trkpt>
      <trkpt lat="39.728858890011907" lon="3.308188235387206">
        <ele>313.52999999999997</ele>
        <time>2014-09-06T09:03:11Z</time>
      </trkpt>
      <trkpt lat="39.728738274425268" lon="3.308236766606569">
        <ele>311.60000000000002</ele>
        <time>2014-09-06T09:03:21Z</time>
      </trkpt>
      <trkpt lat="39.728697622194886" lon="3.308253362774849">
        <ele>309.68000000000001</ele>
        <time>2014-09-06T09:03:35Z</time>
      </trkpt>
      <trkpt lat="39.728676835075021" lon="3.308202736079693">
        <ele>311.12</ele>
        <time>2014-09-06T09:03:40Z</time>
      </trkpt>
      <trkpt lat="39.728651354089379" lon="3.308147247880697">
        <ele>307.75999999999999</ele>
        <time>2014-09-06T09:03:45Z</time>
      </trkpt>
      <trkpt lat="39.728627884760499" lon="3.308097710832954">
        <ele>309.19999999999999</ele>
        <time>2014-09-06T09:03:49Z</time>
      </trkpt>
      <trkpt lat="39.72862109541893" lon="3.308073822408915">
        <ele>307.75999999999999</ele>
        <time>2014-09-06T09:03:51Z</time>
      </trkpt>
      <trkpt lat="39.728584298864007" lon="3.308021686971188">
        <ele>305.83999999999997</ele>
        <time>2014-09-06T09:04:03Z</time>
      </trkpt>
      <trkpt lat="39.728546580299735" lon="3.30795044079423">
        <ele>306.80000000000001</ele>
        <time>2014-09-06T09:04:08Z</time>
      </trkpt>
      <trkpt lat="39.728519087657332" lon="3.307921858504415">
        <ele>304.88</ele>
        <time>2014-09-06T09:04:12Z</time>
      </trkpt>
      <trkpt lat="39.728511124849319" lon="3.307911800220609">
        <ele>303.43000000000001</ele>
        <time>2014-09-06T09:04:13Z</time>
      </trkpt>
      <trkpt lat="39.728486146777868" lon="3.307896461337805">
        <ele>302.47000000000003</ele>
        <time>2014-09-06T09:04:15Z</time>
      </trkpt>
      <trkpt lat="39.728424707427621" lon="3.307892857119441">
        <ele>303.43000000000001</ele>
        <time>2014-09-06T09:04:22Z</time>
      </trkpt>
      <trkpt lat="39.728399477899075" lon="3.307904591783881">
        <ele>301.50999999999999</ele>
        <time>2014-09-06T09:04:24Z</time>
      </trkpt>
      <trkpt lat="39.728319682180882" lon="3.307902831584215">
        <ele>304.38999999999999</ele>
        <time>2014-09-06T09:04:30Z</time>
      </trkpt>
      <trkpt lat="39.728293949738145" lon="3.307911045849323">
        <ele>302.94999999999999</ele>
        <time>2014-09-06T09:04:33Z</time>
      </trkpt>
      <trkpt lat="39.728258578106761" lon="3.307923618704081">
        <ele>302.47000000000003</ele>
        <time>2014-09-06T09:04:37Z</time>
      </trkpt>
      <trkpt lat="39.728186074644327" lon="3.30794214271009">
        <ele>301.99000000000001</ele>
        <time>2014-09-06T09:04:43Z</time>
      </trkpt>
      <trkpt lat="39.728160928934813" lon="3.30793971195817">
        <ele>300.55000000000001</ele>
        <time>2014-09-06T09:04:45Z</time>
      </trkpt>
      <trkpt lat="39.728114493191242" lon="3.307937448844314">
        <ele>301.99000000000001</ele>
        <time>2014-09-06T09:04:49Z</time>
      </trkpt>
      <trkpt lat="39.728061687201262" lon="3.307950776070356">
        <ele>301.02999999999997</ele>
        <time>2014-09-06T09:04:54Z</time>
      </trkpt>
      <trkpt lat="39.72792137414217" lon="3.307981453835964">
        <ele>300.06999999999999</ele>
        <time>2014-09-06T09:05:05Z</time>
      </trkpt>
      <trkpt lat="39.727726746350527" lon="3.308044485747814">
        <ele>299.11000000000001</ele>
        <time>2014-09-06T09:05:18Z</time>
      </trkpt>
      <trkpt lat="39.727590708062053" lon="3.308030739426613">
        <ele>298.63</ele>
        <time>2014-09-06T09:05:29Z</time>
      </trkpt>
      <trkpt lat="39.727502278983593" lon="3.308095615357161">
        <ele>298.63</ele>
        <time>2014-09-06T09:05:36Z</time>
      </trkpt>
      <trkpt lat="39.727379065006971" lon="3.308130148798227">
        <ele>298.14999999999998</ele>
        <time>2014-09-06T09:05:45Z</time>
      </trkpt>
      <trkpt lat="39.727247469127178" lon="3.30810634419322">
        <ele>297.18000000000001</ele>
        <time>2014-09-06T09:06:00Z</time>
      </trkpt>
      <trkpt lat="39.727231208235025" lon="3.308098297566176">
        <ele>297.18000000000001</ele>
        <time>2014-09-06T09:06:02Z</time>
      </trkpt>
      <trkpt lat="39.727163231000304" lon="3.308030907064676">
        <ele>296.69999999999999</ele>
        <time>2014-09-06T09:06:08Z</time>
      </trkpt>
      <trkpt lat="39.727088045328856" lon="3.307951027527452">
        <ele>296.69999999999999</ele>
        <time>2014-09-06T09:06:15Z</time>
      </trkpt>
      <trkpt lat="39.727042531594634" lon="3.307866118848324">
        <ele>298.63</ele>
        <time>2014-09-06T09:06:24Z</time>
      </trkpt>
      <trkpt lat="39.727017385885119" lon="3.30780535005033">
        <ele>298.63</ele>
        <time>2014-09-06T09:06:29Z</time>
      </trkpt>
      <trkpt lat="39.726988049224019" lon="3.307631677016616">
        <ele>299.58999999999997</ele>
        <time>2014-09-06T09:06:41Z</time>
      </trkpt>
      <trkpt lat="39.726968100294471" lon="3.307580966502428">
        <ele>300.55000000000001</ele>
        <time>2014-09-06T09:06:45Z</time>
      </trkpt>
      <trkpt lat="39.726889142766595" lon="3.30747602507472">
        <ele>301.50999999999999</ele>
        <time>2014-09-06T09:06:56Z</time>
      </trkpt>
      <trkpt lat="39.72685863263905" lon="3.307438138872385">
        <ele>302.47000000000003</ele>
        <time>2014-09-06T09:07:06Z</time>
      </trkpt>
      <trkpt lat="39.726838013157248" lon="3.307437635958195">
        <ele>302.47000000000003</ele>
        <time>2014-09-06T09:07:10Z</time>
      </trkpt>
      <trkpt lat="39.726796103641391" lon="3.307404946535826">
        <ele>302.47000000000003</ele>
        <time>2014-09-06T09:07:15Z</time>
      </trkpt>
      <trkpt lat="39.726720247417688" lon="3.307311404496431">
        <ele>301.50999999999999</ele>
        <time>2014-09-06T09:07:24Z</time>
      </trkpt>
      <trkpt lat="39.72657767124474" lon="3.307285169139504">
        <ele>300.06999999999999</ele>
        <time>2014-09-06T09:07:34Z</time>
      </trkpt>
      <trkpt lat="39.726538276299834" lon="3.307285001501441">
        <ele>300.06999999999999</ele>
        <time>2014-09-06T09:07:38Z</time>
      </trkpt>
      <trkpt lat="39.726512962952256" lon="3.307297406718135">
        <ele>299.58999999999997</ele>
        <time>2014-09-06T09:07:41Z</time>
      </trkpt>
      <trkpt lat="39.726456385105848" lon="3.307277709245682">
        <ele>299.11000000000001</ele>
        <time>2014-09-06T09:07:46Z</time>
      </trkpt>
      <trkpt lat="39.726381953805685" lon="3.307249462231994">
        <ele>298.63</ele>
        <time>2014-09-06T09:07:54Z</time>
      </trkpt>
      <trkpt lat="39.726283634081483" lon="3.30716866068542">
        <ele>296.69999999999999</ele>
        <time>2014-09-06T09:08:04Z</time>
      </trkpt>
      <trkpt lat="39.72622680477798" lon="3.307142341509461">
        <ele>296.22000000000003</ele>
        <time>2014-09-06T09:08:10Z</time>
      </trkpt>
      <trkpt lat="39.726131167262793" lon="3.307107137516141">
        <ele>296.69999999999999</ele>
        <time>2014-09-06T09:08:16Z</time>
      </trkpt>
      <trkpt lat="39.726083474233747" lon="3.307088278234005">
        <ele>295.25999999999999</ele>
        <time>2014-09-06T09:08:20Z</time>
      </trkpt>
      <trkpt lat="39.726023124530911" lon="3.307078555226326">
        <ele>295.25999999999999</ele>
        <time>2014-09-06T09:08:25Z</time>
      </trkpt>
      <trkpt lat="39.726000493392348" lon="3.307016612961888">
        <ele>294.77999999999997</ele>
        <time>2014-09-06T09:08:34Z</time>
      </trkpt>
      <trkpt lat="39.725996218621731" lon="3.307018121704459">
        <ele>293.81999999999999</ele>
        <time>2014-09-06T09:08:36Z</time>
      </trkpt>
      <trkpt lat="39.725993871688843" lon="3.307016529142857">
        <ele>295.25999999999999</ele>
        <time>2014-09-06T09:08:37Z</time>
      </trkpt>
      <trkpt lat="39.726004265248775" lon="3.307028766721487">
        <ele>293.81999999999999</ele>
        <time>2014-09-06T09:08:39Z</time>
      </trkpt>
      <trkpt lat="39.726043492555618" lon="3.307045781984925">
        <ele>295.25999999999999</ele>
        <time>2014-09-06T09:08:49Z</time>
      </trkpt>
      <trkpt lat="39.726037289947271" lon="3.307043351233006">
        <ele>295.25999999999999</ele>
        <time>2014-09-06T09:08:50Z</time>
      </trkpt>
      <trkpt lat="39.726002169772983" lon="3.307033628225327">
        <ele>296.22000000000003</ele>
        <time>2014-09-06T09:08:53Z</time>
      </trkpt>
      <trkpt lat="39.725988591089845" lon="3.307017618790269">
        <ele>293.33999999999997</ele>
        <time>2014-09-06T09:08:56Z</time>
      </trkpt>
      <trkpt lat="39.725947016850114" lon="3.306950479745865">
        <ele>296.69999999999999</ele>
        <time>2014-09-06T09:09:01Z</time>
      </trkpt>
      <trkpt lat="39.725932264700532" lon="3.306941511109471">
        <ele>294.30000000000001</ele>
        <time>2014-09-06T09:09:03Z</time>
      </trkpt>
      <trkpt lat="39.725921032950282" lon="3.306921562179923">
        <ele>295.25999999999999</ele>
        <time>2014-09-06T09:09:05Z</time>
      </trkpt>
      <trkpt lat="39.725863952189684" lon="3.306765323504806">
        <ele>293.81999999999999</ele>
        <time>2014-09-06T09:09:14Z</time>
      </trkpt>
      <trkpt lat="39.725825311616063" lon="3.306690724566579">
        <ele>294.30000000000001</ele>
        <time>2014-09-06T09:09:18Z</time>
      </trkpt>
      <trkpt lat="39.725812152028084" lon="3.306649066507816">
        <ele>294.30000000000001</ele>
        <time>2014-09-06T09:09:22Z</time>
      </trkpt>
      <trkpt lat="39.725794298574328" lon="3.306498024612665">
        <ele>294.30000000000001</ele>
        <time>2014-09-06T09:09:30Z</time>
      </trkpt>
      <trkpt lat="39.725761441513896" lon="3.306394508108497">
        <ele>294.30000000000001</ele>
        <time>2014-09-06T09:09:38Z</time>
      </trkpt>
      <trkpt lat="39.725751802325249" lon="3.306318148970604">
        <ele>294.30000000000001</ele>
        <time>2014-09-06T09:09:41Z</time>
      </trkpt>
      <trkpt lat="39.725721711292863" lon="3.306253692135215">
        <ele>294.77999999999997</ele>
        <time>2014-09-06T09:09:46Z</time>
      </trkpt>
      <trkpt lat="39.725670078769326" lon="3.306216727942228">
        <ele>295.74000000000001</ele>
        <time>2014-09-06T09:09:52Z</time>
      </trkpt>
      <trkpt lat="39.725603526458144" lon="3.306166604161263">
        <ele>296.69999999999999</ele>
        <time>2014-09-06T09:09:59Z</time>
      </trkpt>
      <trkpt lat="39.725588941946626" lon="3.306150175631046">
        <ele>297.18000000000001</ele>
        <time>2014-09-06T09:10:11Z</time>
      </trkpt>
      <trkpt lat="39.725588355213404" lon="3.306145733222365">
        <ele>298.14999999999998</ele>
        <time>2014-09-06T09:10:28Z</time>
      </trkpt>
      <trkpt lat="39.725588355213404" lon="3.306145733222365">
        <ele>292.38</ele>
        <time>2014-09-06T09:10:44Z</time>
      </trkpt>
      <trkpt lat="39.725588355213404" lon="3.306145733222365">
        <ele>296.69999999999999</ele>
        <time>2014-09-06T09:10:45Z</time>
      </trkpt>
      <trkpt lat="39.725588355213404" lon="3.306145733222365">
        <ele>298.63</ele>
        <time>2014-09-06T09:10:47Z</time>
      </trkpt>
      <trkpt lat="39.725588355213404" lon="3.306145733222365">
        <ele>297.18000000000001</ele>
        <time>2014-09-06T09:10:49Z</time>
      </trkpt>
      <trkpt lat="39.725591288879514" lon="3.306147828698158">
        <ele>297.18000000000001</ele>
        <time>2014-09-06T09:11:06Z</time>
      </trkpt>
      <trkpt lat="39.725589109584689" lon="3.306145649403334">
        <ele>298.14999999999998</ele>
        <time>2014-09-06T09:11:15Z</time>
      </trkpt>
      <trkpt lat="39.725594557821751" lon="3.30616015009582">
        <ele>297.67000000000002</ele>
        <time>2014-09-06T09:11:24Z</time>
      </trkpt>
      <trkpt lat="39.725589025765657" lon="3.306154198944569">
        <ele>297.67000000000002</ele>
        <time>2014-09-06T09:11:35Z</time>
      </trkpt>
      <trkpt lat="39.725461285561323" lon="3.30603844486177">
        <ele>296.69999999999999</ele>
        <time>2014-09-06T09:11:46Z</time>
      </trkpt>
      <trkpt lat="39.725403366610408" lon="3.30597055144608">
        <ele>296.22000000000003</ele>
        <time>2014-09-06T09:11:51Z</time>
      </trkpt>
      <trkpt lat="39.725336311385036" lon="3.305880781263113">
        <ele>297.67000000000002</ele>
        <time>2014-09-06T09:12:00Z</time>
      </trkpt>
      <trkpt lat="39.725274117663503" lon="3.30582881346345">
        <ele>297.67000000000002</ele>
        <time>2014-09-06T09:12:08Z</time>
      </trkpt>
      <trkpt lat="39.725238494575024" lon="3.305812552571297">
        <ele>299.11000000000001</ele>
        <time>2014-09-06T09:12:11Z</time>
      </trkpt>
      <trkpt lat="39.725165655836463" lon="3.305785898119211">
        <ele>299.58999999999997</ele>
        <time>2014-09-06T09:12:16Z</time>
      </trkpt>
      <trkpt lat="39.725042525678873" lon="3.305682968348265">
        <ele>300.55000000000001</ele>
        <time>2014-09-06T09:12:27Z</time>
      </trkpt>
      <trkpt lat="39.724967340007424" lon="3.305643992498517">
        <ele>301.02999999999997</ele>
        <time>2014-09-06T09:12:36Z</time>
      </trkpt>
      <trkpt lat="39.724932471290231" lon="3.30561088398099">
        <ele>301.50999999999999</ele>
        <time>2014-09-06T09:12:42Z</time>
      </trkpt>
      <trkpt lat="39.724915875121951" lon="3.305537961423397">
        <ele>300.55000000000001</ele>
        <time>2014-09-06T09:12:49Z</time>
      </trkpt>
      <trkpt lat="39.724887795746326" lon="3.305417262017727">
        <ele>299.11000000000001</ele>
        <time>2014-09-06T09:12:56Z</time>
      </trkpt>
      <trkpt lat="39.724870109930634" lon="3.305363114923239">
        <ele>298.63</ele>
        <time>2014-09-06T09:13:01Z</time>
      </trkpt>
      <trkpt lat="39.724833313375711" lon="3.305362947285175">
        <ele>298.14999999999998</ele>
        <time>2014-09-06T09:13:03Z</time>
      </trkpt>
      <trkpt lat="39.724846724420786" lon="3.305286504328251">
        <ele>298.14999999999998</ele>
        <time>2014-09-06T09:13:08Z</time>
      </trkpt>
      <trkpt lat="39.724924005568027" lon="3.305225986987352">
        <ele>297.18000000000001</ele>
        <time>2014-09-06T09:13:16Z</time>
      </trkpt>
      <trkpt lat="39.724977649748325" lon="3.305174103006721">
        <ele>297.67000000000002</ele>
        <time>2014-09-06T09:13:24Z</time>
      </trkpt>
      <trkpt lat="39.724985109642148" lon="3.305135127156973">
        <ele>298.14999999999998</ele>
        <time>2014-09-06T09:13:26Z</time>
      </trkpt>
      <trkpt lat="39.724998604506254" lon="3.305120458826423">
        <ele>298.63</ele>
        <time>2014-09-06T09:13:30Z</time>
      </trkpt>
      <trkpt lat="39.725039005279541" lon="3.305083746090531">
        <ele>298.14999999999998</ele>
        <time>2014-09-06T09:13:33Z</time>
      </trkpt>
      <trkpt lat="39.725070018321276" lon="3.305083913728595">
        <ele>298.14999999999998</ele>
        <time>2014-09-06T09:13:36Z</time>
      </trkpt>
      <trkpt lat="39.725163644179702" lon="3.305061114951968">
        <ele>297.67000000000002</ele>
        <time>2014-09-06T09:13:45Z</time>
      </trkpt>
      <trkpt lat="39.72522902302444" lon="3.305009482428432">
        <ele>298.14999999999998</ele>
        <time>2014-09-06T09:13:51Z</time>
      </trkpt>
      <trkpt lat="39.725347207859159" lon="3.304896410554647">
        <ele>300.06999999999999</ele>
        <time>2014-09-06T09:14:03Z</time>
      </trkpt>
      <trkpt lat="39.72538735717535" lon="3.304870678111911">
        <ele>300.06999999999999</ele>
        <time>2014-09-06T09:14:07Z</time>
      </trkpt>
      <trkpt lat="39.725491711869836" lon="3.304794067516923">
        <ele>300.55000000000001</ele>
        <time>2014-09-06T09:14:17Z</time>
      </trkpt>
      <trkpt lat="39.725511828437448" lon="3.304765904322267">
        <ele>300.55000000000001</ele>
        <time>2014-09-06T09:14:20Z</time>
      </trkpt>
      <trkpt lat="39.725567232817411" lon="3.304706979542971">
        <ele>301.50999999999999</ele>
        <time>2014-09-06T09:14:26Z</time>
      </trkpt>
      <trkpt lat="39.725596234202385" lon="3.304665153846145">
        <ele>301.99000000000001</ele>
        <time>2014-09-06T09:14:30Z</time>
      </trkpt>
      <trkpt lat="39.725613668560982" lon="3.304644785821438">
        <ele>302.47000000000003</ele>
        <time>2014-09-06T09:14:33Z</time>
      </trkpt>
      <trkpt lat="39.725691452622414" lon="3.304540850222111">
        <ele>304.38999999999999</ele>
        <time>2014-09-06T09:14:43Z</time>
      </trkpt>
      <trkpt lat="39.725701510906219" lon="3.304505227133632">
        <ele>304.88</ele>
        <time>2014-09-06T09:14:46Z</time>
      </trkpt>
      <trkpt lat="39.725766722112894" lon="3.304430963471532">
        <ele>305.83999999999997</ele>
        <time>2014-09-06T09:14:55Z</time>
      </trkpt>
      <trkpt lat="39.725880129262805" lon="3.304430460557342">
        <ele>302.94999999999999</ele>
        <time>2014-09-06T09:15:05Z</time>
      </trkpt>
      <trkpt lat="39.725895887240767" lon="3.304433561861515">
        <ele>303.43000000000001</ele>
        <time>2014-09-06T09:15:08Z</time>
      </trkpt>
      <trkpt lat="39.725975347682834" lon="3.304440686479211">
        <ele>301.99000000000001</ele>
        <time>2014-09-06T09:15:15Z</time>
      </trkpt>
      <trkpt lat="39.726027902215719" lon="3.304425179958344">
        <ele>301.02999999999997</ele>
        <time>2014-09-06T09:15:19Z</time>
      </trkpt>
      <trkpt lat="39.726073332130909" lon="3.304414534941316">
        <ele>300.06999999999999</ele>
        <time>2014-09-06T09:15:24Z</time>
      </trkpt>
      <trkpt lat="39.726198809221387" lon="3.304366338998079">
        <ele>298.14999999999998</ele>
        <time>2014-09-06T09:15:34Z</time>
      </trkpt>
      <trkpt lat="39.726241221651435" lon="3.304278077557683">
        <ele>300.06999999999999</ele>
        <time>2014-09-06T09:15:42Z</time>
      </trkpt>
      <trkpt lat="39.726249938830733" lon="3.304254189133644">
        <ele>300.06999999999999</ele>
        <time>2014-09-06T09:15:44Z</time>
      </trkpt>
      <trkpt lat="39.726285813376307" lon="3.304170370101929">
        <ele>302.47000000000003</ele>
        <time>2014-09-06T09:15:52Z</time>
      </trkpt>
      <trkpt lat="39.726408775895834" lon="3.304079761728644">
        <ele>301.99000000000001</ele>
        <time>2014-09-06T09:16:02Z</time>
      </trkpt>
      <trkpt lat="39.726437861099839" lon="3.304071044549346">
        <ele>301.99000000000001</ele>
        <time>2014-09-06T09:16:06Z</time>
      </trkpt>
      <trkpt lat="39.726469963788986" lon="3.303986974060535">
        <ele>302.94999999999999</ele>
        <time>2014-09-06T09:16:12Z</time>
      </trkpt>
      <trkpt lat="39.726496618241072" lon="3.303923271596432">
        <ele>303.43000000000001</ele>
        <time>2014-09-06T09:16:17Z</time>
      </trkpt>
      <trkpt lat="39.726536516100168" lon="3.303782036527991">
        <ele>304.88</ele>
        <time>2014-09-06T09:16:28Z</time>
      </trkpt>
      <trkpt lat="39.726536432281137" lon="3.303765775635839">
        <ele>304.88</ele>
        <time>2014-09-06T09:16:29Z</time>
      </trkpt>
      <trkpt lat="39.726544646546245" lon="3.303738702088594">
        <ele>305.36000000000001</ele>
        <time>2014-09-06T09:16:31Z</time>
      </trkpt>
      <trkpt lat="39.726486727595329" lon="3.303652284666896">
        <ele>306.80000000000001</ele>
        <time>2014-09-06T09:16:40Z</time>
      </trkpt>
      <trkpt lat="39.726460492238402" lon="3.303645243868232">
        <ele>307.27999999999997</ele>
        <time>2014-09-06T09:16:43Z</time>
      </trkpt>
      <trkpt lat="39.726346917450428" lon="3.303641555830836">
        <ele>309.19999999999999</ele>
        <time>2014-09-06T09:16:55Z</time>
      </trkpt>
      <trkpt lat="39.726331410929561" lon="3.303643148392439">
        <ele>309.68000000000001</ele>
        <time>2014-09-06T09:16:57Z</time>
      </trkpt>
      <trkpt lat="39.726278437301517" lon="3.303646501153708">
        <ele>309.68000000000001</ele>
        <time>2014-09-06T09:17:03Z</time>
      </trkpt>
      <trkpt lat="39.726239209994674" lon="3.30367399379611">
        <ele>311.12</ele>
        <time>2014-09-06T09:17:08Z</time>
      </trkpt>
      <trkpt lat="39.726220602169633" lon="3.303685477003455">
        <ele>311.60000000000002</ele>
        <time>2014-09-06T09:17:11Z</time>
      </trkpt>
      <trkpt lat="39.726149188354611" lon="3.303679022938013">
        <ele>313.52999999999997</ele>
        <time>2014-09-06T09:17:19Z</time>
      </trkpt>
      <trkpt lat="39.726104512810707" lon="3.303663935512304">
        <ele>314.00999999999999</ele>
        <time>2014-09-06T09:17:24Z</time>
      </trkpt>
      <trkpt lat="39.726069392636418" lon="3.303674245253205">
        <ele>314.49000000000001</ele>
        <time>2014-09-06T09:17:28Z</time>
      </trkpt>
      <trkpt lat="39.726050114259124" lon="3.30366569571197">
        <ele>314.97000000000003</ele>
        <time>2014-09-06T09:17:30Z</time>
      </trkpt>
      <trkpt lat="39.726024130359292" lon="3.30366569571197">
        <ele>315.44999999999999</ele>
        <time>2014-09-06T09:17:33Z</time>
      </trkpt>
      <trkpt lat="39.725977359339595" lon="3.303670976310968">
        <ele>316.41000000000003</ele>
        <time>2014-09-06T09:17:37Z</time>
      </trkpt>
      <trkpt lat="39.725930420681834" lon="3.303666030988097">
        <ele>315.93000000000001</ele>
        <time>2014-09-06T09:17:42Z</time>
      </trkpt>
      <trkpt lat="39.725884152576327" lon="3.30364415422082">
        <ele>316.88999999999999</ele>
        <time>2014-09-06T09:17:47Z</time>
      </trkpt>
      <trkpt lat="39.725847942754626" lon="3.303639963269234">
        <ele>317.85000000000002</ele>
        <time>2014-09-06T09:17:51Z</time>
      </trkpt>
      <trkpt lat="39.725741576403379" lon="3.30363149754703">
        <ele>319.30000000000001</ele>
        <time>2014-09-06T09:18:03Z</time>
      </trkpt>
      <trkpt lat="39.725647699087858" lon="3.303599813953042">
        <ele>321.69999999999999</ele>
        <time>2014-09-06T09:18:15Z</time>
      </trkpt>
      <trkpt lat="39.725629091262817" lon="3.303589671850205">
        <ele>322.18000000000001</ele>
        <time>2014-09-06T09:18:17Z</time>
      </trkpt>
      <trkpt lat="39.725539488717914" lon="3.30359092913568">
        <ele>323.13999999999999</ele>
        <time>2014-09-06T09:18:25Z</time>
      </trkpt>
      <trkpt lat="39.725511996075511" lon="3.303577769547701">
        <ele>323.62</ele>
        <time>2014-09-06T09:18:30Z</time>
      </trkpt>
      <trkpt lat="39.725403869524598" lon="3.303540637716651">
        <ele>325.54000000000002</ele>
        <time>2014-09-06T09:18:40Z</time>
      </trkpt>
      <trkpt lat="39.725321978330612" lon="3.303484562784433">
        <ele>326.01999999999998</ele>
        <time>2014-09-06T09:18:48Z</time>
      </trkpt>
      <trkpt lat="39.725315188989043" lon="3.30347266048193">
        <ele>326.5</ele>
        <time>2014-09-06T09:18:50Z</time>
      </trkpt>
      <trkpt lat="39.725258946418762" lon="3.303471403196454">
        <ele>326.99000000000001</ele>
        <time>2014-09-06T09:18:55Z</time>
      </trkpt>
      <trkpt lat="39.725171104073524" lon="3.303468888625503">
        <ele>327.94999999999999</ele>
        <time>2014-09-06T09:19:04Z</time>
      </trkpt>
      <trkpt lat="39.725152831524611" lon="3.303466876968741">
        <ele>328.43000000000001</ele>
        <time>2014-09-06T09:19:07Z</time>
      </trkpt>
      <trkpt lat="39.725130368024111" lon="3.303474755957723">
        <ele>328.91000000000003</ele>
        <time>2014-09-06T09:19:10Z</time>
      </trkpt>
      <trkpt lat="39.725094577297568" lon="3.303482886403799">
        <ele>329.38999999999999</ele>
        <time>2014-09-06T09:19:14Z</time>
      </trkpt>
      <trkpt lat="39.725054763257504" lon="3.303478695452213">
        <ele>330.35000000000002</ele>
        <time>2014-09-06T09:19:18Z</time>
      </trkpt>
      <trkpt lat="39.724977649748325" lon="3.303466206416488">
        <ele>332.26999999999998</ele>
        <time>2014-09-06T09:19:29Z</time>
      </trkpt>
      <trkpt lat="39.724978152662516" lon="3.303469223901629">
        <ele>331.79000000000002</ele>
        <time>2014-09-06T09:19:30Z</time>
      </trkpt>
      <trkpt lat="39.724943116307259" lon="3.303465200588107">
        <ele>332.75</ele>
        <time>2014-09-06T09:19:34Z</time>
      </trkpt>
      <trkpt lat="39.724888717755675" lon="3.303478108718991">
        <ele>334.68000000000001</ele>
        <time>2014-09-06T09:19:40Z</time>
      </trkpt>
      <trkpt lat="39.724859716370702" lon="3.303487999364734">
        <ele>335.63999999999999</ele>
        <time>2014-09-06T09:19:43Z</time>
      </trkpt>
      <trkpt lat="39.724832056090236" lon="3.303516078740358">
        <ele>335.63999999999999</ele>
        <time>2014-09-06T09:19:47Z</time>
      </trkpt>
      <trkpt lat="39.724802300333977" lon="3.303537368774414">
        <ele>337.07999999999998</ele>
        <time>2014-09-06T09:19:51Z</time>
      </trkpt>
      <trkpt lat="39.724766509607434" lon="3.303574332967401">
        <ele>337.07999999999998</ele>
        <time>2014-09-06T09:19:55Z</time>
      </trkpt>
      <trkpt lat="39.724692162126303" lon="3.303672485053539">
        <ele>337.56</ele>
        <time>2014-09-06T09:20:05Z</time>
      </trkpt>
      <trkpt lat="39.724602978676558" lon="3.303776001557708">
        <ele>338.51999999999998</ele>
        <time>2014-09-06T09:20:16Z</time>
      </trkpt>
      <trkpt lat="39.724595351144671" lon="3.30378052778542">
        <ele>338.51999999999998</ele>
        <time>2014-09-06T09:20:17Z</time>
      </trkpt>
      <trkpt lat="39.724523099139333" lon="3.303810618817806">
        <ele>339.48000000000002</ele>
        <time>2014-09-06T09:20:28Z</time>
      </trkpt>
      <trkpt lat="39.724455792456865" lon="3.30382201820612">
        <ele>339.95999999999998</ele>
        <time>2014-09-06T09:20:34Z</time>
      </trkpt>
      <trkpt lat="39.724429724738002" lon="3.303795615211129">
        <ele>340.44</ele>
        <time>2014-09-06T09:20:38Z</time>
      </trkpt>
      <trkpt lat="39.724402735009789" lon="3.303753957152367">
        <ele>341.88999999999999</ele>
        <time>2014-09-06T09:20:43Z</time>
      </trkpt>
      <trkpt lat="39.724383037537336" lon="3.303711293265224">
        <ele>342.85000000000002</ele>
        <time>2014-09-06T09:20:50Z</time>
      </trkpt>
      <trkpt lat="39.724384462460876" lon="3.303703833371401">
        <ele>343.32999999999998</ele>
        <time>2014-09-06T09:20:51Z</time>
      </trkpt>
      <trkpt lat="39.724387647584081" lon="3.303686399012804">
        <ele>343.32999999999998</ele>
        <time>2014-09-06T09:21:04Z</time>
      </trkpt>
      <trkpt lat="39.724387647584081" lon="3.303686399012804">
        <ele>343.81</ele>
        <time>2014-09-06T09:21:25Z</time>
      </trkpt>
      <trkpt lat="39.724393766373396" lon="3.303685477003455">
        <ele>343.32999999999998</ele>
        <time>2014-09-06T09:21:43Z</time>
      </trkpt>
      <trkpt lat="39.724393766373396" lon="3.303685477003455">
        <ele>342.85000000000002</ele>
        <time>2014-09-06T09:21:48Z</time>
      </trkpt>
      <trkpt lat="39.724394185468554" lon="3.303616410121322">
        <ele>345.73000000000002</ele>
        <time>2014-09-06T09:21:55Z</time>
      </trkpt>
      <trkpt lat="39.724348085001111" lon="3.303486742079258">
        <ele>347.64999999999998</ele>
        <time>2014-09-06T09:22:09Z</time>
      </trkpt>
      <trkpt lat="39.724343391135335" lon="3.303477605804801">
        <ele>348.13</ele>
        <time>2014-09-06T09:22:10Z</time>
      </trkpt>
      <trkpt lat="39.724333332851529" lon="3.303441563621163">
        <ele>348.13</ele>
        <time>2014-09-06T09:22:14Z</time>
      </trkpt>
      <trkpt lat="39.724318664520979" lon="3.303431756794453">
        <ele>349.10000000000002</ele>
        <time>2014-09-06T09:22:19Z</time>
      </trkpt>
      <trkpt lat="39.724292764440179" lon="3.30339789390564">
        <ele>349.10000000000002</ele>
        <time>2014-09-06T09:22:22Z</time>
      </trkpt>
      <trkpt lat="39.724250687286258" lon="3.303348356857896">
        <ele>350.06</ele>
        <time>2014-09-06T09:22:27Z</time>
      </trkpt>
      <trkpt lat="39.724224200472236" lon="3.303326228633523">
        <ele>351.01999999999998</ele>
        <time>2014-09-06T09:22:32Z</time>
      </trkpt>
      <trkpt lat="39.724199641495943" lon="3.303294545039535">
        <ele>351.98000000000002</ele>
        <time>2014-09-06T09:22:35Z</time>
      </trkpt>
      <trkpt lat="39.724175585433841" lon="3.303288761526346">
        <ele>351.98000000000002</ele>
        <time>2014-09-06T09:22:38Z</time>
      </trkpt>
      <trkpt lat="39.724129736423492" lon="3.303240397945046">
        <ele>352.94</ele>
        <time>2014-09-06T09:22:44Z</time>
      </trkpt>
      <trkpt lat="39.72409344278276" lon="3.303195806220174">
        <ele>353.89999999999998</ele>
        <time>2014-09-06T09:22:49Z</time>
      </trkpt>
      <trkpt lat="39.724062513560057" lon="3.30314920283854">
        <ele>354.86000000000001</ele>
        <time>2014-09-06T09:22:54Z</time>
      </trkpt>
      <trkpt lat="39.724018005654216" lon="3.303079549223185">
        <ele>355.33999999999997</ele>
        <time>2014-09-06T09:23:01Z</time>
      </trkpt>
      <trkpt lat="39.723954387009144" lon="3.303034286946058">
        <ele>355.33999999999997</ele>
        <time>2014-09-06T09:23:10Z</time>
      </trkpt>
      <trkpt lat="39.723937455564737" lon="3.303015762940049">
        <ele>355.82999999999998</ele>
        <time>2014-09-06T09:23:14Z</time>
      </trkpt>
      <trkpt lat="39.723888505250216" lon="3.302988102659583">
        <ele>355.33999999999997</ele>
        <time>2014-09-06T09:23:18Z</time>
      </trkpt>
      <trkpt lat="39.723785407841206" lon="3.302971925586462">
        <ele>357.75</ele>
        <time>2014-09-06T09:23:29Z</time>
      </trkpt>
      <trkpt lat="39.723741235211492" lon="3.302949965000153">
        <ele>358.23000000000002</ele>
        <time>2014-09-06T09:23:34Z</time>
      </trkpt>
      <trkpt lat="39.723687507212162" lon="3.302944349125028">
        <ele>359.19</ele>
        <time>2014-09-06T09:23:39Z</time>
      </trkpt>
      <trkpt lat="39.723615171387792" lon="3.302927082404494">
        <ele>359.67000000000002</ele>
        <time>2014-09-06T09:23:46Z</time>
      </trkpt>
      <trkpt lat="39.723564879968762" lon="3.30290830694139">
        <ele>360.14999999999998</ele>
        <time>2014-09-06T09:23:50Z</time>
      </trkpt>
      <trkpt lat="39.723518444225192" lon="3.302918365225196">
        <ele>360.63</ele>
        <time>2014-09-06T09:23:55Z</time>
      </trkpt>
      <trkpt lat="39.723478714004159" lon="3.302928758785129">
        <ele>361.11000000000001</ele>
        <time>2014-09-06T09:23:59Z</time>
      </trkpt>
      <trkpt lat="39.723437475040555" lon="3.302950467914343">
        <ele>361.58999999999997</ele>
        <time>2014-09-06T09:24:03Z</time>
      </trkpt>
      <trkpt lat="39.723369497805834" lon="3.302965722978115">
        <ele>363.51999999999998</ele>
        <time>2014-09-06T09:24:15Z</time>
      </trkpt>
      <trkpt lat="39.723302945494652" lon="3.302988689392805">
        <ele>365.44</ele>
        <time>2014-09-06T09:24:26Z</time>
      </trkpt>
      <trkpt lat="39.723248714581132" lon="3.303015260025859">
        <ele>367.83999999999997</ele>
        <time>2014-09-06T09:24:35Z</time>
      </trkpt>
      <trkpt lat="39.723207307979465" lon="3.303044177591801">
        <ele>367.83999999999997</ele>
        <time>2014-09-06T09:24:39Z</time>
      </trkpt>
      <trkpt lat="39.723156597465277" lon="3.303075358271599">
        <ele>368.80000000000001</ele>
        <time>2014-09-06T09:24:44Z</time>
      </trkpt>
      <trkpt lat="39.723062217235565" lon="3.303091954439879">
        <ele>369.75999999999999</ele>
        <time>2014-09-06T09:24:54Z</time>
      </trkpt>
      <trkpt lat="39.723059786483645" lon="3.303086841478944">
        <ele>370.73000000000002</ele>
        <time>2014-09-06T09:24:55Z</time>
      </trkpt>
      <trkpt lat="39.722894327715039" lon="3.3031633682549">
        <ele>370.24000000000001</ele>
        <time>2014-09-06T09:25:08Z</time>
      </trkpt>
      <trkpt lat="39.7228635661304" lon="3.303186250850558">
        <ele>369.75999999999999</ele>
        <time>2014-09-06T09:25:10Z</time>
      </trkpt>
      <trkpt lat="39.72283280454576" lon="3.303194465115666">
        <ele>370.24000000000001</ele>
        <time>2014-09-06T09:25:14Z</time>
      </trkpt>
      <trkpt lat="39.722750494256616" lon="3.303243247792125">
        <ele>371.20999999999998</ele>
        <time>2014-09-06T09:25:21Z</time>
      </trkpt>
      <trkpt lat="39.722692910581827" lon="3.303274344652891">
        <ele>371.20999999999998</ele>
        <time>2014-09-06T09:25:26Z</time>
      </trkpt>
      <trkpt lat="39.722580425441265" lon="3.303330587223172">
        <ele>371.69</ele>
        <time>2014-09-06T09:25:35Z</time>
      </trkpt>
      <trkpt lat="39.722469868138433" lon="3.303387835621834">
        <ele>372.64999999999998</ele>
        <time>2014-09-06T09:25:46Z</time>
      </trkpt>
      <trkpt lat="39.722424605861306" lon="3.303421698510647">
        <ele>373.13</ele>
        <time>2014-09-06T09:25:53Z</time>
      </trkpt>
      <trkpt lat="39.722378170117736" lon="3.303515324369073">
        <ele>373.61000000000001</ele>
        <time>2014-09-06T09:25:59Z</time>
      </trkpt>
      <trkpt lat="39.722360568121076" lon="3.303541643545032">
        <ele>374.08999999999997</ele>
        <time>2014-09-06T09:26:01Z</time>
      </trkpt>
      <trkpt lat="39.722317066043615" lon="3.303597634658217">
        <ele>375.05000000000001</ele>
        <time>2014-09-06T09:26:06Z</time>
      </trkpt>
      <trkpt lat="39.722260152921081" lon="3.303650273010135">
        <ele>375.52999999999997</ele>
        <time>2014-09-06T09:26:12Z</time>
      </trkpt>
      <trkpt lat="39.722235174849629" lon="3.30363878980279">
        <ele>376.00999999999999</ele>
        <time>2014-09-06T09:26:14Z</time>
      </trkpt>
      <trkpt lat="39.722216231748462" lon="3.303637281060219">
        <ele>375.52999999999997</ele>
        <time>2014-09-06T09:26:15Z</time>
      </trkpt>
      <trkpt lat="39.722180273383856" lon="3.303642394021154">
        <ele>376.00999999999999</ele>
        <time>2014-09-06T09:26:19Z</time>
      </trkpt>
      <trkpt lat="39.72216677851975" lon="3.303640717640519">
        <ele>376.00999999999999</ele>
        <time>2014-09-06T09:26:20Z</time>
      </trkpt>
      <trkpt lat="39.722154457122087" lon="3.303640633821487">
        <ele>376.00999999999999</ele>
        <time>2014-09-06T09:26:21Z</time>
      </trkpt>
      <trkpt lat="39.722140375524759" lon="3.303639544174075">
        <ele>376.49000000000001</ele>
        <time>2014-09-06T09:26:22Z</time>
      </trkpt>
      <trkpt lat="39.722126461565495" lon="3.303641555830836">
        <ele>376.49000000000001</ele>
        <time>2014-09-06T09:26:23Z</time>
      </trkpt>
      <trkpt lat="39.722114391624928" lon="3.303641555830836">
        <ele>376.49000000000001</ele>
        <time>2014-09-06T09:26:24Z</time>
      </trkpt>
      <trkpt lat="39.7220294829458" lon="3.303624205291271">
        <ele>376.49000000000001</ele>
        <time>2014-09-06T09:26:31Z</time>
      </trkpt>
      <trkpt lat="39.722002074122429" lon="3.303604507818818">
        <ele>376.49000000000001</ele>
        <time>2014-09-06T09:26:36Z</time>
      </trkpt>
      <trkpt lat="39.721994614228606" lon="3.303601825609803">
        <ele>376.49000000000001</ele>
        <time>2014-09-06T09:26:37Z</time>
      </trkpt>
      <trkpt lat="39.721983969211578" lon="3.30359973013401">
        <ele>376.97000000000003</ele>
        <time>2014-09-06T09:26:38Z</time>
      </trkpt>
      <trkpt lat="39.721888666972518" lon="3.303597718477249">
        <ele>377.44999999999999</ele>
        <time>2014-09-06T09:26:47Z</time>
      </trkpt>
      <trkpt lat="39.721869891509414" lon="3.303580032661557">
        <ele>377.44999999999999</ele>
        <time>2014-09-06T09:26:50Z</time>
      </trkpt>
      <trkpt lat="39.721813900396228" lon="3.303569052368403">
        <ele>378.42000000000002</ele>
        <time>2014-09-06T09:26:57Z</time>
      </trkpt>
      <trkpt lat="39.721747012808919" lon="3.303552120923996">
        <ele>377.94</ele>
        <time>2014-09-06T09:27:03Z</time>
      </trkpt>
      <trkpt lat="39.721706779673696" lon="3.303526556119323">
        <ele>377.94</ele>
        <time>2014-09-06T09:27:06Z</time>
      </trkpt>
      <trkpt lat="39.721642574295402" lon="3.303523706272245">
        <ele>376.49000000000001</ele>
        <time>2014-09-06T09:27:11Z</time>
      </trkpt>
      <trkpt lat="39.721595970913768" lon="3.303515911102295">
        <ele>379.86000000000001</ele>
        <time>2014-09-06T09:27:15Z</time>
      </trkpt>
      <trkpt lat="39.72151156514883" lon="3.303490597754717">
        <ele>378.89999999999998</ele>
        <time>2014-09-06T09:27:25Z</time>
      </trkpt>
      <trkpt lat="39.721361696720123" lon="3.303460255265236">
        <ele>378.89999999999998</ele>
        <time>2014-09-06T09:27:35Z</time>
      </trkpt>
      <trkpt lat="39.721298329532146" lon="3.303451538085938">
        <ele>380.33999999999997</ele>
        <time>2014-09-06T09:27:41Z</time>
      </trkpt>
      <trkpt lat="39.721163548529148" lon="3.303447682410479">
        <ele>381.77999999999997</ele>
        <time>2014-09-06T09:27:53Z</time>
      </trkpt>
      <trkpt lat="39.721132535487413" lon="3.303418178111315">
        <ele>382.25999999999999</ele>
        <time>2014-09-06T09:27:59Z</time>
      </trkpt>
      <trkpt lat="39.721076963469386" lon="3.303392194211483">
        <ele>382.25999999999999</ele>
        <time>2014-09-06T09:28:04Z</time>
      </trkpt>
      <trkpt lat="39.721038825809956" lon="3.303372748196125">
        <ele>383.22000000000003</ele>
        <time>2014-09-06T09:28:08Z</time>
      </trkpt>
      <trkpt lat="39.721012338995934" lon="3.303357493132353">
        <ele>384.66000000000003</ele>
        <time>2014-09-06T09:28:10Z</time>
      </trkpt>
      <trkpt lat="39.720985684543848" lon="3.303345926105976">
        <ele>385.14999999999998</ele>
        <time>2014-09-06T09:28:17Z</time>
      </trkpt>
      <trkpt lat="39.720886945724487" lon="3.303302507847548">
        <ele>387.55000000000001</ele>
        <time>2014-09-06T09:28:28Z</time>
      </trkpt>
      <trkpt lat="39.720838498324156" lon="3.303279289975762">
        <ele>388.50999999999999</ele>
        <time>2014-09-06T09:28:35Z</time>
      </trkpt>
      <trkpt lat="39.720828356221318" lon="3.303264454007149">
        <ele>389.94999999999999</ele>
        <time>2014-09-06T09:28:37Z</time>
      </trkpt>
      <trkpt lat="39.720802707597613" lon="3.303213240578771">
        <ele>389.94999999999999</ele>
        <time>2014-09-06T09:28:42Z</time>
      </trkpt>
      <trkpt lat="39.720788626000285" lon="3.303181221708655">
        <ele>390.91000000000003</ele>
        <time>2014-09-06T09:28:46Z</time>
      </trkpt>
      <trkpt lat="39.720763647928834" lon="3.303099330514669">
        <ele>391.87</ele>
        <time>2014-09-06T09:28:54Z</time>
      </trkpt>
      <trkpt lat="39.720703549683094" lon="3.30299723893404">
        <ele>393.31999999999999</ele>
        <time>2014-09-06T09:29:06Z</time>
      </trkpt>
      <trkpt lat="39.720686366781592" lon="3.302972093224526">
        <ele>394.75999999999999</ele>
        <time>2014-09-06T09:29:10Z</time>
      </trkpt>
      <trkpt lat="39.72067940980196" lon="3.302923478186131">
        <ele>395.72000000000003</ele>
        <time>2014-09-06T09:29:17Z</time>
      </trkpt>
      <trkpt lat="39.720680080354214" lon="3.302867654711008">
        <ele>396.19999999999999</ele>
        <time>2014-09-06T09:29:21Z</time>
      </trkpt>
      <trkpt lat="39.720688378438354" lon="3.302821386605501">
        <ele>397.63999999999999</ele>
        <time>2014-09-06T09:29:26Z</time>
      </trkpt>
      <trkpt lat="39.720684522762895" lon="3.302765060216188">
        <ele>397.63999999999999</ele>
        <time>2014-09-06T09:29:30Z</time>
      </trkpt>
      <trkpt lat="39.720659544691443" lon="3.302607899531722">
        <ele>399.07999999999998</ele>
        <time>2014-09-06T09:29:42Z</time>
      </trkpt>
      <trkpt lat="39.720639009028673" lon="3.302523661404848">
        <ele>399.56999999999999</ele>
        <time>2014-09-06T09:29:48Z</time>
      </trkpt>
      <trkpt lat="39.720625262707472" lon="3.30243431031704">
        <ele>400.52999999999997</ele>
        <time>2014-09-06T09:29:53Z</time>
      </trkpt>
      <trkpt lat="39.720584275200963" lon="3.302357448264957">
        <ele>399.56999999999999</ele>
        <time>2014-09-06T09:30:00Z</time>
      </trkpt>
      <trkpt lat="39.72054747864604" lon="3.30231511965394">
        <ele>400.52999999999997</ele>
        <time>2014-09-06T09:30:04Z</time>
      </trkpt>
      <trkpt lat="39.720525601878762" lon="3.302308581769466">
        <ele>400.05000000000001</ele>
        <time>2014-09-06T09:30:07Z</time>
      </trkpt>
      <trkpt lat="39.720443040132523" lon="3.302210262045264">
        <ele>401.00999999999999</ele>
        <time>2014-09-06T09:30:16Z</time>
      </trkpt>
      <trkpt lat="39.720438681542873" lon="3.302206490188837">
        <ele>401.00999999999999</ele>
        <time>2014-09-06T09:30:17Z</time>
      </trkpt>
      <trkpt lat="39.720429377630353" lon="3.302194587886334">
        <ele>402.93000000000001</ele>
        <time>2014-09-06T09:30:19Z</time>
      </trkpt>
      <trkpt lat="39.7204131167382" lon="3.302173130214214">
        <ele>402.44999999999999</ele>
        <time>2014-09-06T09:30:21Z</time>
      </trkpt>
      <trkpt lat="39.72040087915957" lon="3.302150079980493">
        <ele>402.93000000000001</ele>
        <time>2014-09-06T09:30:23Z</time>
      </trkpt>
      <trkpt lat="39.720329130068421" lon="3.30208838917315">
        <ele>404.37</ele>
        <time>2014-09-06T09:30:33Z</time>
      </trkpt>
      <trkpt lat="39.720292333513498" lon="3.302045641466975">
        <ele>403.88999999999999</ele>
        <time>2014-09-06T09:30:37Z</time>
      </trkpt>
      <trkpt lat="39.72025285474956" lon="3.301997110247612">
        <ele>404.37</ele>
        <time>2014-09-06T09:30:42Z</time>
      </trkpt>
      <trkpt lat="39.72019468434155" lon="3.301958134397864">
        <ele>404.85000000000002</ele>
        <time>2014-09-06T09:30:48Z</time>
      </trkpt>
      <trkpt lat="39.720087898895144" lon="3.301899041980505">
        <ele>406.76999999999998</ele>
        <time>2014-09-06T09:30:59Z</time>
      </trkpt>
      <trkpt lat="39.720074320212007" lon="3.30188169144094">
        <ele>408.22000000000003</ele>
        <time>2014-09-06T09:31:01Z</time>
      </trkpt>
      <trkpt lat="39.720069877803326" lon="3.301784377545118">
        <ele>408.69999999999999</ele>
        <time>2014-09-06T09:31:10Z</time>
      </trkpt>
      <trkpt lat="39.720045402646065" lon="3.301679436117411">
        <ele>410.13999999999999</ele>
        <time>2014-09-06T09:31:20Z</time>
      </trkpt>
      <trkpt lat="39.720043810084462" lon="3.301650267094374">
        <ele>410.62</ele>
        <time>2014-09-06T09:31:23Z</time>
      </trkpt>
      <trkpt lat="39.72002855502069" lon="3.301611877977848">
        <ele>411.57999999999998</ele>
        <time>2014-09-06T09:31:28Z</time>
      </trkpt>
      <trkpt lat="39.720018580555916" lon="3.301559323444963">
        <ele>413.01999999999998</ele>
        <time>2014-09-06T09:31:35Z</time>
      </trkpt>
      <trkpt lat="39.720032578334212" lon="3.301501236855984">
        <ele>414.47000000000003</ele>
        <time>2014-09-06T09:31:40Z</time>
      </trkpt>
      <trkpt lat="39.720020340755582" lon="3.301450777798891">
        <ele>414.94999999999999</ele>
        <time>2014-09-06T09:31:44Z</time>
      </trkpt>
      <trkpt lat="39.71997432410717" lon="3.301377855241299">
        <ele>416.38999999999999</ele>
        <time>2014-09-06T09:31:52Z</time>
      </trkpt>
      <trkpt lat="39.719909531995654" lon="3.301323289051652">
        <ele>418.31</ele>
        <time>2014-09-06T09:32:01Z</time>
      </trkpt>
      <trkpt lat="39.719916572794318" lon="3.301252713426948">
        <ele>419.75</ele>
        <time>2014-09-06T09:32:07Z</time>
      </trkpt>
      <trkpt lat="39.719929732382298" lon="3.301228825002909">
        <ele>420.70999999999998</ele>
        <time>2014-09-06T09:32:10Z</time>
      </trkpt>
      <trkpt lat="39.719947753474116" lon="3.301214408129454">
        <ele>421.19</ele>
        <time>2014-09-06T09:32:13Z</time>
      </trkpt>
      <trkpt lat="39.720018580555916" lon="3.301108879968524">
        <ele>420.70999999999998</ele>
        <time>2014-09-06T09:32:23Z</time>
      </trkpt>
      <trkpt lat="39.720035847276449" lon="3.301069485023618">
        <ele>421.68000000000001</ele>
        <time>2014-09-06T09:32:37Z</time>
      </trkpt>
      <trkpt lat="39.720042468979955" lon="3.301025982946158">
        <ele>421.68000000000001</ele>
        <time>2014-09-06T09:32:51Z</time>
      </trkpt>
      <trkpt lat="39.720061579719186" lon="3.300936548039317">
        <ele>423.12</ele>
        <time>2014-09-06T09:33:00Z</time>
      </trkpt>
      <trkpt lat="39.720060909166932" lon="3.300919448956847">
        <ele>424.07999999999998</ele>
        <time>2014-09-06T09:33:02Z</time>
      </trkpt>
      <trkpt lat="39.720072476193309" lon="3.300864715129137">
        <ele>420.23000000000002</ele>
        <time>2014-09-06T09:33:08Z</time>
      </trkpt>
      <trkpt lat="39.720076415687799" lon="3.300852561369538">
        <ele>425.04000000000002</ele>
        <time>2014-09-06T09:33:09Z</time>
      </trkpt>
      <trkpt lat="39.720083456486464" lon="3.300778884440661">
        <ele>426</ele>
        <time>2014-09-06T09:33:20Z</time>
      </trkpt>
      <trkpt lat="39.720090497285128" lon="3.300750888884068">
        <ele>426.95999999999998</ele>
        <time>2014-09-06T09:33:23Z</time>
      </trkpt>
      <trkpt lat="39.720086054876447" lon="3.300676122307777">
        <ele>428.39999999999998</ele>
        <time>2014-09-06T09:33:33Z</time>
      </trkpt>
      <trkpt lat="39.720086473971605" lon="3.30062105320394">
        <ele>429.85000000000002</ele>
        <time>2014-09-06T09:33:42Z</time>
      </trkpt>
      <trkpt lat="39.720107931643724" lon="3.300551231950522">
        <ele>431.76999999999998</ele>
        <time>2014-09-06T09:33:49Z</time>
      </trkpt>
      <trkpt lat="39.720128970220685" lon="3.300503538921475">
        <ele>431.29000000000002</ele>
        <time>2014-09-06T09:33:54Z</time>
      </trkpt>
      <trkpt lat="39.72013215534389" lon="3.300463054329157">
        <ele>432.25</ele>
        <time>2014-09-06T09:33:56Z</time>
      </trkpt>
      <trkpt lat="39.720192672684789" lon="3.300340175628662">
        <ele>432.73000000000002</ele>
        <time>2014-09-06T09:34:04Z</time>
      </trkpt>
      <trkpt lat="39.72019711509347" lon="3.300328189507127">
        <ele>432.25</ele>
        <time>2014-09-06T09:34:06Z</time>
      </trkpt>
      <trkpt lat="39.720211448147893" lon="3.30029709264636">
        <ele>432.73000000000002</ele>
        <time>2014-09-06T09:34:10Z</time>
      </trkpt>
      <trkpt lat="39.720268277451396" lon="3.300234898924828">
        <ele>434.64999999999998</ele>
        <time>2014-09-06T09:34:17Z</time>
      </trkpt>
      <trkpt lat="39.720284203067422" lon="3.300211429595947">
        <ele>435.13</ele>
        <time>2014-09-06T09:34:19Z</time>
      </trkpt>
      <trkpt lat="39.720298368483782" lon="3.300177650526166">
        <ele>435.61000000000001</ele>
        <time>2014-09-06T09:34:22Z</time>
      </trkpt>
      <trkpt lat="39.720299877226353" lon="3.300139093771577">
        <ele>436.10000000000002</ele>
        <time>2014-09-06T09:34:25Z</time>
      </trkpt>
      <trkpt lat="39.720315216109157" lon="3.300127862021327">
        <ele>436.57999999999998</ele>
        <time>2014-09-06T09:34:29Z</time>
      </trkpt>
      <trkpt lat="39.720337679609656" lon="3.300111768767238">
        <ele>437.54000000000002</ele>
        <time>2014-09-06T09:34:33Z</time>
      </trkpt>
      <trkpt lat="39.720351174473763" lon="3.300080336630344">
        <ele>438.5</ele>
        <time>2014-09-06T09:34:40Z</time>
      </trkpt>
      <trkpt lat="39.720364585518837" lon="3.300072625279427">
        <ele>439.94</ele>
        <time>2014-09-06T09:34:45Z</time>
      </trkpt>
      <trkpt lat="39.72036668099463" lon="3.300028536468744">
        <ele>440.42000000000002</ele>
        <time>2014-09-06T09:34:49Z</time>
      </trkpt>
      <trkpt lat="39.720395347103477" lon="3.299996014684439">
        <ele>441.38</ele>
        <time>2014-09-06T09:34:52Z</time>
      </trkpt>
      <trkpt lat="39.720451338216662" lon="3.299939353018999">
        <ele>442.33999999999997</ele>
        <time>2014-09-06T09:35:00Z</time>
      </trkpt>
      <trkpt lat="39.720488386228681" lon="3.299909345805645">
        <ele>443.31</ele>
        <time>2014-09-06T09:35:05Z</time>
      </trkpt>
      <trkpt lat="39.720502886921167" lon="3.299875734373927">
        <ele>444.26999999999998</ele>
        <time>2014-09-06T09:35:08Z</time>
      </trkpt>
      <trkpt lat="39.720572121441364" lon="3.299803733825684">
        <ele>445.23000000000002</ele>
        <time>2014-09-06T09:35:17Z</time>
      </trkpt>
      <trkpt lat="39.72060170955956" lon="3.299778252840042">
        <ele>445.70999999999998</ele>
        <time>2014-09-06T09:35:22Z</time>
      </trkpt>
      <trkpt lat="39.720617970451713" lon="3.299732068553567">
        <ele>446.67000000000002</ele>
        <time>2014-09-06T09:35:27Z</time>
      </trkpt>
      <trkpt lat="39.720632554963231" lon="3.299692338332534">
        <ele>447.14999999999998</ele>
        <time>2014-09-06T09:35:30Z</time>
      </trkpt>
      <trkpt lat="39.720635740086436" lon="3.299658223986626">
        <ele>448.11000000000001</ele>
        <time>2014-09-06T09:35:33Z</time>
      </trkpt>
      <trkpt lat="39.720714446157217" lon="3.299595946446061">
        <ele>449.06999999999999</ele>
        <time>2014-09-06T09:35:40Z</time>
      </trkpt>
      <trkpt lat="39.720737496390939" lon="3.299535177648068">
        <ele>450.02999999999997</ele>
        <time>2014-09-06T09:35:45Z</time>
      </trkpt>
      <trkpt lat="39.720788123086095" lon="3.299471475183964">
        <ele>451</ele>
        <time>2014-09-06T09:35:52Z</time>
      </trkpt>
      <trkpt lat="39.72081963904202" lon="3.299413472414017">
        <ele>451.95999999999998</ele>
        <time>2014-09-06T09:35:59Z</time>
      </trkpt>
      <trkpt lat="39.720840929076076" lon="3.299333676695824">
        <ele>453.39999999999998</ele>
        <time>2014-09-06T09:36:04Z</time>
      </trkpt>
      <trkpt lat="39.720877390354872" lon="3.299312721937895">
        <ele>452.92000000000002</ele>
        <time>2014-09-06T09:36:08Z</time>
      </trkpt>
      <trkpt lat="39.72088560461998" lon="3.299287324771285">
        <ele>453.39999999999998</ele>
        <time>2014-09-06T09:36:11Z</time>
      </trkpt>
      <trkpt lat="39.720890466123819" lon="3.299250695854425">
        <ele>454.83999999999997</ele>
        <time>2014-09-06T09:36:21Z</time>
      </trkpt>
      <trkpt lat="39.720931453630328" lon="3.299184814095497">
        <ele>455.31999999999999</ele>
        <time>2014-09-06T09:36:29Z</time>
      </trkpt>
      <trkpt lat="39.720979481935501" lon="3.299123710021377">
        <ele>456.75999999999999</ele>
        <time>2014-09-06T09:36:36Z</time>
      </trkpt>
      <trkpt lat="39.721011416986585" lon="3.299068892374635">
        <ele>457.24000000000001</ele>
        <time>2014-09-06T09:36:48Z</time>
      </trkpt>
      <trkpt lat="39.721017116680741" lon="3.299057073891163">
        <ele>457.24000000000001</ele>
        <time>2014-09-06T09:36:49Z</time>
      </trkpt>
      <trkpt lat="39.721017200499773" lon="3.298996975645423">
        <ele>457.24000000000001</ele>
        <time>2014-09-06T09:36:53Z</time>
      </trkpt>
      <trkpt lat="39.721035473048687" lon="3.298924891278148">
        <ele>458.20999999999998</ele>
        <time>2014-09-06T09:37:03Z</time>
      </trkpt>
      <trkpt lat="39.721053577959538" lon="3.298895303159952">
        <ele>458.20999999999998</ele>
        <time>2014-09-06T09:37:06Z</time>
      </trkpt>
      <trkpt lat="39.721069503575563" lon="3.298835707828403">
        <ele>457.24000000000001</ele>
        <time>2014-09-06T09:37:11Z</time>
      </trkpt>
      <trkpt lat="39.72114753909409" lon="3.298712661489844">
        <ele>457.72000000000003</ele>
        <time>2014-09-06T09:37:21Z</time>
      </trkpt>
      <trkpt lat="39.72118316218257" lon="3.298660023137927">
        <ele>456.75999999999999</ele>
        <time>2014-09-06T09:37:28Z</time>
      </trkpt>
      <trkpt lat="39.72125600092113" lon="3.298551812767983">
        <ele>457.24000000000001</ele>
        <time>2014-09-06T09:37:38Z</time>
      </trkpt>
      <trkpt lat="39.721277374774218" lon="3.298486266285181">
        <ele>457.72000000000003</ele>
        <time>2014-09-06T09:37:43Z</time>
      </trkpt>
      <trkpt lat="39.721313836053014" lon="3.298382079228759">
        <ele>458.69</ele>
        <time>2014-09-06T09:37:49Z</time>
      </trkpt>
      <trkpt lat="39.72131660208106" lon="3.298338744789362">
        <ele>458.20999999999998</ele>
        <time>2014-09-06T09:37:54Z</time>
      </trkpt>
      <trkpt lat="39.72134149633348" lon="3.29826146364212">
        <ele>457.72000000000003</ele>
        <time>2014-09-06T09:37:59Z</time>
      </trkpt>
      <trkpt lat="39.721341077238321" lon="3.2982262596488">
        <ele>458.69</ele>
        <time>2014-09-06T09:38:01Z</time>
      </trkpt>
      <trkpt lat="39.721352811902761" lon="3.29819206148386">
        <ele>458.20999999999998</ele>
        <time>2014-09-06T09:38:04Z</time>
      </trkpt>
      <trkpt lat="39.721381813287735" lon="3.298112265765667">
        <ele>458.69</ele>
        <time>2014-09-06T09:38:09Z</time>
      </trkpt>
      <trkpt lat="39.721403187140822" lon="3.298076307401061">
        <ele>459.17000000000002</ele>
        <time>2014-09-06T09:38:13Z</time>
      </trkpt>
      <trkpt lat="39.721458256244659" lon="3.298005145043135">
        <ele>459.17000000000002</ele>
        <time>2014-09-06T09:38:20Z</time>
      </trkpt>
      <trkpt lat="39.721497735008597" lon="3.297905065119267">
        <ele>459.17000000000002</ele>
        <time>2014-09-06T09:38:29Z</time>
      </trkpt>
      <trkpt lat="39.721529418602586" lon="3.297795848920941">
        <ele>459.64999999999998</ele>
        <time>2014-09-06T09:38:38Z</time>
      </trkpt>
      <trkpt lat="39.721562778577209" lon="3.29761354252696">
        <ele>460.13</ele>
        <time>2014-09-06T09:38:48Z</time>
      </trkpt>
      <trkpt lat="39.721580967307091" lon="3.297524191439152">
        <ele>460.13</ele>
        <time>2014-09-06T09:38:54Z</time>
      </trkpt>
      <trkpt lat="39.721567640081048" lon="3.297494268044829">
        <ele>460.61000000000001</ele>
        <time>2014-09-06T09:38:58Z</time>
      </trkpt>
      <trkpt lat="39.721568897366524" lon="3.297432409599423">
        <ele>460.61000000000001</ele>
        <time>2014-09-06T09:39:03Z</time>
      </trkpt>
      <trkpt lat="39.72157459706068" lon="3.297405000776053">
        <ele>461.08999999999997</ele>
        <time>2014-09-06T09:39:05Z</time>
      </trkpt>
      <trkpt lat="39.721578788012266" lon="3.297381196171045">
        <ele>461.08999999999997</ele>
        <time>2014-09-06T09:39:07Z</time>
      </trkpt>
      <trkpt lat="39.721585409715772" lon="3.297321684658527">
        <ele>461.08999999999997</ele>
        <time>2014-09-06T09:39:12Z</time>
      </trkpt>
      <trkpt lat="39.721601251512766" lon="3.297250689938664">
        <ele>463.00999999999999</ele>
        <time>2014-09-06T09:39:23Z</time>
      </trkpt>
      <trkpt lat="39.721595216542482" lon="3.297253707423806">
        <ele>462.52999999999997</ele>
        <time>2014-09-06T09:39:24Z</time>
      </trkpt>
      <trkpt lat="39.72155649214983" lon="3.297257730737329">
        <ele>463.00999999999999</ele>
        <time>2014-09-06T09:39:28Z</time>
      </trkpt>
      <trkpt lat="39.721538303419948" lon="3.297236189246178">
        <ele>463.00999999999999</ele>
        <time>2014-09-06T09:39:31Z</time>
      </trkpt>
      <trkpt lat="39.721522042527795" lon="3.2971849758178">
        <ele>465.42000000000002</ele>
        <time>2014-09-06T09:39:36Z</time>
      </trkpt>
      <trkpt lat="39.721458340063691" lon="3.297075089067221">
        <ele>466.86000000000001</ele>
        <time>2014-09-06T09:39:48Z</time>
      </trkpt>
      <trkpt lat="39.721434116363525" lon="3.2969656214118">
        <ele>467.33999999999997</ele>
        <time>2014-09-06T09:40:02Z</time>
      </trkpt>
      <trkpt lat="39.721409054473042" lon="3.296947181224823">
        <ele>471.18000000000001</ele>
        <time>2014-09-06T09:40:15Z</time>
      </trkpt>
      <trkpt lat="39.721396062523127" lon="3.296945169568062">
        <ele>470.22000000000003</ele>
        <time>2014-09-06T09:40:18Z</time>
      </trkpt>
      <trkpt lat="39.721361696720123" lon="3.29694458283484">
        <ele>472.13999999999999</ele>
        <time>2014-09-06T09:40:24Z</time>
      </trkpt>
      <trkpt lat="39.721358176320791" lon="3.296906864270568">
        <ele>474.55000000000001</ele>
        <time>2014-09-06T09:40:35Z</time>
      </trkpt>
      <trkpt lat="39.721332024782896" lon="3.296915078535676">
        <ele>475.99000000000001</ele>
        <time>2014-09-06T09:40:39Z</time>
      </trkpt>
      <trkpt lat="39.721314841881394" lon="3.296965537592769">
        <ele>477.91000000000003</ele>
        <time>2014-09-06T09:40:45Z</time>
      </trkpt>
      <trkpt lat="39.721318613737822" lon="3.296979032456875">
        <ele>478.87</ele>
        <time>2014-09-06T09:40:54Z</time>
      </trkpt>
      <trkpt lat="39.721314674243331" lon="3.296975512057543">
        <ele>478.87</ele>
        <time>2014-09-06T09:40:55Z</time>
      </trkpt>
      <trkpt lat="39.72131073474884" lon="3.29697685316205">
        <ele>478.38999999999999</ele>
        <time>2014-09-06T09:41:06Z</time>
      </trkpt>
      <trkpt lat="39.721308136358857" lon="3.296974673867226">
        <ele>478.38999999999999</ele>
        <time>2014-09-06T09:41:23Z</time>
      </trkpt>
      <trkpt lat="39.721348118036985" lon="3.297047261148691">
        <ele>478.87</ele>
        <time>2014-09-06T09:41:36Z</time>
      </trkpt>
      <trkpt lat="39.721363289281726" lon="3.297077603638172">
        <ele>478.38999999999999</ele>
        <time>2014-09-06T09:41:43Z</time>
      </trkpt>
      <trkpt lat="39.721384411677718" lon="3.297095540910959">
        <ele>477.91000000000003</ele>
        <time>2014-09-06T09:41:52Z</time>
      </trkpt>
      <trkpt lat="39.721383238211274" lon="3.297078106552362">
        <ele>477.43000000000001</ele>
        <time>2014-09-06T09:42:04Z</time>
      </trkpt>
      <trkpt lat="39.721382819116116" lon="3.297078609466553">
        <ele>477.91000000000003</ele>
        <time>2014-09-06T09:42:24Z</time>
      </trkpt>
      <trkpt lat="39.721383154392242" lon="3.297079112380743">
        <ele>477.43000000000001</ele>
        <time>2014-09-06T09:42:52Z</time>
      </trkpt>
      <trkpt lat="39.721383154392242" lon="3.297079112380743">
        <ele>476.94999999999999</ele>
        <time>2014-09-06T09:43:23Z</time>
      </trkpt>
      <trkpt lat="39.721378209069371" lon="3.297078106552362">
        <ele>478.38999999999999</ele>
        <time>2014-09-06T09:43:52Z</time>
      </trkpt>
      <trkpt lat="39.721375778317451" lon="3.297089925035834">
        <ele>482.24000000000001</ele>
        <time>2014-09-06T09:43:56Z</time>
      </trkpt>
      <trkpt lat="39.721375778317451" lon="3.297089925035834">
        <ele>476.47000000000003</ele>
        <time>2014-09-06T09:44:03Z</time>
      </trkpt>
      <trkpt lat="39.721375778317451" lon="3.297089925035834">
        <ele>481.27999999999997</ele>
        <time>2014-09-06T09:44:04Z</time>
      </trkpt>
      <trkpt lat="39.721341663971543" lon="3.297093361616135">
        <ele>479.83999999999997</ele>
        <time>2014-09-06T09:44:22Z</time>
      </trkpt>
      <trkpt lat="39.721370246261358" lon="3.297101827338338">
        <ele>480.31999999999999</ele>
        <time>2014-09-06T09:44:37Z</time>
      </trkpt>
      <trkpt lat="39.721370246261358" lon="3.297101827338338">
        <ele>478.87</ele>
        <time>2014-09-06T09:45:07Z</time>
      </trkpt>
      <trkpt lat="39.721375359222293" lon="3.297095624729991">
        <ele>479.35000000000002</ele>
        <time>2014-09-06T09:45:36Z</time>
      </trkpt>
      <trkpt lat="39.721375359222293" lon="3.297095624729991">
        <ele>479.83999999999997</ele>
        <time>2014-09-06T09:45:59Z</time>
      </trkpt>
      <trkpt lat="39.721371838822961" lon="3.297027060762048">
        <ele>478.87</ele>
        <time>2014-09-06T09:46:18Z</time>
      </trkpt>
      <trkpt lat="39.721305035054684" lon="3.296977775171399">
        <ele>479.35000000000002</ele>
        <time>2014-09-06T09:46:29Z</time>
      </trkpt>
      <trkpt lat="39.721307884901762" lon="3.296978361904621">
        <ele>478.38999999999999</ele>
        <time>2014-09-06T09:46:33Z</time>
      </trkpt>
      <trkpt lat="39.721303526312113" lon="3.296914491802454">
        <ele>477.91000000000003</ele>
        <time>2014-09-06T09:46:44Z</time>
      </trkpt>
      <trkpt lat="39.721332527697086" lon="3.296935698017478">
        <ele>476.94999999999999</ele>
        <time>2014-09-06T09:46:52Z</time>
      </trkpt>
      <trkpt lat="39.721385920420289" lon="3.296945756301284">
        <ele>474.55000000000001</ele>
        <time>2014-09-06T09:47:05Z</time>
      </trkpt>
      <trkpt lat="39.721385920420289" lon="3.29693041741848">
        <ele>474.55000000000001</ele>
        <time>2014-09-06T09:47:07Z</time>
      </trkpt>
      <trkpt lat="39.721383824944496" lon="3.296906026080251">
        <ele>474.06999999999999</ele>
        <time>2014-09-06T09:47:18Z</time>
      </trkpt>
      <trkpt lat="39.721395978704095" lon="3.296893872320652">
        <ele>474.06999999999999</ele>
        <time>2014-09-06T09:47:20Z</time>
      </trkpt>
      <trkpt lat="39.721414502710104" lon="3.29694751650095">
        <ele>472.63</ele>
        <time>2014-09-06T09:47:31Z</time>
      </trkpt>
      <trkpt lat="39.721414502710104" lon="3.29694751650095">
        <ele>473.11000000000001</ele>
        <time>2014-09-06T09:48:00Z</time>
      </trkpt>
      <trkpt lat="39.72144166007638" lon="3.296952126547694">
        <ele>471.66000000000003</ele>
        <time>2014-09-06T09:48:06Z</time>
      </trkpt>
      <trkpt lat="39.721443923190236" lon="3.296963442116976">
        <ele>473.11000000000001</ele>
        <time>2014-09-06T09:48:08Z</time>
      </trkpt>
      <trkpt lat="39.721437972038984" lon="3.296957658603787">
        <ele>471.18000000000001</ele>
        <time>2014-09-06T09:48:19Z</time>
      </trkpt>
      <trkpt lat="39.72144266590476" lon="3.296998394653201">
        <ele>470.69999999999999</ele>
        <time>2014-09-06T09:48:31Z</time>
      </trkpt>
      <trkpt lat="39.721436882391572" lon="3.297002837061882">
        <ele>470.22000000000003</ele>
        <time>2014-09-06T09:48:43Z</time>
      </trkpt>
      <trkpt lat="39.721436882391572" lon="3.297002837061882">
        <ele>470.69999999999999</ele>
        <time>2014-09-06T09:49:09Z</time>
      </trkpt>
      <trkpt lat="39.72145339474082" lon="3.296984983608127">
        <ele>470.69999999999999</ele>
        <time>2014-09-06T09:49:24Z</time>
      </trkpt>
      <trkpt lat="39.721483401954174" lon="3.296957239508629">
        <ele>470.69999999999999</ele>
        <time>2014-09-06T09:49:40Z</time>
      </trkpt>
      <trkpt lat="39.721565544605255" lon="3.29688498750329">
        <ele>469.74000000000001</ele>
        <time>2014-09-06T09:49:50Z</time>
      </trkpt>
      <trkpt lat="39.721606364473701" lon="3.296877443790436">
        <ele>468.77999999999997</ele>
        <time>2014-09-06T09:49:54Z</time>
      </trkpt>
      <trkpt lat="39.721627486869693" lon="3.296842575073242">
        <ele>467.81999999999999</ele>
        <time>2014-09-06T09:49:57Z</time>
      </trkpt>
      <trkpt lat="39.721645256504416" lon="3.29683218151331">
        <ele>466.86000000000001</ele>
        <time>2014-09-06T09:49:59Z</time>
      </trkpt>
      <trkpt lat="39.721677275374532" lon="3.296768395230174">
        <ele>467.81999999999999</ele>
        <time>2014-09-06T09:50:05Z</time>
      </trkpt>
      <trkpt lat="39.72173485904932" lon="3.296683738008142">
        <ele>470.69999999999999</ele>
        <time>2014-09-06T09:50:13Z</time>
      </trkpt>
      <trkpt lat="39.721775092184544" lon="3.296559015288949">
        <ele>470.22000000000003</ele>
        <time>2014-09-06T09:50:23Z</time>
      </trkpt>
      <trkpt lat="39.721802081912756" lon="3.296417612582445">
        <ele>470.69999999999999</ele>
        <time>2014-09-06T09:50:33Z</time>
      </trkpt>
      <trkpt lat="39.721807613968849" lon="3.296327842399478">
        <ele>471.66000000000003</ele>
        <time>2014-09-06T09:50:44Z</time>
      </trkpt>
      <trkpt lat="39.721805937588215" lon="3.296276964247227">
        <ele>471.18000000000001</ele>
        <time>2014-09-06T09:50:48Z</time>
      </trkpt>
      <trkpt lat="39.721803339198232" lon="3.296233210712671">
        <ele>472.13999999999999</ele>
        <time>2014-09-06T09:50:51Z</time>
      </trkpt>
      <trkpt lat="39.721762603148818" lon="3.296149307861924">
        <ele>471.18000000000001</ele>
        <time>2014-09-06T09:50:58Z</time>
      </trkpt>
      <trkpt lat="39.721719352528453" lon="3.296088287606835">
        <ele>471.66000000000003</ele>
        <time>2014-09-06T09:51:05Z</time>
      </trkpt>
      <trkpt lat="39.721660427749157" lon="3.296044366434217">
        <ele>470.69999999999999</ele>
        <time>2014-09-06T09:51:13Z</time>
      </trkpt>
      <trkpt lat="39.721617931500077" lon="3.295976892113686">
        <ele>469.74000000000001</ele>
        <time>2014-09-06T09:51:21Z</time>
      </trkpt>
      <trkpt lat="39.72155649214983" lon="3.295935820788145">
        <ele>469.25999999999999</ele>
        <time>2014-09-06T09:51:25Z</time>
      </trkpt>
      <trkpt lat="39.721464375033975" lon="3.295888546854258">
        <ele>468.77999999999997</ele>
        <time>2014-09-06T09:51:33Z</time>
      </trkpt>
      <trkpt lat="39.721389021724463" lon="3.295864323154092">
        <ele>467.33999999999997</ele>
        <time>2014-09-06T09:51:39Z</time>
      </trkpt>
      <trkpt lat="39.721286427229643" lon="3.295812858268619">
        <ele>466.86000000000001</ele>
        <time>2014-09-06T09:51:48Z</time>
      </trkpt>
      <trkpt lat="39.721249211579561" lon="3.295798525214195">
        <ele>466.38</ele>
        <time>2014-09-06T09:51:54Z</time>
      </trkpt>
      <trkpt lat="39.721169415861368" lon="3.295788634568453">
        <ele>466.38</ele>
        <time>2014-09-06T09:52:02Z</time>
      </trkpt>
      <trkpt lat="39.721077885478735" lon="3.295753598213196">
        <ele>466.86000000000001</ele>
        <time>2014-09-06T09:52:10Z</time>
      </trkpt>
      <trkpt lat="39.721003118902445" lon="3.295728703960776">
        <ele>465.42000000000002</ele>
        <time>2014-09-06T09:52:17Z</time>
      </trkpt>
      <trkpt lat="39.720927095040679" lon="3.295686542987824">
        <ele>464.44999999999999</ele>
        <time>2014-09-06T09:52:23Z</time>
      </trkpt>
      <trkpt lat="39.720834055915475" lon="3.29566047526896">
        <ele>463.49000000000001</ele>
        <time>2014-09-06T09:52:31Z</time>
      </trkpt>
      <trkpt lat="39.720757780596614" lon="3.29563407227397">
        <ele>463.00999999999999</ele>
        <time>2014-09-06T09:52:38Z</time>
      </trkpt>
      <trkpt lat="39.720707572996616" lon="3.295655949041247">
        <ele>462.52999999999997</ele>
        <time>2014-09-06T09:52:41Z</time>
      </trkpt>
      <trkpt lat="39.72057580947876" lon="3.295664079487324">
        <ele>460.61000000000001</ele>
        <time>2014-09-06T09:52:52Z</time>
      </trkpt>
      <trkpt lat="39.720607409253716" lon="3.295630300417543">
        <ele>462.52999999999997</ele>
        <time>2014-09-06T09:52:58Z</time>
      </trkpt>
      <trkpt lat="39.720598356798291" lon="3.295597610995174">
        <ele>461.56999999999999</ele>
        <time>2014-09-06T09:53:12Z</time>
      </trkpt>
      <trkpt lat="39.720598356798291" lon="3.295597610995174">
        <ele>461.56999999999999</ele>
        <time>2014-09-06T09:53:15Z</time>
      </trkpt>
      <trkpt lat="39.7205875441432" lon="3.295608339831233">
        <ele>459.64999999999998</ele>
        <time>2014-09-06T09:53:17Z</time>
      </trkpt>
      <trkpt lat="39.720554938539863" lon="3.295615464448929">
        <ele>462.52999999999997</ele>
        <time>2014-09-06T09:53:20Z</time>
      </trkpt>
      <trkpt lat="39.720547730103135" lon="3.295612446963787">
        <ele>460.13</ele>
        <time>2014-09-06T09:53:21Z</time>
      </trkpt>
      <trkpt lat="39.720523925498128" lon="3.295600293204188">
        <ele>463.00999999999999</ele>
        <time>2014-09-06T09:53:24Z</time>
      </trkpt>
      <trkpt lat="39.72050154581666" lon="3.295590737834573">
        <ele>461.08999999999997</ele>
        <time>2014-09-06T09:53:26Z</time>
      </trkpt>
      <trkpt lat="39.720455361530185" lon="3.29556567594409">
        <ele>459.64999999999998</ele>
        <time>2014-09-06T09:53:32Z</time>
      </trkpt>
      <trkpt lat="39.720431808382273" lon="3.295545307919383">
        <ele>459.17000000000002</ele>
        <time>2014-09-06T09:53:37Z</time>
      </trkpt>
      <trkpt lat="39.720425605773926" lon="3.295525191351771">
        <ele>459.17000000000002</ele>
        <time>2014-09-06T09:53:40Z</time>
      </trkpt>
      <trkpt lat="39.720367100089788" lon="3.295487053692341">
        <ele>457.72000000000003</ele>
        <time>2014-09-06T09:53:48Z</time>
      </trkpt>
      <trkpt lat="39.720344049856067" lon="3.295455034822226">
        <ele>457.24000000000001</ele>
        <time>2014-09-06T09:53:51Z</time>
      </trkpt>
      <trkpt lat="39.72028998658061" lon="3.295439695939422">
        <ele>455.31999999999999</ele>
        <time>2014-09-06T09:53:58Z</time>
      </trkpt>
      <trkpt lat="39.72026165574789" lon="3.295387979596853">
        <ele>454.36000000000001</ele>
        <time>2014-09-06T09:54:04Z</time>
      </trkpt>
      <trkpt lat="39.720238437876105" lon="3.295287899672985">
        <ele>453.88</ele>
        <time>2014-09-06T09:54:11Z</time>
      </trkpt>
      <trkpt lat="39.720183704048395" lon="3.295244565233588">
        <ele>453.39999999999998</ele>
        <time>2014-09-06T09:54:16Z</time>
      </trkpt>
      <trkpt lat="39.720153026282787" lon="3.29518748447299">
        <ele>452.92000000000002</ele>
        <time>2014-09-06T09:54:21Z</time>
      </trkpt>
      <trkpt lat="39.720108602195978" lon="3.295129733160138">
        <ele>451</ele>
        <time>2014-09-06T09:54:31Z</time>
      </trkpt>
      <trkpt lat="39.720104159787297" lon="3.295125206932426">
        <ele>450.02999999999997</ele>
        <time>2014-09-06T09:54:33Z</time>
      </trkpt>
      <trkpt lat="39.719970300793648" lon="3.295109951868653">
        <ele>448.11000000000001</ele>
        <time>2014-09-06T09:54:42Z</time>
      </trkpt>
      <trkpt lat="39.719965439289808" lon="3.295101737603545">
        <ele>448.11000000000001</ele>
        <time>2014-09-06T09:54:45Z</time>
      </trkpt>
      <trkpt lat="39.71992545761168" lon="3.295098301023245">
        <ele>446.67000000000002</ele>
        <time>2014-09-06T09:54:51Z</time>
      </trkpt>
      <trkpt lat="39.719878099858761" lon="3.295023450627923">
        <ele>444.75</ele>
        <time>2014-09-06T09:55:02Z</time>
      </trkpt>
      <trkpt lat="39.719844236969948" lon="3.294971650466323">
        <ele>443.79000000000002</ele>
        <time>2014-09-06T09:55:07Z</time>
      </trkpt>
      <trkpt lat="39.719773912802339" lon="3.294984977692366">
        <ele>443.31</ele>
        <time>2014-09-06T09:55:14Z</time>
      </trkpt>
      <trkpt lat="39.719728566706181" lon="3.294984139502049">
        <ele>441.86000000000001</ele>
        <time>2014-09-06T09:55:19Z</time>
      </trkpt>
      <trkpt lat="39.719686657190323" lon="3.294956060126424">
        <ele>440.42000000000002</ele>
        <time>2014-09-06T09:55:26Z</time>
      </trkpt>
      <trkpt lat="39.719675509259105" lon="3.29491482116282">
        <ele>439.45999999999998</ele>
        <time>2014-09-06T09:55:31Z</time>
      </trkpt>
      <trkpt lat="39.719658326357603" lon="3.294878276064992">
        <ele>437.54000000000002</ele>
        <time>2014-09-06T09:55:38Z</time>
      </trkpt>
      <trkpt lat="39.719625804573298" lon="3.294850531965494">
        <ele>437.06</ele>
        <time>2014-09-06T09:55:43Z</time>
      </trkpt>
      <trkpt lat="39.71956386230886" lon="3.294837875291705">
        <ele>435.13</ele>
        <time>2014-09-06T09:55:49Z</time>
      </trkpt>
      <trkpt lat="39.719534358009696" lon="3.294809712097049">
        <ele>434.64999999999998</ele>
        <time>2014-09-06T09:55:54Z</time>
      </trkpt>
      <trkpt lat="39.719500578939915" lon="3.294776687398553">
        <ele>433.69</ele>
        <time>2014-09-06T09:55:58Z</time>
      </trkpt>
      <trkpt lat="39.719492699950933" lon="3.294770652428269">
        <ele>433.20999999999998</ele>
        <time>2014-09-06T09:55:59Z</time>
      </trkpt>
      <trkpt lat="39.719466045498848" lon="3.294700579717755">
        <ele>431.76999999999998</ele>
        <time>2014-09-06T09:56:10Z</time>
      </trkpt>
      <trkpt lat="39.719450119882822" lon="3.294697059318423">
        <ele>430.81</ele>
        <time>2014-09-06T09:56:12Z</time>
      </trkpt>
      <trkpt lat="39.719304107129574" lon="3.294694880023599">
        <ele>429.37</ele>
        <time>2014-09-06T09:56:22Z</time>
      </trkpt>
      <trkpt lat="39.719266137108207" lon="3.294656742364168">
        <ele>426.95999999999998</ele>
        <time>2014-09-06T09:56:34Z</time>
      </trkpt>
      <trkpt lat="39.719256414100528" lon="3.294637212529779">
        <ele>426</ele>
        <time>2014-09-06T09:56:37Z</time>
      </trkpt>
      <trkpt lat="39.719186089932919" lon="3.294582478702068">
        <ele>425.51999999999998</ele>
        <time>2014-09-06T09:56:46Z</time>
      </trkpt>
      <trkpt lat="39.719156920909882" lon="3.294568983837962">
        <ele>424.56</ele>
        <time>2014-09-06T09:56:51Z</time>
      </trkpt>
      <trkpt lat="39.719118028879166" lon="3.294534115120769">
        <ele>422.16000000000003</ele>
        <time>2014-09-06T09:57:01Z</time>
      </trkpt>
      <trkpt lat="39.719125991687179" lon="3.294535540044308">
        <ele>420.23000000000002</ele>
        <time>2014-09-06T09:57:11Z</time>
      </trkpt>
      <trkpt lat="39.719125991687179" lon="3.294535540044308">
        <ele>420.23000000000002</ele>
        <time>2014-09-06T09:57:12Z</time>
      </trkpt>
      <trkpt lat="39.719077292829752" lon="3.294520871713758">
        <ele>418.79000000000002</ele>
        <time>2014-09-06T09:57:16Z</time>
      </trkpt>
      <trkpt lat="39.718963801860809" lon="3.294458175078034">
        <ele>417.82999999999998</ele>
        <time>2014-09-06T09:57:22Z</time>
      </trkpt>
      <trkpt lat="39.718880234286189" lon="3.29441936686635">
        <ele>416.38999999999999</ele>
        <time>2014-09-06T09:57:29Z</time>
      </trkpt>
      <trkpt lat="39.718835558742285" lon="3.294409308582544">
        <ele>415.91000000000003</ele>
        <time>2014-09-06T09:57:35Z</time>
      </trkpt>
      <trkpt lat="39.71871804445982" lon="3.29427813179791">
        <ele>414.47000000000003</ele>
        <time>2014-09-06T09:57:45Z</time>
      </trkpt>
      <trkpt lat="39.71871511079371" lon="3.294271090999246">
        <ele>413.98000000000002</ele>
        <time>2014-09-06T09:57:46Z</time>
      </trkpt>
      <trkpt lat="39.718635063618422" lon="3.294211495667696">
        <ele>413.98000000000002</ele>
        <time>2014-09-06T09:57:52Z</time>
      </trkpt>
      <trkpt lat="39.718597093597054" lon="3.294210825115442">
        <ele>413.01999999999998</ele>
        <time>2014-09-06T09:57:54Z</time>
      </trkpt>
      <trkpt lat="39.718557195737958" lon="3.294192887842655">
        <ele>413.5</ele>
        <time>2014-09-06T09:57:59Z</time>
      </trkpt>
      <trkpt lat="39.718519812449813" lon="3.29419900663197">
        <ele>413.01999999999998</ele>
        <time>2014-09-06T09:58:04Z</time>
      </trkpt>
      <trkpt lat="39.718488547950983" lon="3.294200683012605">
        <ele>412.54000000000002</ele>
        <time>2014-09-06T09:58:11Z</time>
      </trkpt>
      <trkpt lat="39.718461725860834" lon="3.294198084622622">
        <ele>413.01999999999998</ele>
        <time>2014-09-06T09:58:13Z</time>
      </trkpt>
      <trkpt lat="39.718402130529284" lon="3.294170927256346">
        <ele>414.47000000000003</ele>
        <time>2014-09-06T09:58:24Z</time>
      </trkpt>
      <trkpt lat="39.718377236276865" lon="3.294134214520454">
        <ele>414.94999999999999</ele>
        <time>2014-09-06T09:58:29Z</time>
      </trkpt>
      <trkpt lat="39.71835938282311" lon="3.294111080467701">
        <ele>414.94999999999999</ele>
        <time>2014-09-06T09:58:31Z</time>
      </trkpt>
      <trkpt lat="39.718303894624114" lon="3.294093729928136">
        <ele>416.38999999999999</ele>
        <time>2014-09-06T09:58:40Z</time>
      </trkpt>
      <trkpt lat="39.718326693400741" lon="3.294000690802932">
        <ele>416.38999999999999</ele>
        <time>2014-09-06T09:58:50Z</time>
      </trkpt>
      <trkpt lat="39.718285454437137" lon="3.293970348313451">
        <ele>417.35000000000002</ele>
        <time>2014-09-06T09:58:55Z</time>
      </trkpt>
      <trkpt lat="39.718269696459174" lon="3.293943190947175">
        <ele>416.38999999999999</ele>
        <time>2014-09-06T09:58:57Z</time>
      </trkpt>
      <trkpt lat="39.718260811641812" lon="3.29391460865736">
        <ele>417.35000000000002</ele>
        <time>2014-09-06T09:58:59Z</time>
      </trkpt>
      <trkpt lat="39.718226613476872" lon="3.293827017769218">
        <ele>417.35000000000002</ele>
        <time>2014-09-06T09:59:09Z</time>
      </trkpt>
      <trkpt lat="39.71819962374866" lon="3.293783096596599">
        <ele>417.82999999999998</ele>
        <time>2014-09-06T09:59:17Z</time>
      </trkpt>
      <trkpt lat="39.718130808323622" lon="3.293732386082411">
        <ele>417.35000000000002</ele>
        <time>2014-09-06T09:59:24Z</time>
      </trkpt>
      <trkpt lat="39.718084959313273" lon="3.293682262301445">
        <ele>417.82999999999998</ele>
        <time>2014-09-06T09:59:30Z</time>
      </trkpt>
      <trkpt lat="39.718051012605429" lon="3.293678741902113">
        <ele>418.79000000000002</ele>
        <time>2014-09-06T09:59:44Z</time>
      </trkpt>
      <trkpt lat="39.718051012605429" lon="3.293678741902113">
        <ele>419.26999999999998</ele>
        <time>2014-09-06T09:59:47Z</time>
      </trkpt>
      <trkpt lat="39.718013796955347" lon="3.293720232322812">
        <ele>419.75</ele>
        <time>2014-09-06T09:59:53Z</time>
      </trkpt>
      <trkpt lat="39.717975743114948" lon="3.293729620054364">
        <ele>421.19</ele>
        <time>2014-09-06T10:00:02Z</time>
      </trkpt>
      <trkpt lat="39.717935593798757" lon="3.293712437152863">
        <ele>422.63999999999999</ele>
        <time>2014-09-06T10:00:09Z</time>
      </trkpt>
      <trkpt lat="39.717913381755352" lon="3.293715873733163">
        <ele>423.12</ele>
        <time>2014-09-06T10:00:14Z</time>
      </trkpt>
      <trkpt lat="39.717818666249514" lon="3.293700283393264">
        <ele>426</ele>
        <time>2014-09-06T10:00:26Z</time>
      </trkpt>
      <trkpt lat="39.717818666249514" lon="3.293700283393264">
        <ele>426.48000000000002</ele>
        <time>2014-09-06T10:00:27Z</time>
      </trkpt>
      <trkpt lat="39.717787653207779" lon="3.293689303100109">
        <ele>427.44</ele>
        <time>2014-09-06T10:00:37Z</time>
      </trkpt>
      <trkpt lat="39.717787653207779" lon="3.293689303100109">
        <ele>428.39999999999998</ele>
        <time>2014-09-06T10:00:49Z</time>
      </trkpt>
      <trkpt lat="39.717775247991085" lon="3.293685028329492">
        <ele>429.85000000000002</ele>
        <time>2014-09-06T10:00:56Z</time>
      </trkpt>
      <trkpt lat="39.717742977663875" lon="3.293685866519809">
        <ele>430.81</ele>
        <time>2014-09-06T10:01:08Z</time>
      </trkpt>
      <trkpt lat="39.717707270756364" lon="3.293624008074403">
        <ele>431.76999999999998</ele>
        <time>2014-09-06T10:01:21Z</time>
      </trkpt>
      <trkpt lat="39.717707270756364" lon="3.293624008074403">
        <ele>432.25</ele>
        <time>2014-09-06T10:01:24Z</time>
      </trkpt>
      <trkpt lat="39.717530244961381" lon="3.293582685291767">
        <ele>434.17000000000002</ele>
        <time>2014-09-06T10:01:34Z</time>
      </trkpt>
      <trkpt lat="39.71751943230629" lon="3.293573465198278">
        <ele>434.64999999999998</ele>
        <time>2014-09-06T10:01:35Z</time>
      </trkpt>
      <trkpt lat="39.717489928007126" lon="3.29355301335454">
        <ele>433.69</ele>
        <time>2014-09-06T10:01:38Z</time>
      </trkpt>
      <trkpt lat="39.717434272170067" lon="3.293491322547197">
        <ele>434.64999999999998</ele>
        <time>2014-09-06T10:01:47Z</time>
      </trkpt>
      <trkpt lat="39.717418178915977" lon="3.293483946472406">
        <ele>434.64999999999998</ele>
        <time>2014-09-06T10:01:50Z</time>
      </trkpt>
      <trkpt lat="39.717378364875913" lon="3.293421668931842">
        <ele>435.13</ele>
        <time>2014-09-06T10:01:55Z</time>
      </trkpt>
      <trkpt lat="39.717328995466232" lon="3.293372634798288">
        <ele>436.57999999999998</ele>
        <time>2014-09-06T10:02:04Z</time>
      </trkpt>
      <trkpt lat="39.717299239709973" lon="3.293367186561227">
        <ele>437.54000000000002</ele>
        <time>2014-09-06T10:02:07Z</time>
      </trkpt>
      <trkpt lat="39.717263616621494" lon="3.29332971945405">
        <ele>438.01999999999998</ele>
        <time>2014-09-06T10:02:13Z</time>
      </trkpt>
      <trkpt lat="39.717238722369075" lon="3.293299963697791">
        <ele>438.5</ele>
        <time>2014-09-06T10:02:16Z</time>
      </trkpt>
      <trkpt lat="39.717174014076591" lon="3.293254617601633">
        <ele>439.94</ele>
        <time>2014-09-06T10:02:28Z</time>
      </trkpt>
      <trkpt lat="39.717160100117326" lon="3.29323492012918">
        <ele>441.38</ele>
        <time>2014-09-06T10:02:34Z</time>
      </trkpt>
      <trkpt lat="39.717160100117326" lon="3.29323492012918">
        <ele>441.86000000000001</ele>
        <time>2014-09-06T10:02:36Z</time>
      </trkpt>
      <trkpt lat="39.717168733477592" lon="3.293202482163906">
        <ele>442.33999999999997</ele>
        <time>2014-09-06T10:02:39Z</time>
      </trkpt>
      <trkpt lat="39.717135624960065" lon="3.29312595538795">
        <ele>442.33999999999997</ele>
        <time>2014-09-06T10:02:43Z</time>
      </trkpt>
      <trkpt lat="39.717121291905642" lon="3.293089242652059">
        <ele>442.81999999999999</ele>
        <time>2014-09-06T10:02:46Z</time>
      </trkpt>
      <trkpt lat="39.717124057933688" lon="3.293067701160908">
        <ele>443.79000000000002</ele>
        <time>2014-09-06T10:02:50Z</time>
      </trkpt>
      <trkpt lat="39.717119364067912" lon="3.293038113042712">
        <ele>443.79000000000002</ele>
        <time>2014-09-06T10:02:53Z</time>
      </trkpt>
      <trkpt lat="39.717108048498631" lon="3.292984217405319">
        <ele>444.26999999999998</ele>
        <time>2014-09-06T10:02:56Z</time>
      </trkpt>
      <trkpt lat="39.717093212530017" lon="3.292944990098476">
        <ele>444.75</ele>
        <time>2014-09-06T10:02:59Z</time>
      </trkpt>
      <trkpt lat="39.717084914445877" lon="3.292916240170598">
        <ele>444.75</ele>
        <time>2014-09-06T10:03:02Z</time>
      </trkpt>
      <trkpt lat="39.717079047113657" lon="3.292890507727861">
        <ele>445.70999999999998</ele>
        <time>2014-09-06T10:03:05Z</time>
      </trkpt>
      <trkpt lat="39.717072509229183" lon="3.292875923216343">
        <ele>445.70999999999998</ele>
        <time>2014-09-06T10:03:07Z</time>
      </trkpt>
      <trkpt lat="39.717052979394794" lon="3.292844155803323">
        <ele>447.14999999999998</ele>
        <time>2014-09-06T10:03:10Z</time>
      </trkpt>
      <trkpt lat="39.71705473959446" lon="3.292846083641052">
        <ele>446.67000000000002</ele>
        <time>2014-09-06T10:03:11Z</time>
      </trkpt>
      <trkpt lat="39.717017440125346" lon="3.2927330955863">
        <ele>448.11000000000001</ele>
        <time>2014-09-06T10:03:23Z</time>
      </trkpt>
      <trkpt lat="39.716965975239873" lon="3.292621113359928">
        <ele>450.02999999999997</ele>
        <time>2014-09-06T10:03:35Z</time>
      </trkpt>
      <trkpt lat="39.716942338272929" lon="3.292577862739563">
        <ele>451.95999999999998</ele>
        <time>2014-09-06T10:03:47Z</time>
      </trkpt>
      <trkpt lat="39.716932363808155" lon="3.292556656524539">
        <ele>452.92000000000002</ele>
        <time>2014-09-06T10:03:49Z</time>
      </trkpt>
      <trkpt lat="39.716924987733364" lon="3.292507873848081">
        <ele>452.92000000000002</ele>
        <time>2014-09-06T10:03:53Z</time>
      </trkpt>
      <trkpt lat="39.716900261119008" lon="3.2924550678581">
        <ele>454.83999999999997</ele>
        <time>2014-09-06T10:04:05Z</time>
      </trkpt>
      <trkpt lat="39.716824488714337" lon="3.292376110330224">
        <ele>456.75999999999999</ele>
        <time>2014-09-06T10:04:15Z</time>
      </trkpt>
      <trkpt lat="39.71680604852736" lon="3.29234266653657">
        <ele>457.24000000000001</ele>
        <time>2014-09-06T10:04:18Z</time>
      </trkpt>
      <trkpt lat="39.716776963323355" lon="3.292314000427723">
        <ele>457.72000000000003</ele>
        <time>2014-09-06T10:04:21Z</time>
      </trkpt>
      <trkpt lat="39.71674838103354" lon="3.292265553027391">
        <ele>459.17000000000002</ele>
        <time>2014-09-06T10:04:31Z</time>
      </trkpt>
      <trkpt lat="39.716728683561087" lon="3.292227666825056">
        <ele>459.64999999999998</ele>
        <time>2014-09-06T10:04:34Z</time>
      </trkpt>
      <trkpt lat="39.716693311929703" lon="3.292176201939583">
        <ele>461.08999999999997</ele>
        <time>2014-09-06T10:04:41Z</time>
      </trkpt>
      <trkpt lat="39.716689791530371" lon="3.292136555537581">
        <ele>461.56999999999999</ele>
        <time>2014-09-06T10:04:44Z</time>
      </trkpt>
      <trkpt lat="39.716632040217519" lon="3.292051395401359">
        <ele>462.52999999999997</ele>
        <time>2014-09-06T10:04:56Z</time>
      </trkpt>
      <trkpt lat="39.716633884236217" lon="3.292041169479489">
        <ele>463.97000000000003</ele>
        <time>2014-09-06T10:05:00Z</time>
      </trkpt>
      <trkpt lat="39.716650145128369" lon="3.291979394853115">
        <ele>464.44999999999999</ele>
        <time>2014-09-06T10:05:06Z</time>
      </trkpt>
      <trkpt lat="39.716635057702661" lon="3.291959026828408">
        <ele>465.89999999999998</ele>
        <time>2014-09-06T10:05:17Z</time>
      </trkpt>
      <trkpt lat="39.716628352180123" lon="3.291950142011046">
        <ele>467.33999999999997</ele>
        <time>2014-09-06T10:05:29Z</time>
      </trkpt>
      <trkpt lat="39.71662575379014" lon="3.29194251447916">
        <ele>470.22000000000003</ele>
        <time>2014-09-06T10:05:38Z</time>
      </trkpt>
      <trkpt lat="39.71662575379014" lon="3.29194251447916">
        <ele>472.13999999999999</ele>
        <time>2014-09-06T10:05:50Z</time>
      </trkpt>
      <trkpt lat="39.716597925871611" lon="3.29188677482307">
        <ele>475.02999999999997</ele>
        <time>2014-09-06T10:06:03Z</time>
      </trkpt>
      <trkpt lat="39.716572193428874" lon="3.291747383773327">
        <ele>476.94999999999999</ele>
        <time>2014-09-06T10:06:14Z</time>
      </trkpt>
      <trkpt lat="39.716537743806839" lon="3.291620900854468">
        <ele>478.87</ele>
        <time>2014-09-06T10:06:23Z</time>
      </trkpt>
      <trkpt lat="39.716519974172115" lon="3.291548229753971">
        <ele>480.31999999999999</ele>
        <time>2014-09-06T10:06:34Z</time>
      </trkpt>
      <trkpt lat="39.716472364962101" lon="3.291482599452138">
        <ele>482.24000000000001</ele>
        <time>2014-09-06T10:06:45Z</time>
      </trkpt>
      <trkpt lat="39.7164327185601" lon="3.291445383802056">
        <ele>483.19999999999999</ele>
        <time>2014-09-06T10:06:48Z</time>
      </trkpt>
      <trkpt lat="39.716376895084977" lon="3.291374808177352">
        <ele>484.16000000000003</ele>
        <time>2014-09-06T10:06:56Z</time>
      </trkpt>
      <trkpt lat="39.716292154043913" lon="3.291263328865171">
        <ele>486.07999999999998</ele>
        <time>2014-09-06T10:07:09Z</time>
      </trkpt>
      <trkpt lat="39.716279413551092" lon="3.291250336915255">
        <ele>487.05000000000001</ele>
        <time>2014-09-06T10:07:14Z</time>
      </trkpt>
      <trkpt lat="39.716248568147421" lon="3.291214965283871">
        <ele>488.49000000000001</ele>
        <time>2014-09-06T10:07:21Z</time>
      </trkpt>
      <trkpt lat="39.716234654188156" lon="3.291157297790051">
        <ele>489.93000000000001</ele>
        <time>2014-09-06T10:07:25Z</time>
      </trkpt>
      <trkpt lat="39.716239348053932" lon="3.291032742708921">
        <ele>490.88999999999999</ele>
        <time>2014-09-06T10:07:34Z</time>
      </trkpt>
      <trkpt lat="39.716239096596837" lon="3.290985887870193">
        <ele>490.88999999999999</ele>
        <time>2014-09-06T10:07:37Z</time>
      </trkpt>
      <trkpt lat="39.716145554557443" lon="3.290891759097576">
        <ele>492.81</ele>
        <time>2014-09-06T10:07:48Z</time>
      </trkpt>
      <trkpt lat="39.716070117428899" lon="3.29078396782279">
        <ele>495.22000000000003</ele>
        <time>2014-09-06T10:07:59Z</time>
      </trkpt>
      <trkpt lat="39.716037344187498" lon="3.290747003629804">
        <ele>495.69999999999999</ele>
        <time>2014-09-06T10:08:05Z</time>
      </trkpt>
      <trkpt lat="39.715979089960456" lon="3.290667962282896">
        <ele>496.18000000000001</ele>
        <time>2014-09-06T10:08:13Z</time>
      </trkpt>
      <trkpt lat="39.715954950079322" lon="3.290614066645503">
        <ele>496.66000000000003</ele>
        <time>2014-09-06T10:08:17Z</time>
      </trkpt>
      <trkpt lat="39.715937180444598" lon="3.290579617023468">
        <ele>497.13999999999999</ele>
        <time>2014-09-06T10:08:20Z</time>
      </trkpt>
      <trkpt lat="39.715928630903363" lon="3.290547430515289">
        <ele>495.69999999999999</ele>
        <time>2014-09-06T10:08:32Z</time>
      </trkpt>
      <trkpt lat="39.715922176837921" lon="3.290537372231484">
        <ele>496.66000000000003</ele>
        <time>2014-09-06T10:08:45Z</time>
      </trkpt>
      <trkpt lat="39.71586643718183" lon="3.290450284257531">
        <ele>498.10000000000002</ele>
        <time>2014-09-06T10:08:57Z</time>
      </trkpt>
      <trkpt lat="39.715834334492683" lon="3.290406530722976">
        <ele>498.57999999999998</ele>
        <time>2014-09-06T10:09:02Z</time>
      </trkpt>
      <trkpt lat="39.715823018923402" lon="3.290364118292928">
        <ele>498.57999999999998</ele>
        <time>2014-09-06T10:09:06Z</time>
      </trkpt>
      <trkpt lat="39.715804159641266" lon="3.290333105251193">
        <ele>499.06</ele>
        <time>2014-09-06T10:09:08Z</time>
      </trkpt>
      <trkpt lat="39.715756047517061" lon="3.290279293432832">
        <ele>500.01999999999998</ele>
        <time>2014-09-06T10:09:13Z</time>
      </trkpt>
      <trkpt lat="39.715745151042938" lon="3.290249453857541">
        <ele>500.5</ele>
        <time>2014-09-06T10:09:16Z</time>
      </trkpt>
      <trkpt lat="39.715700140222907" lon="3.290119115263224">
        <ele>501.45999999999998</ele>
        <time>2014-09-06T10:09:26Z</time>
      </trkpt>
      <trkpt lat="39.715677425265312" lon="3.290071673691273">
        <ele>502.91000000000003</ele>
        <time>2014-09-06T10:09:32Z</time>
      </trkpt>
      <trkpt lat="39.715652950108051" lon="3.290038900449872">
        <ele>503.87</ele>
        <time>2014-09-06T10:09:36Z</time>
      </trkpt>
      <trkpt lat="39.715620847418904" lon="3.289982909336686">
        <ele>503.87</ele>
        <time>2014-09-06T10:09:43Z</time>
      </trkpt>
      <trkpt lat="39.715610621497035" lon="3.28994887880981">
        <ele>503.38999999999999</ele>
        <time>2014-09-06T10:09:46Z</time>
      </trkpt>
      <trkpt lat="39.715625960379839" lon="3.289837818592787">
        <ele>504.35000000000002</ele>
        <time>2014-09-06T10:09:56Z</time>
      </trkpt>
      <trkpt lat="39.715629816055298" lon="3.28980521298945">
        <ele>503.87</ele>
        <time>2014-09-06T10:09:59Z</time>
      </trkpt>
      <trkpt lat="39.715612130239606" lon="3.289757436141372">
        <ele>503.87</ele>
        <time>2014-09-06T10:10:03Z</time>
      </trkpt>
      <trkpt lat="39.715601066127419" lon="3.289735224097967">
        <ele>504.35000000000002</ele>
        <time>2014-09-06T10:10:06Z</time>
      </trkpt>
      <trkpt lat="39.715607017278671" lon="3.289677137508988">
        <ele>503.87</ele>
        <time>2014-09-06T10:10:11Z</time>
      </trkpt>
      <trkpt lat="39.715575501322746" lon="3.289585942402482">
        <ele>504.82999999999998</ele>
        <time>2014-09-06T10:10:20Z</time>
      </trkpt>
      <trkpt lat="39.715572902932763" lon="3.289544368162751">
        <ele>504.82999999999998</ele>
        <time>2014-09-06T10:10:23Z</time>
      </trkpt>
      <trkpt lat="39.715573908761144" lon="3.289510337635875">
        <ele>505.31</ele>
        <time>2014-09-06T10:10:27Z</time>
      </trkpt>
      <trkpt lat="39.715577932074666" lon="3.289446467533708">
        <ele>505.31</ele>
        <time>2014-09-06T10:10:32Z</time>
      </trkpt>
      <trkpt lat="39.715592432767153" lon="3.289321744814515">
        <ele>506.26999999999998</ele>
        <time>2014-09-06T10:10:41Z</time>
      </trkpt>
      <trkpt lat="39.715597964823246" lon="3.289208756759763">
        <ele>506.75</ele>
        <time>2014-09-06T10:10:50Z</time>
      </trkpt>
      <trkpt lat="39.715606262907386" lon="3.289135163649917">
        <ele>506.75</ele>
        <time>2014-09-06T10:10:56Z</time>
      </trkpt>
      <trkpt lat="39.715628726407886" lon="3.289059810340405">
        <ele>508.19</ele>
        <time>2014-09-06T10:11:02Z</time>
      </trkpt>
      <trkpt lat="39.71562746912241" lon="3.289034496992827">
        <ele>507.70999999999998</ele>
        <time>2014-09-06T10:11:05Z</time>
      </trkpt>
      <trkpt lat="39.715643981471658" lon="3.28898336738348">
        <ele>508.19</ele>
        <time>2014-09-06T10:11:09Z</time>
      </trkpt>
      <trkpt lat="39.715664768591523" lon="3.288851017132402">
        <ele>509.63999999999999</ele>
        <time>2014-09-06T10:11:19Z</time>
      </trkpt>
      <trkpt lat="39.715665439143777" lon="3.288769964128733">
        <ele>510.60000000000002</ele>
        <time>2014-09-06T10:11:25Z</time>
      </trkpt>
      <trkpt lat="39.715677592903376" lon="3.288625543937087">
        <ele>511.07999999999998</ele>
        <time>2014-09-06T10:11:35Z</time>
      </trkpt>
      <trkpt lat="39.715705923736095" lon="3.288553543388844">
        <ele>512.51999999999998</ele>
        <time>2014-09-06T10:11:45Z</time>
      </trkpt>
      <trkpt lat="39.715699469670653" lon="3.288556979969144">
        <ele>512.51999999999998</ele>
        <time>2014-09-06T10:12:00Z</time>
      </trkpt>
      <trkpt lat="39.715701984241605" lon="3.288549184799194">
        <ele>513</ele>
        <time>2014-09-06T10:12:04Z</time>
      </trkpt>
      <trkpt lat="39.715722855180502" lon="3.288545832037926">
        <ele>512.51999999999998</ele>
        <time>2014-09-06T10:12:15Z</time>
      </trkpt>
      <trkpt lat="39.715722855180502" lon="3.288545832037926">
        <ele>513</ele>
        <time>2014-09-06T10:12:16Z</time>
      </trkpt>
      <trkpt lat="39.71573106944561" lon="3.288522027432919">
        <ele>513.48000000000002</ele>
        <time>2014-09-06T10:12:26Z</time>
      </trkpt>
      <trkpt lat="39.715728890150785" lon="3.288521859794855">
        <ele>513</ele>
        <time>2014-09-06T10:12:38Z</time>
      </trkpt>
      <trkpt lat="39.715746240690351" lon="3.288449188694358">
        <ele>513.48000000000002</ele>
        <time>2014-09-06T10:12:43Z</time>
      </trkpt>
      <trkpt lat="39.715778427198529" lon="3.28838330693543">
        <ele>512.03999999999996</ele>
        <time>2014-09-06T10:12:50Z</time>
      </trkpt>
      <trkpt lat="39.715794185176492" lon="3.288349360227585">
        <ele>512.51999999999998</ele>
        <time>2014-09-06T10:12:53Z</time>
      </trkpt>
      <trkpt lat="39.715801980346441" lon="3.288328321650624">
        <ele>512.51999999999998</ele>
        <time>2014-09-06T10:12:55Z</time>
      </trkpt>
      <trkpt lat="39.715818408876657" lon="3.288299571722746">
        <ele>513.48000000000002</ele>
        <time>2014-09-06T10:13:07Z</time>
      </trkpt>
      <trkpt lat="39.715848499909043" lon="3.288257997483015">
        <ele>512.51999999999998</ele>
        <time>2014-09-06T10:13:17Z</time>
      </trkpt>
      <trkpt lat="39.715872891247272" lon="3.288209801539779">
        <ele>512.51999999999998</ele>
        <time>2014-09-06T10:13:29Z</time>
      </trkpt>
      <trkpt lat="39.715872891247272" lon="3.288209801539779">
        <ele>512.51999999999998</ele>
        <time>2014-09-06T10:13:34Z</time>
      </trkpt>
      <trkpt lat="39.715894097462296" lon="3.288180967792869">
        <ele>513</ele>
        <time>2014-09-06T10:13:40Z</time>
      </trkpt>
      <trkpt lat="39.715913375839591" lon="3.288170574232936">
        <ele>513</ele>
        <time>2014-09-06T10:13:42Z</time>
      </trkpt>
      <trkpt lat="39.715915387496352" lon="3.288147188723087">
        <ele>513.96000000000004</ele>
        <time>2014-09-06T10:13:44Z</time>
      </trkpt>
      <trkpt lat="39.715948831290007" lon="3.288131849840283">
        <ele>513</ele>
        <time>2014-09-06T10:13:48Z</time>
      </trkpt>
      <trkpt lat="39.715980431064963" lon="3.288130257278681">
        <ele>512.51999999999998</ele>
        <time>2014-09-06T10:13:52Z</time>
      </trkpt>
      <trkpt lat="39.716023849323392" lon="3.288114499300718">
        <ele>512.03999999999996</ele>
        <time>2014-09-06T10:13:56Z</time>
      </trkpt>
      <trkpt lat="39.716057376936078" lon="3.288103602826595">
        <ele>512.51999999999998</ele>
        <time>2014-09-06T10:14:00Z</time>
      </trkpt>
      <trkpt lat="39.716105740517378" lon="3.288095556199551">
        <ele>512.51999999999998</ele>
        <time>2014-09-06T10:14:04Z</time>
      </trkpt>
      <trkpt lat="39.716146141290665" lon="3.28808281570673">
        <ele>511.56</ele>
        <time>2014-09-06T10:14:11Z</time>
      </trkpt>
      <trkpt lat="39.716244544833899" lon="3.288029590621591">
        <ele>510.12</ele>
        <time>2014-09-06T10:14:23Z</time>
      </trkpt>
      <trkpt lat="39.716277569532394" lon="3.287970749661326">
        <ele>511.56</ele>
        <time>2014-09-06T10:14:29Z</time>
      </trkpt>
      <trkpt lat="39.716313695535064" lon="3.287889948114753">
        <ele>512.03999999999996</ele>
        <time>2014-09-06T10:14:41Z</time>
      </trkpt>
      <trkpt lat="39.71631788648665" lon="3.287867065519095">
        <ele>512.51999999999998</ele>
        <time>2014-09-06T10:14:48Z</time>
      </trkpt>
      <trkpt lat="39.716356610879302" lon="3.287828927859664">
        <ele>510.60000000000002</ele>
        <time>2014-09-06T10:14:57Z</time>
      </trkpt>
      <trkpt lat="39.716349318623543" lon="3.287802273407579">
        <ele>511.56</ele>
        <time>2014-09-06T10:15:05Z</time>
      </trkpt>
      <trkpt lat="39.716385696083307" lon="3.287808476015925">
        <ele>510.12</ele>
        <time>2014-09-06T10:15:11Z</time>
      </trkpt>
      <trkpt lat="39.716411931440234" lon="3.287792298942804">
        <ele>509.63999999999999</ele>
        <time>2014-09-06T10:15:14Z</time>
      </trkpt>
      <trkpt lat="39.716441854834557" lon="3.28776472248137">
        <ele>510.60000000000002</ele>
        <time>2014-09-06T10:15:18Z</time>
      </trkpt>
      <trkpt lat="39.716495415195823" lon="3.287736559286714">
        <ele>509.16000000000003</ele>
        <time>2014-09-06T10:15:25Z</time>
      </trkpt>
      <trkpt lat="39.716520393267274" lon="3.287689704447985">
        <ele>509.16000000000003</ele>
        <time>2014-09-06T10:15:29Z</time>
      </trkpt>
      <trkpt lat="39.716532882302999" lon="3.287662379443646">
        <ele>509.16000000000003</ele>
        <time>2014-09-06T10:15:36Z</time>
      </trkpt>
      <trkpt lat="39.716577054932714" lon="3.28758342191577">
        <ele>509.63999999999999</ele>
        <time>2014-09-06T10:15:44Z</time>
      </trkpt>
      <trkpt lat="39.71659884788096" lon="3.28753748908639">
        <ele>510.12</ele>
        <time>2014-09-06T10:15:49Z</time>
      </trkpt>
      <trkpt lat="39.716660706326365" lon="3.287494909018278">
        <ele>508.19</ele>
        <time>2014-09-06T10:15:58Z</time>
      </trkpt>
      <trkpt lat="39.716681325808167" lon="3.287452412769198">
        <ele>508.19</ele>
        <time>2014-09-06T10:16:05Z</time>
      </trkpt>
      <trkpt lat="39.716693731024861" lon="3.28743489459157">
        <ele>508.19</ele>
        <time>2014-09-06T10:16:07Z</time>
      </trkpt>
      <trkpt lat="39.716756176203489" lon="3.287321571260691">
        <ele>507.23000000000002</ele>
        <time>2014-09-06T10:16:19Z</time>
      </trkpt>
      <trkpt lat="39.716769754886627" lon="3.287301538512111">
        <ele>507.70999999999998</ele>
        <time>2014-09-06T10:16:32Z</time>
      </trkpt>
      <trkpt lat="39.716769754886627" lon="3.287301538512111">
        <ele>507.23000000000002</ele>
        <time>2014-09-06T10:16:51Z</time>
      </trkpt>
      <trkpt lat="39.716777130961418" lon="3.287309082224965">
        <ele>508.19</ele>
        <time>2014-09-06T10:17:09Z</time>
      </trkpt>
      <trkpt lat="39.716777130961418" lon="3.287309082224965">
        <ele>504.35000000000002</ele>
        <time>2014-09-06T10:17:13Z</time>
      </trkpt>
      <trkpt lat="39.716778807342052" lon="3.287310339510441">
        <ele>509.63999999999999</ele>
        <time>2014-09-06T10:17:14Z</time>
      </trkpt>
      <trkpt lat="39.716777130961418" lon="3.287309082224965">
        <ele>505.31</ele>
        <time>2014-09-06T10:17:15Z</time>
      </trkpt>
      <trkpt lat="39.716785596683621" lon="3.287311093881726">
        <ele>507.70999999999998</ele>
        <time>2014-09-06T10:17:44Z</time>
      </trkpt>
      <trkpt lat="39.716785596683621" lon="3.287311093881726">
        <ele>506.75</ele>
        <time>2014-09-06T10:18:12Z</time>
      </trkpt>
      <trkpt lat="39.716805461794138" lon="3.28731469810009">
        <ele>506.75</ele>
        <time>2014-09-06T10:18:35Z</time>
      </trkpt>
      <trkpt lat="39.71682901494205" lon="3.287322325631976">
        <ele>506.26999999999998</ele>
        <time>2014-09-06T10:18:48Z</time>
      </trkpt>
      <trkpt lat="39.71682901494205" lon="3.287322325631976">
        <ele>504.82999999999998</ele>
        <time>2014-09-06T10:18:50Z</time>
      </trkpt>
      <trkpt lat="39.71682901494205" lon="3.287322325631976">
        <ele>503.38999999999999</ele>
        <time>2014-09-06T10:19:00Z</time>
      </trkpt>
      <trkpt lat="39.71682901494205" lon="3.287322325631976">
        <ele>502.91000000000003</ele>
        <time>2014-09-06T10:19:03Z</time>
      </trkpt>
      <trkpt lat="39.716890621930361" lon="3.287243703380227">
        <ele>502.43000000000001</ele>
        <time>2014-09-06T10:19:13Z</time>
      </trkpt>
      <trkpt lat="39.716931944712996" lon="3.28721503727138">
        <ele>501.94999999999999</ele>
        <time>2014-09-06T10:19:23Z</time>
      </trkpt>
      <trkpt lat="39.716952731832862" lon="3.287217216566205">
        <ele>500.5</ele>
        <time>2014-09-06T10:19:25Z</time>
      </trkpt>
      <trkpt lat="39.716989696025848" lon="3.287140522152185">
        <ele>500.5</ele>
        <time>2014-09-06T10:19:32Z</time>
      </trkpt>
      <trkpt lat="39.7170440107584" lon="3.287035999819636">
        <ele>501.45999999999998</ele>
        <time>2014-09-06T10:19:44Z</time>
      </trkpt>
      <trkpt lat="39.717046776786447" lon="3.287032982334495">
        <ele>500.98000000000002</ele>
        <time>2014-09-06T10:19:45Z</time>
      </trkpt>
      <trkpt lat="39.717058511450887" lon="3.287009345367551">
        <ele>501.45999999999998</ele>
        <time>2014-09-06T10:19:49Z</time>
      </trkpt>
      <trkpt lat="39.717071419581771" lon="3.28698537312448">
        <ele>501.45999999999998</ele>
        <time>2014-09-06T10:19:53Z</time>
      </trkpt>
      <trkpt lat="39.717079550027847" lon="3.286937847733498">
        <ele>502.43000000000001</ele>
        <time>2014-09-06T10:19:57Z</time>
      </trkpt>
      <trkpt lat="39.717091452330351" lon="3.286894764751196">
        <ele>502.43000000000001</ele>
        <time>2014-09-06T10:20:00Z</time>
      </trkpt>
      <trkpt lat="39.717097654938698" lon="3.286879928782582">
        <ele>502.91000000000003</ele>
        <time>2014-09-06T10:20:02Z</time>
      </trkpt>
      <trkpt lat="39.717110730707645" lon="3.286814130842686">
        <ele>503.87</ele>
        <time>2014-09-06T10:20:07Z</time>
      </trkpt>
      <trkpt lat="39.7171441745013" lon="3.286731820553541">
        <ele>504.82999999999998</ele>
        <time>2014-09-06T10:20:14Z</time>
      </trkpt>
      <trkpt lat="39.717152556404471" lon="3.286704830825329">
        <ele>504.35000000000002</ele>
        <time>2014-09-06T10:20:16Z</time>
      </trkpt>
      <trkpt lat="39.717156579717994" lon="3.286658143624663">
        <ele>505.79000000000002</ele>
        <time>2014-09-06T10:20:26Z</time>
      </trkpt>
      <trkpt lat="39.717156579717994" lon="3.286658143624663">
        <ele>505.79000000000002</ele>
        <time>2014-09-06T10:20:27Z</time>
      </trkpt>
      <trkpt lat="39.71716177649796" lon="3.286575330421329">
        <ele>507.23000000000002</ele>
        <time>2014-09-06T10:20:37Z</time>
      </trkpt>
      <trkpt lat="39.71717543900013" lon="3.286509951576591">
        <ele>506.75</ele>
        <time>2014-09-06T10:20:40Z</time>
      </trkpt>
      <trkpt lat="39.717202764004469" lon="3.286404004320502">
        <ele>507.70999999999998</ele>
        <time>2014-09-06T10:20:51Z</time>
      </trkpt>
      <trkpt lat="39.717202764004469" lon="3.286404004320502">
        <ele>508.67000000000002</ele>
        <time>2014-09-06T10:20:55Z</time>
      </trkpt>
      <trkpt lat="39.717217264696956" lon="3.286311803385615">
        <ele>510.12</ele>
        <time>2014-09-06T10:21:03Z</time>
      </trkpt>
      <trkpt lat="39.717227490618825" lon="3.286253213882446">
        <ele>510.12</ele>
        <time>2014-09-06T10:21:11Z</time>
      </trkpt>
      <trkpt lat="39.717254228889942" lon="3.286188589408994">
        <ele>511.07999999999998</ele>
        <time>2014-09-06T10:21:16Z</time>
      </trkpt>
      <trkpt lat="39.717250037938356" lon="3.28616495244205">
        <ele>511.07999999999998</ele>
        <time>2014-09-06T10:21:20Z</time>
      </trkpt>
      <trkpt lat="39.717266885563731" lon="3.286092029884458">
        <ele>512.51999999999998</ele>
        <time>2014-09-06T10:21:28Z</time>
      </trkpt>
      <trkpt lat="39.717280548065901" lon="3.286029752343893">
        <ele>515.39999999999998</ele>
        <time>2014-09-06T10:21:37Z</time>
      </trkpt>
      <trkpt lat="39.717331929132342" lon="3.286005444824696">
        <ele>514.91999999999996</ele>
        <time>2014-09-06T10:21:45Z</time>
      </trkpt>
      <trkpt lat="39.717369899153709" lon="3.286006953567267">
        <ele>514.44000000000005</ele>
        <time>2014-09-06T10:21:48Z</time>
      </trkpt>
      <trkpt lat="39.717397391796112" lon="3.285948112607002">
        <ele>515.39999999999998</ele>
        <time>2014-09-06T10:21:54Z</time>
      </trkpt>
      <trkpt lat="39.717408623546362" lon="3.285913914442062">
        <ele>516.37</ele>
        <time>2014-09-06T10:21:58Z</time>
      </trkpt>
      <trkpt lat="39.717435864731669" lon="3.285865718498826">
        <ele>517.80999999999995</ele>
        <time>2014-09-06T10:22:05Z</time>
      </trkpt>
      <trkpt lat="39.717455897480249" lon="3.285827497020364">
        <ele>518.28999999999996</ele>
        <time>2014-09-06T10:22:13Z</time>
      </trkpt>
      <trkpt lat="39.717456148937345" lon="3.285757675766945">
        <ele>521.16999999999996</ele>
        <time>2014-09-06T10:22:25Z</time>
      </trkpt>
      <trkpt lat="39.717456148937345" lon="3.285757675766945">
        <ele>520.69000000000005</ele>
        <time>2014-09-06T10:22:27Z</time>
      </trkpt>
      <trkpt lat="39.717475343495607" lon="3.285750634968281">
        <ele>521.64999999999998</ele>
        <time>2014-09-06T10:22:30Z</time>
      </trkpt>
      <trkpt lat="39.717505853623152" lon="3.285730769857764">
        <ele>520.21000000000004</ele>
        <time>2014-09-06T10:22:34Z</time>
      </trkpt>
      <trkpt lat="39.717524377629161" lon="3.285732697695494">
        <ele>519.73000000000002</ele>
        <time>2014-09-06T10:22:36Z</time>
      </trkpt>
      <trkpt lat="39.717572825029492" lon="3.285708390176296">
        <ele>517.33000000000004</ele>
        <time>2014-09-06T10:22:52Z</time>
      </trkpt>
      <trkpt lat="39.717572825029492" lon="3.285708390176296">
        <ele>525.5</ele>
        <time>2014-09-06T10:22:53Z</time>
      </trkpt>
      <trkpt lat="39.717572825029492" lon="3.285708390176296">
        <ele>522.13</ele>
        <time>2014-09-06T10:22:54Z</time>
      </trkpt>
      <trkpt lat="39.717570645734668" lon="3.285704199224711">
        <ele>520.69000000000005</ele>
        <time>2014-09-06T10:23:08Z</time>
      </trkpt>
      <trkpt lat="39.717570645734668" lon="3.285704199224711">
        <ele>516.85000000000002</ele>
        <time>2014-09-06T10:23:09Z</time>
      </trkpt>
      <trkpt lat="39.717569891363382" lon="3.285702019929886">
        <ele>523.58000000000004</ele>
        <time>2014-09-06T10:23:10Z</time>
      </trkpt>
      <trkpt lat="39.717570645734668" lon="3.285704199224711">
        <ele>522.61000000000001</ele>
        <time>2014-09-06T10:23:11Z</time>
      </trkpt>
      <trkpt lat="39.717570645734668" lon="3.285704199224711">
        <ele>515.88</ele>
        <time>2014-09-06T10:23:12Z</time>
      </trkpt>
      <trkpt lat="39.717570645734668" lon="3.285704199224711">
        <ele>528.38</ele>
        <time>2014-09-06T10:23:13Z</time>
      </trkpt>
      <trkpt lat="39.71757123246789" lon="3.285706797614694">
        <ele>522.13</ele>
        <time>2014-09-06T10:23:14Z</time>
      </trkpt>
      <trkpt lat="39.717570645734668" lon="3.285704199224711">
        <ele>521.64999999999998</ele>
        <time>2014-09-06T10:23:19Z</time>
      </trkpt>
      <trkpt lat="39.717570645734668" lon="3.285704199224711">
        <ele>522.61000000000001</ele>
        <time>2014-09-06T10:23:22Z</time>
      </trkpt>
      <trkpt lat="39.717571567744017" lon="3.28570369631052">
        <ele>520.21000000000004</ele>
        <time>2014-09-06T10:23:51Z</time>
      </trkpt>
      <trkpt lat="39.717571567744017" lon="3.28570369631052">
        <ele>524.05999999999995</ele>
        <time>2014-09-06T10:23:52Z</time>
      </trkpt>
      <trkpt lat="39.717571567744017" lon="3.28570369631052">
        <ele>520.69000000000005</ele>
        <time>2014-09-06T10:23:57Z</time>
      </trkpt>
      <trkpt lat="39.717571567744017" lon="3.28570369631052">
        <ele>523.58000000000004</ele>
        <time>2014-09-06T10:24:04Z</time>
      </trkpt>
      <trkpt lat="39.717571567744017" lon="3.28570369631052">
        <ele>521.64999999999998</ele>
        <time>2014-09-06T10:24:23Z</time>
      </trkpt>
      <trkpt lat="39.717570142820477" lon="3.285702858120203">
        <ele>522.13</ele>
        <time>2014-09-06T10:24:54Z</time>
      </trkpt>
      <trkpt lat="39.717568047344685" lon="3.285700008273125">
        <ele>522.13</ele>
        <time>2014-09-06T10:25:11Z</time>
      </trkpt>
      <trkpt lat="39.717573327943683" lon="3.285694560036063">
        <ele>521.64999999999998</ele>
        <time>2014-09-06T10:25:22Z</time>
      </trkpt>
      <trkpt lat="39.717602245509624" lon="3.285690788179636">
        <ele>521.16999999999996</ele>
        <time>2014-09-06T10:25:32Z</time>
      </trkpt>
      <trkpt lat="39.7176000662148" lon="3.285687938332558">
        <ele>520.21000000000004</ele>
        <time>2014-09-06T10:25:44Z</time>
      </trkpt>
      <trkpt lat="39.717598557472229" lon="3.285687183961272">
        <ele>520.21000000000004</ele>
        <time>2014-09-06T10:26:15Z</time>
      </trkpt>
      <trkpt lat="39.71760056912899" lon="3.285687770694494">
        <ele>520.21000000000004</ele>
        <time>2014-09-06T10:26:39Z</time>
      </trkpt>
      <trkpt lat="39.717597719281912" lon="3.285687770694494">
        <ele>520.21000000000004</ele>
        <time>2014-09-06T10:27:05Z</time>
      </trkpt>
      <trkpt lat="39.717597719281912" lon="3.285687770694494">
        <ele>520.69000000000005</ele>
        <time>2014-09-06T10:27:33Z</time>
      </trkpt>
      <trkpt lat="39.717602748423815" lon="3.28568953089416">
        <ele>519.73000000000002</ele>
        <time>2014-09-06T10:28:06Z</time>
      </trkpt>
      <trkpt lat="39.717602748423815" lon="3.28568953089416">
        <ele>519.73000000000002</ele>
        <time>2014-09-06T10:28:07Z</time>
      </trkpt>
      <trkpt lat="39.717600150033832" lon="3.285678131505847">
        <ele>521.16999999999996</ele>
        <time>2014-09-06T10:28:10Z</time>
      </trkpt>
      <trkpt lat="39.717601826414466" lon="3.285679053515196">
        <ele>521.64999999999998</ele>
        <time>2014-09-06T10:28:16Z</time>
      </trkpt>
      <trkpt lat="39.717587074264884" lon="3.28568265773356">
        <ele>522.13</ele>
        <time>2014-09-06T10:28:21Z</time>
      </trkpt>
      <trkpt lat="39.717569723725319" lon="3.285693805664778">
        <ele>523.58000000000004</ele>
        <time>2014-09-06T10:28:33Z</time>
      </trkpt>
      <trkpt lat="39.717577183619142" lon="3.285687938332558">
        <ele>523.09000000000003</ele>
        <time>2014-09-06T10:28:36Z</time>
      </trkpt>
      <trkpt lat="39.717559916898608" lon="3.285686261951923">
        <ele>523.58000000000004</ele>
        <time>2014-09-06T10:28:47Z</time>
      </trkpt>
      <trkpt lat="39.717559916898608" lon="3.285686261951923">
        <ele>523.09000000000003</ele>
        <time>2014-09-06T10:29:03Z</time>
      </trkpt>
      <trkpt lat="39.717559665441513" lon="3.28568659722805">
        <ele>522.13</ele>
        <time>2014-09-06T10:29:30Z</time>
      </trkpt>
      <trkpt lat="39.717559665441513" lon="3.28568659722805">
        <ele>522.13</ele>
        <time>2014-09-06T10:29:55Z</time>
      </trkpt>
      <trkpt lat="39.71756050363183" lon="3.285686178132892">
        <ele>522.61000000000001</ele>
        <time>2014-09-06T10:30:19Z</time>
      </trkpt>
      <trkpt lat="39.717560755088925" lon="3.285686010494828">
        <ele>522.61000000000001</ele>
        <time>2014-09-06T10:30:50Z</time>
      </trkpt>
      <trkpt lat="39.717562180012465" lon="3.285684837028384">
        <ele>523.09000000000003</ele>
        <time>2014-09-06T10:31:21Z</time>
      </trkpt>
      <trkpt lat="39.717562180012465" lon="3.285684837028384">
        <ele>523.09000000000003</ele>
        <time>2014-09-06T10:31:49Z</time>
      </trkpt>
      <trkpt lat="39.71756243146956" lon="3.285684501752257">
        <ele>522.61000000000001</ele>
        <time>2014-09-06T10:32:17Z</time>
      </trkpt>
      <trkpt lat="39.717562850564718" lon="3.285683998838067">
        <ele>523.09000000000003</ele>
        <time>2014-09-06T10:32:42Z</time>
      </trkpt>
      <trkpt lat="39.717562850564718" lon="3.285683998838067">
        <ele>523.58000000000004</ele>
        <time>2014-09-06T10:33:10Z</time>
      </trkpt>
      <trkpt lat="39.717562263831496" lon="3.285684166476131">
        <ele>523.58000000000004</ele>
        <time>2014-09-06T10:33:37Z</time>
      </trkpt>
      <trkpt lat="39.71756243146956" lon="3.285684082657099">
        <ele>523.58000000000004</ele>
        <time>2014-09-06T10:34:08Z</time>
      </trkpt>
      <trkpt lat="39.71756243146956" lon="3.285684082657099">
        <ele>523.58000000000004</ele>
        <time>2014-09-06T10:34:34Z</time>
      </trkpt>
      <trkpt lat="39.717562850564718" lon="3.28568265773356">
        <ele>523.58000000000004</ele>
        <time>2014-09-06T10:35:03Z</time>
      </trkpt>
      <trkpt lat="39.717563521116972" lon="3.285681819543243">
        <ele>524.05999999999995</ele>
        <time>2014-09-06T10:35:31Z</time>
      </trkpt>
      <trkpt lat="39.717563521116972" lon="3.285681819543243">
        <ele>523.58000000000004</ele>
        <time>2014-09-06T10:35:55Z</time>
      </trkpt>
      <trkpt lat="39.71756293438375" lon="3.285678802058101">
        <ele>524.05999999999995</ele>
        <time>2014-09-06T10:36:19Z</time>
      </trkpt>
      <trkpt lat="39.717566287145019" lon="3.285678634420037">
        <ele>524.05999999999995</ele>
        <time>2014-09-06T10:36:48Z</time>
      </trkpt>
      <trkpt lat="39.717567041516304" lon="3.285677628591657">
        <ele>524.05999999999995</ele>
        <time>2014-09-06T10:37:18Z</time>
      </trkpt>
      <trkpt lat="39.717567041516304" lon="3.285677628591657">
        <ele>524.05999999999995</ele>
        <time>2014-09-06T10:37:47Z</time>
      </trkpt>
      <trkpt lat="39.717567544430494" lon="3.285677125677466">
        <ele>524.05999999999995</ele>
        <time>2014-09-06T10:38:20Z</time>
      </trkpt>
      <trkpt lat="39.717568382620811" lon="3.285676036030054">
        <ele>524.05999999999995</ele>
        <time>2014-09-06T10:38:52Z</time>
      </trkpt>
      <trkpt lat="39.717569053173065" lon="3.285674946382642">
        <ele>524.53999999999996</ele>
        <time>2014-09-06T10:39:21Z</time>
      </trkpt>
      <trkpt lat="39.717569053173065" lon="3.285674946382642">
        <ele>524.53999999999996</ele>
        <time>2014-09-06T10:39:44Z</time>
      </trkpt>
      <trkpt lat="39.717566706240177" lon="3.285678466781974">
        <ele>524.53999999999996</ele>
        <time>2014-09-06T10:40:09Z</time>
      </trkpt>
      <trkpt lat="39.717566454783082" lon="3.285676287487149">
        <ele>524.53999999999996</ele>
        <time>2014-09-06T10:40:46Z</time>
      </trkpt>
      <trkpt lat="39.717566454783082" lon="3.285676287487149">
        <ele>524.05999999999995</ele>
        <time>2014-09-06T10:41:13Z</time>
      </trkpt>
      <trkpt lat="39.717565784230828" lon="3.285674527287483">
        <ele>524.53999999999996</ele>
        <time>2014-09-06T10:41:39Z</time>
      </trkpt>
      <trkpt lat="39.717562180012465" lon="3.285667318850756">
        <ele>525.01999999999998</ele>
        <time>2014-09-06T10:42:11Z</time>
      </trkpt>
      <trkpt lat="39.717559413984418" lon="3.285660864785314">
        <ele>525.01999999999998</ele>
        <time>2014-09-06T10:42:43Z</time>
      </trkpt>
      <trkpt lat="39.717559413984418" lon="3.285660864785314">
        <ele>525.01999999999998</ele>
        <time>2014-09-06T10:43:06Z</time>
      </trkpt>
      <trkpt lat="39.717519264668226" lon="3.285634461790323">
        <ele>526.46000000000004</ele>
        <time>2014-09-06T10:43:15Z</time>
      </trkpt>
      <trkpt lat="39.71752043813467" lon="3.285631695762277">
        <ele>525.01999999999998</ele>
        <time>2014-09-06T10:43:20Z</time>
      </trkpt>
      <trkpt lat="39.717508032917976" lon="3.285629600286484">
        <ele>525.98000000000002</ele>
        <time>2014-09-06T10:43:22Z</time>
      </trkpt>
      <trkpt lat="39.717512894421816" lon="3.285635048523545">
        <ele>522.61000000000001</ele>
        <time>2014-09-06T10:43:24Z</time>
      </trkpt>
      <trkpt lat="39.717513229697943" lon="3.285636473447084">
        <ele>522.61000000000001</ele>
        <time>2014-09-06T10:43:25Z</time>
      </trkpt>
      <trkpt lat="39.717513229697943" lon="3.285636473447084">
        <ele>525.98000000000002</ele>
        <time>2014-09-06T10:43:26Z</time>
      </trkpt>
      <trkpt lat="39.717513229697943" lon="3.285636473447084">
        <ele>526.46000000000004</ele>
        <time>2014-09-06T10:43:27Z</time>
      </trkpt>
      <trkpt lat="39.717513229697943" lon="3.285636473447084">
        <ele>524.05999999999995</ele>
        <time>2014-09-06T10:43:30Z</time>
      </trkpt>
      <trkpt lat="39.717513229697943" lon="3.285636473447084">
        <ele>525.01999999999998</ele>
        <time>2014-09-06T10:43:56Z</time>
      </trkpt>
      <trkpt lat="39.717513732612133" lon="3.285646447911859">
        <ele>523.58000000000004</ele>
        <time>2014-09-06T10:44:11Z</time>
      </trkpt>
      <trkpt lat="39.717508954927325" lon="3.285660948604345">
        <ele>525.01999999999998</ele>
        <time>2014-09-06T10:44:29Z</time>
      </trkpt>
      <trkpt lat="39.717494370415807" lon="3.285660529509187">
        <ele>524.53999999999996</ele>
        <time>2014-09-06T10:44:42Z</time>
      </trkpt>
      <trkpt lat="39.717494370415807" lon="3.285660529509187">
        <ele>524.05999999999995</ele>
        <time>2014-09-06T10:45:00Z</time>
      </trkpt>
      <trkpt lat="39.717451455071568" lon="3.285747617483139">
        <ele>523.09000000000003</ele>
        <time>2014-09-06T10:45:11Z</time>
      </trkpt>
      <trkpt lat="39.717443408444524" lon="3.285770583897829">
        <ele>522.13</ele>
        <time>2014-09-06T10:45:15Z</time>
      </trkpt>
      <trkpt lat="39.717418346554041" lon="3.285831855610013">
        <ele>522.61000000000001</ele>
        <time>2014-09-06T10:45:27Z</time>
      </trkpt>
      <trkpt lat="39.717393033206463" lon="3.285902598872781">
        <ele>521.16999999999996</ele>
        <time>2014-09-06T10:45:36Z</time>
      </trkpt>
      <trkpt lat="39.717342490330338" lon="3.285971414297819">
        <ele>518.28999999999996</ele>
        <time>2014-09-06T10:45:47Z</time>
      </trkpt>
      <trkpt lat="39.717290354892612" lon="3.286040313541889">
        <ele>517.33000000000004</ele>
        <time>2014-09-06T10:45:58Z</time>
      </trkpt>
      <trkpt lat="39.717267472296953" lon="3.286096639931202">
        <ele>515.88</ele>
        <time>2014-09-06T10:46:10Z</time>
      </trkpt>
      <trkpt lat="39.717233525589108" lon="3.286151206120849">
        <ele>514.91999999999996</ele>
        <time>2014-09-06T10:46:22Z</time>
      </trkpt>
      <trkpt lat="39.717223802581429" lon="3.28615958802402">
        <ele>516.37</ele>
        <time>2014-09-06T10:46:23Z</time>
      </trkpt>
      <trkpt lat="39.717234699055552" lon="3.286228906363249">
        <ele>511.07999999999998</ele>
        <time>2014-09-06T10:46:32Z</time>
      </trkpt>
      <trkpt lat="39.717234699055552" lon="3.286228906363249">
        <ele>515.39999999999998</ele>
        <time>2014-09-06T10:46:33Z</time>
      </trkpt>
      <trkpt lat="39.717225730419159" lon="3.286250783130527">
        <ele>512.03999999999996</ele>
        <time>2014-09-06T10:46:37Z</time>
      </trkpt>
      <trkpt lat="39.71722966991365" lon="3.28628757968545">
        <ele>513.48000000000002</ele>
        <time>2014-09-06T10:46:54Z</time>
      </trkpt>
      <trkpt lat="39.71722966991365" lon="3.28628757968545">
        <ele>513.48000000000002</ele>
        <time>2014-09-06T10:46:59Z</time>
      </trkpt>
      <trkpt lat="39.717226065695286" lon="3.286325968801975">
        <ele>513</ele>
        <time>2014-09-06T10:47:03Z</time>
      </trkpt>
      <trkpt lat="39.717225646600127" lon="3.286395790055394">
        <ele>512.51999999999998</ele>
        <time>2014-09-06T10:47:11Z</time>
      </trkpt>
      <trkpt lat="39.71718767657876" lon="3.286440465599299">
        <ele>511.07999999999998</ele>
        <time>2014-09-06T10:47:16Z</time>
      </trkpt>
      <trkpt lat="39.717165129259229" lon="3.286484889686108">
        <ele>510.60000000000002</ele>
        <time>2014-09-06T10:47:20Z</time>
      </trkpt>
      <trkpt lat="39.717163201421499" lon="3.286505592986941">
        <ele>510.60000000000002</ele>
        <time>2014-09-06T10:47:22Z</time>
      </trkpt>
      <trkpt lat="39.717159178107977" lon="3.286531157791615">
        <ele>512.03999999999996</ele>
        <time>2014-09-06T10:47:25Z</time>
      </trkpt>
      <trkpt lat="39.717157837003469" lon="3.286609780043364">
        <ele>509.16000000000003</ele>
        <time>2014-09-06T10:47:34Z</time>
      </trkpt>
      <trkpt lat="39.717154148966074" lon="3.28662721440196">
        <ele>510.60000000000002</ele>
        <time>2014-09-06T10:47:36Z</time>
      </trkpt>
      <trkpt lat="39.717151802033186" lon="3.286653198301792">
        <ele>509.63999999999999</ele>
        <time>2014-09-06T10:47:38Z</time>
      </trkpt>
      <trkpt lat="39.717134786769748" lon="3.286754200235009">
        <ele>509.63999999999999</ele>
        <time>2014-09-06T10:47:52Z</time>
      </trkpt>
      <trkpt lat="39.717138977721334" lon="3.28679527156055">
        <ele>507.70999999999998</ele>
        <time>2014-09-06T10:47:55Z</time>
      </trkpt>
      <trkpt lat="39.717133697122335" lon="3.286803234368563">
        <ele>504.82999999999998</ele>
        <time>2014-09-06T10:47:58Z</time>
      </trkpt>
      <trkpt lat="39.717106288298965" lon="3.286869032308459">
        <ele>504.82999999999998</ele>
        <time>2014-09-06T10:48:08Z</time>
      </trkpt>
      <trkpt lat="39.717105869203806" lon="3.286900967359543">
        <ele>506.26999999999998</ele>
        <time>2014-09-06T10:48:11Z</time>
      </trkpt>
      <trkpt lat="39.717088937759399" lon="3.286953521892428">
        <ele>505.31</ele>
        <time>2014-09-06T10:48:15Z</time>
      </trkpt>
      <trkpt lat="39.717055661603808" lon="3.287031976506114">
        <ele>505.31</ele>
        <time>2014-09-06T10:48:25Z</time>
      </trkpt>
      <trkpt lat="39.717050464823842" lon="3.287058966234326">
        <ele>503.87</ele>
        <time>2014-09-06T10:48:28Z</time>
      </trkpt>
      <trkpt lat="39.717044765129685" lon="3.287069192156196">
        <ele>504.35000000000002</ele>
        <time>2014-09-06T10:48:29Z</time>
      </trkpt>
      <trkpt lat="39.717029761523008" lon="3.287100456655026">
        <ele>503.87</ele>
        <time>2014-09-06T10:48:32Z</time>
      </trkpt>
      <trkpt lat="39.717010399326682" lon="3.287169942632318">
        <ele>503.38999999999999</ele>
        <time>2014-09-06T10:48:36Z</time>
      </trkpt>
      <trkpt lat="39.716938566416502" lon="3.287216294556856">
        <ele>504.82999999999998</ele>
        <time>2014-09-06T10:48:48Z</time>
      </trkpt>
      <trkpt lat="39.716924484819174" lon="3.287190813571215">
        <ele>508.19</ele>
        <time>2014-09-06T10:49:00Z</time>
      </trkpt>
      <trkpt lat="39.716922556981444" lon="3.287193328142166">
        <ele>507.70999999999998</ele>
        <time>2014-09-06T10:49:01Z</time>
      </trkpt>
      <trkpt lat="39.716924484819174" lon="3.287190813571215">
        <ele>506.26999999999998</ele>
        <time>2014-09-06T10:49:04Z</time>
      </trkpt>
      <trkpt lat="39.716924484819174" lon="3.287190813571215">
        <ele>506.75</ele>
        <time>2014-09-06T10:49:08Z</time>
      </trkpt>
      <trkpt lat="39.716956168413162" lon="3.287206487730146">
        <ele>503.87</ele>
        <time>2014-09-06T10:49:22Z</time>
      </trkpt>
      <trkpt lat="39.716983241960406" lon="3.287225598469377">
        <ele>503.87</ele>
        <time>2014-09-06T10:49:26Z</time>
      </trkpt>
      <trkpt lat="39.716984331607819" lon="3.287252672016621">
        <ele>502.91000000000003</ele>
        <time>2014-09-06T10:49:28Z</time>
      </trkpt>
      <trkpt lat="39.716992294415832" lon="3.287306819111109">
        <ele>504.82999999999998</ele>
        <time>2014-09-06T10:49:34Z</time>
      </trkpt>
      <trkpt lat="39.716963712126017" lon="3.287413017824292">
        <ele>502.91000000000003</ele>
        <time>2014-09-06T10:49:46Z</time>
      </trkpt>
      <trkpt lat="39.716948959976435" lon="3.287417544052005">
        <ele>502.91000000000003</ele>
        <time>2014-09-06T10:49:48Z</time>
      </trkpt>
      <trkpt lat="39.71687788143754" lon="3.28748325817287">
        <ele>504.35000000000002</ele>
        <time>2014-09-06T10:49:59Z</time>
      </trkpt>
      <trkpt lat="39.716854747384787" lon="3.287525586783886">
        <ele>503.87</ele>
        <time>2014-09-06T10:50:09Z</time>
      </trkpt>
      <trkpt lat="39.716856926679611" lon="3.287529442459345">
        <ele>504.35000000000002</ele>
        <time>2014-09-06T10:50:17Z</time>
      </trkpt>
      <trkpt lat="39.716842258349061" lon="3.287576716393232">
        <ele>503.87</ele>
        <time>2014-09-06T10:50:22Z</time>
      </trkpt>
      <trkpt lat="39.716814681887627" lon="3.287635054439306">
        <ele>502.91000000000003</ele>
        <time>2014-09-06T10:50:27Z</time>
      </trkpt>
      <trkpt lat="39.716779310256243" lon="3.287683753296733">
        <ele>502.91000000000003</ele>
        <time>2014-09-06T10:50:30Z</time>
      </trkpt>
      <trkpt lat="39.716698089614511" lon="3.28770705498755">
        <ele>504.35000000000002</ele>
        <time>2014-09-06T10:50:38Z</time>
      </trkpt>
      <trkpt lat="39.716694988310337" lon="3.287724321708083">
        <ele>504.35000000000002</ele>
        <time>2014-09-06T10:50:42Z</time>
      </trkpt>
      <trkpt lat="39.716679062694311" lon="3.287761118263006">
        <ele>503.87</ele>
        <time>2014-09-06T10:50:45Z</time>
      </trkpt>
      <trkpt lat="39.716620724648237" lon="3.287808811292052">
        <ele>504.82999999999998</ele>
        <time>2014-09-06T10:50:52Z</time>
      </trkpt>
      <trkpt lat="39.716598177328706" lon="3.287808895111084">
        <ele>506.75</ele>
        <time>2014-09-06T10:50:56Z</time>
      </trkpt>
      <trkpt lat="39.716552495956421" lon="3.287850134074688">
        <ele>507.23000000000002</ele>
        <time>2014-09-06T10:51:05Z</time>
      </trkpt>
      <trkpt lat="39.71653925254941" lon="3.287871843203902">
        <ele>507.70999999999998</ele>
        <time>2014-09-06T10:51:07Z</time>
      </trkpt>
      <trkpt lat="39.716512933373451" lon="3.287902353331447">
        <ele>508.19</ele>
        <time>2014-09-06T10:51:10Z</time>
      </trkpt>
      <trkpt lat="39.716468760743737" lon="3.288001343607903">
        <ele>505.31</ele>
        <time>2014-09-06T10:51:19Z</time>
      </trkpt>
      <trkpt lat="39.716440262272954" lon="3.288034619763494">
        <ele>506.26999999999998</ele>
        <time>2014-09-06T10:51:22Z</time>
      </trkpt>
      <trkpt lat="39.716412769630551" lon="3.28811114653945">
        <ele>505.31</ele>
        <time>2014-09-06T10:51:31Z</time>
      </trkpt>
      <trkpt lat="39.716345714405179" lon="3.288188679143786">
        <ele>505.31</ele>
        <time>2014-09-06T10:51:44Z</time>
      </trkpt>
      <trkpt lat="39.716338757425547" lon="3.288193624466658">
        <ele>505.79000000000002</ele>
        <time>2014-09-06T10:51:45Z</time>
      </trkpt>
      <trkpt lat="39.716311935335398" lon="3.288206364959478">
        <ele>505.31</ele>
        <time>2014-09-06T10:51:47Z</time>
      </trkpt>
      <trkpt lat="39.716291148215532" lon="3.288243496790528">
        <ele>507.23000000000002</ele>
        <time>2014-09-06T10:51:58Z</time>
      </trkpt>
      <trkpt lat="39.716258039698005" lon="3.288256991654635">
        <ele>507.70999999999998</ele>
        <time>2014-09-06T10:52:03Z</time>
      </trkpt>
      <trkpt lat="39.716222668066621" lon="3.288267720490694">
        <ele>507.23000000000002</ele>
        <time>2014-09-06T10:52:06Z</time>
      </trkpt>
      <trkpt lat="39.716199198737741" lon="3.288273336365819">
        <ele>507.23000000000002</ele>
        <time>2014-09-06T10:52:09Z</time>
      </trkpt>
      <trkpt lat="39.716129209846258" lon="3.288296554237604">
        <ele>509.16000000000003</ele>
        <time>2014-09-06T10:52:19Z</time>
      </trkpt>
      <trkpt lat="39.716096352785826" lon="3.288305606693029">
        <ele>510.12</ele>
        <time>2014-09-06T10:52:22Z</time>
      </trkpt>
      <trkpt lat="39.716031225398183" lon="3.288310468196869">
        <ele>511.07999999999998</ele>
        <time>2014-09-06T10:52:29Z</time>
      </trkpt>
      <trkpt lat="39.715970875695348" lon="3.288349024951458">
        <ele>512.03999999999996</ele>
        <time>2014-09-06T10:52:40Z</time>
      </trkpt>
      <trkpt lat="39.71596559509635" lon="3.28835304826498">
        <ele>512.51999999999998</ele>
        <time>2014-09-06T10:52:59Z</time>
      </trkpt>
      <trkpt lat="39.715958554297686" lon="3.288346426561475">
        <ele>512.03999999999996</ele>
        <time>2014-09-06T10:53:12Z</time>
      </trkpt>
      <trkpt lat="39.715938856825233" lon="3.288327986374497">
        <ele>513</ele>
        <time>2014-09-06T10:53:15Z</time>
      </trkpt>
      <trkpt lat="39.715916896238923" lon="3.288316922262311">
        <ele>514.44000000000005</ele>
        <time>2014-09-06T10:53:19Z</time>
      </trkpt>
      <trkpt lat="39.715914465487003" lon="3.288316084071994">
        <ele>515.39999999999998</ele>
        <time>2014-09-06T10:53:21Z</time>
      </trkpt>
      <trkpt lat="39.71593240275979" lon="3.288318011909723">
        <ele>515.39999999999998</ele>
        <time>2014-09-06T10:53:23Z</time>
      </trkpt>
      <trkpt lat="39.715876746922731" lon="3.288314826786518">
        <ele>515.88</ele>
        <time>2014-09-06T10:53:28Z</time>
      </trkpt>
      <trkpt lat="39.715862832963467" lon="3.288313988596201">
        <ele>516.37</ele>
        <time>2014-09-06T10:53:31Z</time>
      </trkpt>
      <trkpt lat="39.715850427746773" lon="3.288301667198539">
        <ele>517.80999999999995</ele>
        <time>2014-09-06T10:53:37Z</time>
      </trkpt>
      <trkpt lat="39.715812122449279" lon="3.288303259760141">
        <ele>518.76999999999998</ele>
        <time>2014-09-06T10:53:43Z</time>
      </trkpt>
      <trkpt lat="39.715786390006542" lon="3.288317257538438">
        <ele>519.25</ele>
        <time>2014-09-06T10:53:46Z</time>
      </trkpt>
      <trkpt lat="39.715766608715057" lon="3.288332428783178">
        <ele>519.25</ele>
        <time>2014-09-06T10:53:49Z</time>
      </trkpt>
      <trkpt lat="39.715756298974156" lon="3.28835011459887">
        <ele>519.25</ele>
        <time>2014-09-06T10:53:52Z</time>
      </trkpt>
      <trkpt lat="39.71574816852808" lon="3.288335697725415">
        <ele>521.64999999999998</ele>
        <time>2014-09-06T10:53:57Z</time>
      </trkpt>
      <trkpt lat="39.715747497975826" lon="3.288336452096701">
        <ele>518.28999999999996</ele>
        <time>2014-09-06T10:54:00Z</time>
      </trkpt>
      <trkpt lat="39.715753700584173" lon="3.288348354399204">
        <ele>519.73000000000002</ele>
        <time>2014-09-06T10:54:08Z</time>
      </trkpt>
      <trkpt lat="39.715753281489015" lon="3.288396801799536">
        <ele>518.28999999999996</ele>
        <time>2014-09-06T10:54:12Z</time>
      </trkpt>
      <trkpt lat="39.715737188234925" lon="3.288441225886345">
        <ele>515.88</ele>
        <time>2014-09-06T10:54:15Z</time>
      </trkpt>
      <trkpt lat="39.715728051960468" lon="3.288451954722405">
        <ele>517.33000000000004</ele>
        <time>2014-09-06T10:54:16Z</time>
      </trkpt>
      <trkpt lat="39.715715562924743" lon="3.288476513698697">
        <ele>517.80999999999995</ele>
        <time>2014-09-06T10:54:18Z</time>
      </trkpt>
      <trkpt lat="39.715702822431922" lon="3.288503838703036">
        <ele>525.5</ele>
        <time>2014-09-06T10:54:21Z</time>
      </trkpt>
      <trkpt lat="39.715703660622239" lon="3.288511633872986">
        <ele>517.80999999999995</ele>
        <time>2014-09-06T10:54:22Z</time>
      </trkpt>
      <trkpt lat="39.71569444052875" lon="3.288550274446607">
        <ele>521.16999999999996</ele>
        <time>2014-09-06T10:54:30Z</time>
      </trkpt>
      <trkpt lat="39.715687232092023" lon="3.288553291931748">
        <ele>517.33000000000004</ele>
        <time>2014-09-06T10:54:31Z</time>
      </trkpt>
      <trkpt lat="39.715687064453959" lon="3.288562092930079">
        <ele>521.16999999999996</ele>
        <time>2014-09-06T10:54:32Z</time>
      </trkpt>
      <trkpt lat="39.715692177414894" lon="3.288606600835919">
        <ele>517.33000000000004</ele>
        <time>2014-09-06T10:54:38Z</time>
      </trkpt>
      <trkpt lat="39.715677928179502" lon="3.288610372692347">
        <ele>516.85000000000002</ele>
        <time>2014-09-06T10:54:40Z</time>
      </trkpt>
      <trkpt lat="39.715638449415565" lon="3.288693269714713">
        <ele>518.28999999999996</ele>
        <time>2014-09-06T10:54:46Z</time>
      </trkpt>
      <trkpt lat="39.715631576254964" lon="3.288719588890672">
        <ele>512.51999999999998</ele>
        <time>2014-09-06T10:54:55Z</time>
      </trkpt>
      <trkpt lat="39.715624032542109" lon="3.288728222250938">
        <ele>520.21000000000004</ele>
        <time>2014-09-06T10:54:56Z</time>
      </trkpt>
      <trkpt lat="39.715593857690692" lon="3.288767617195845">
        <ele>519.25</ele>
        <time>2014-09-06T10:54:59Z</time>
      </trkpt>
      <trkpt lat="39.715560413897038" lon="3.288788991048932">
        <ele>516.85000000000002</ele>
        <time>2014-09-06T10:55:02Z</time>
      </trkpt>
      <trkpt lat="39.715542308986187" lon="3.288799216970801">
        <ele>525.98000000000002</ele>
        <time>2014-09-06T10:55:04Z</time>
      </trkpt>
      <trkpt lat="39.715531077235937" lon="3.288808185607195">
        <ele>520.21000000000004</ele>
        <time>2014-09-06T10:55:05Z</time>
      </trkpt>
      <trkpt lat="39.715510373935103" lon="3.288799049332738">
        <ele>516.85000000000002</ele>
        <time>2014-09-06T10:55:07Z</time>
      </trkpt>
      <trkpt lat="39.715503333136439" lon="3.288803156465292">
        <ele>520.69000000000005</ele>
        <time>2014-09-06T10:55:08Z</time>
      </trkpt>
      <trkpt lat="39.715465782210231" lon="3.288792846724391">
        <ele>517.80999999999995</ele>
        <time>2014-09-06T10:55:12Z</time>
      </trkpt>
      <trkpt lat="39.715455556288362" lon="3.288787230849266">
        <ele>522.61000000000001</ele>
        <time>2014-09-06T10:55:13Z</time>
      </trkpt>
      <trkpt lat="39.715443151071668" lon="3.288780944421887">
        <ele>520.69000000000005</ele>
        <time>2014-09-06T10:55:14Z</time>
      </trkpt>
      <trkpt lat="39.715414484962821" lon="3.288765354081988">
        <ele>520.69000000000005</ele>
        <time>2014-09-06T10:55:17Z</time>
      </trkpt>
      <trkpt lat="39.71538171172142" lon="3.288766946643591">
        <ele>522.61000000000001</ele>
        <time>2014-09-06T10:55:21Z</time>
      </trkpt>
      <trkpt lat="39.715366875752807" lon="3.288753116503358">
        <ele>522.13</ele>
        <time>2014-09-06T10:55:35Z</time>
      </trkpt>
      <trkpt lat="39.715366875752807" lon="3.288753116503358">
        <ele>518.28999999999996</ele>
        <time>2014-09-06T10:55:42Z</time>
      </trkpt>
      <trkpt lat="39.715363187715411" lon="3.288761498406529">
        <ele>523.09000000000003</ele>
        <time>2014-09-06T10:55:43Z</time>
      </trkpt>
      <trkpt lat="39.71536167897284" lon="3.288764599710703">
        <ele>520.21000000000004</ele>
        <time>2014-09-06T10:55:44Z</time>
      </trkpt>
      <trkpt lat="39.71536167897284" lon="3.288764599710703">
        <ele>515.88</ele>
        <time>2014-09-06T10:55:51Z</time>
      </trkpt>
      <trkpt lat="39.71536167897284" lon="3.288764599710703">
        <ele>525.5</ele>
        <time>2014-09-06T10:55:52Z</time>
      </trkpt>
      <trkpt lat="39.715364025905728" lon="3.288764348253608">
        <ele>518.76999999999998</ele>
        <time>2014-09-06T10:55:53Z</time>
      </trkpt>
      <trkpt lat="39.71536167897284" lon="3.288764599710703">
        <ele>520.69000000000005</ele>
        <time>2014-09-06T10:56:15Z</time>
      </trkpt>
      <trkpt lat="39.715370815247297" lon="3.288759905844927">
        <ele>517.33000000000004</ele>
        <time>2014-09-06T10:56:19Z</time>
      </trkpt>
      <trkpt lat="39.715373329818249" lon="3.288757307454944">
        <ele>521.16999999999996</ele>
        <time>2014-09-06T10:56:20Z</time>
      </trkpt>
      <trkpt lat="39.715367127209902" lon="3.288764515891671">
        <ele>520.21000000000004</ele>
        <time>2014-09-06T10:56:28Z</time>
      </trkpt>
      <trkpt lat="39.715363942086697" lon="3.288766276091337">
        <ele>516.85000000000002</ele>
        <time>2014-09-06T10:56:31Z</time>
      </trkpt>
      <trkpt lat="39.715366456657648" lon="3.288764515891671">
        <ele>519.73000000000002</ele>
        <time>2014-09-06T10:56:33Z</time>
      </trkpt>
      <trkpt lat="39.715366456657648" lon="3.288764515891671">
        <ele>524.53999999999996</ele>
        <time>2014-09-06T10:56:40Z</time>
      </trkpt>
      <trkpt lat="39.715366456657648" lon="3.288764515891671">
        <ele>522.61000000000001</ele>
        <time>2014-09-06T10:56:41Z</time>
      </trkpt>
      <trkpt lat="39.71536167897284" lon="3.288759151473641">
        <ele>521.64999999999998</ele>
        <time>2014-09-06T10:56:43Z</time>
      </trkpt>
      <trkpt lat="39.715366456657648" lon="3.288764515891671">
        <ele>517.80999999999995</ele>
        <time>2014-09-06T10:56:49Z</time>
      </trkpt>
      <trkpt lat="39.715366456657648" lon="3.288764515891671">
        <ele>522.13</ele>
        <time>2014-09-06T10:56:50Z</time>
      </trkpt>
      <trkpt lat="39.715375676751137" lon="3.288757558912039">
        <ele>518.76999999999998</ele>
        <time>2014-09-06T10:56:51Z</time>
      </trkpt>
      <trkpt lat="39.715383052825928" lon="3.288746913895011">
        <ele>524.05999999999995</ele>
        <time>2014-09-06T10:56:52Z</time>
      </trkpt>
      <trkpt lat="39.715410294011235" lon="3.288753787055612">
        <ele>520.69000000000005</ele>
        <time>2014-09-06T10:56:55Z</time>
      </trkpt>
      <trkpt lat="39.715415490791202" lon="3.288756385445595">
        <ele>521.16999999999996</ele>
        <time>2014-09-06T10:56:56Z</time>
      </trkpt>
      <trkpt lat="39.715444911271334" lon="3.288786308839917">
        <ele>521.16999999999996</ele>
        <time>2014-09-06T10:57:01Z</time>
      </trkpt>
      <trkpt lat="39.715442899614573" lon="3.288783794268966">
        <ele>519.73000000000002</ele>
        <time>2014-09-06T10:57:10Z</time>
      </trkpt>
      <trkpt lat="39.715464189648628" lon="3.288861829787493">
        <ele>519.25</ele>
        <time>2014-09-06T10:57:16Z</time>
      </trkpt>
      <trkpt lat="39.715462932363153" lon="3.288888148963451">
        <ele>518.28999999999996</ele>
        <time>2014-09-06T10:57:18Z</time>
      </trkpt>
      <trkpt lat="39.715459747239947" lon="3.288899380713701">
        <ele>519.25</ele>
        <time>2014-09-06T10:57:19Z</time>
      </trkpt>
      <trkpt lat="39.715447928756475" lon="3.288924777880311">
        <ele>518.76999999999998</ele>
        <time>2014-09-06T10:57:21Z</time>
      </trkpt>
      <trkpt lat="39.715447761118412" lon="3.288948331028223">
        <ele>517.33000000000004</ele>
        <time>2014-09-06T10:57:23Z</time>
      </trkpt>
      <trkpt lat="39.715447844937444" lon="3.288961574435234">
        <ele>519.73000000000002</ele>
        <time>2014-09-06T10:57:24Z</time>
      </trkpt>
      <trkpt lat="39.715438205748796" lon="3.289006166160107">
        <ele>518.28999999999996</ele>
        <time>2014-09-06T10:57:27Z</time>
      </trkpt>
      <trkpt lat="39.715444073081017" lon="3.289035335183144">
        <ele>519.25</ele>
        <time>2014-09-06T10:57:29Z</time>
      </trkpt>
      <trkpt lat="39.715445749461651" lon="3.289046315476298">
        <ele>515.39999999999998</ele>
        <time>2014-09-06T10:57:30Z</time>
      </trkpt>
      <trkpt lat="39.715442229062319" lon="3.289051679894328">
        <ele>518.76999999999998</ele>
        <time>2014-09-06T10:57:31Z</time>
      </trkpt>
      <trkpt lat="39.715434852987528" lon="3.289063330739737">
        <ele>518.28999999999996</ele>
        <time>2014-09-06T10:57:33Z</time>
      </trkpt>
      <trkpt lat="39.715436277911067" lon="3.289115047082305">
        <ele>516.37</ele>
        <time>2014-09-06T10:57:39Z</time>
      </trkpt>
      <trkpt lat="39.715431248769164" lon="3.289152681827545">
        <ele>517.33000000000004</ele>
        <time>2014-09-06T10:57:43Z</time>
      </trkpt>
      <trkpt lat="39.715450778603554" lon="3.289300622418523">
        <ele>515.39999999999998</ele>
        <time>2014-09-06T10:57:51Z</time>
      </trkpt>
      <trkpt lat="39.71546184271574" lon="3.289322666823864">
        <ele>515.39999999999998</ele>
        <time>2014-09-06T10:57:55Z</time>
      </trkpt>
      <trkpt lat="39.715456981211901" lon="3.289370276033878">
        <ele>514.44000000000005</ele>
        <time>2014-09-06T10:57:58Z</time>
      </trkpt>
      <trkpt lat="39.715467961505055" lon="3.289396846666932">
        <ele>513.96000000000004</ele>
        <time>2014-09-06T10:58:00Z</time>
      </trkpt>
      <trkpt lat="39.71550777554512" lon="3.289587115868926">
        <ele>513</ele>
        <time>2014-09-06T10:58:11Z</time>
      </trkpt>
      <trkpt lat="39.715509871020913" lon="3.289593318477273">
        <ele>512.51999999999998</ele>
        <time>2014-09-06T10:58:12Z</time>
      </trkpt>
      <trkpt lat="39.715542560443282" lon="3.289695996791124">
        <ele>511.56</ele>
        <time>2014-09-06T10:58:21Z</time>
      </trkpt>
      <trkpt lat="39.715545242652297" lon="3.289734553545713">
        <ele>511.56</ele>
        <time>2014-09-06T10:58:24Z</time>
      </trkpt>
      <trkpt lat="39.715576088055968" lon="3.28978861682117">
        <ele>511.56</ele>
        <time>2014-09-06T10:58:29Z</time>
      </trkpt>
      <trkpt lat="39.715568460524082" lon="3.289903113618493">
        <ele>511.56</ele>
        <time>2014-09-06T10:58:37Z</time>
      </trkpt>
      <trkpt lat="39.715567538514733" lon="3.289916608482599">
        <ele>512.03999999999996</ele>
        <time>2014-09-06T10:58:39Z</time>
      </trkpt>
      <trkpt lat="39.715557396411896" lon="3.289953572675586">
        <ele>511.07999999999998</ele>
        <time>2014-09-06T10:58:43Z</time>
      </trkpt>
      <trkpt lat="39.715580614283681" lon="3.290007384493947">
        <ele>511.07999999999998</ele>
        <time>2014-09-06T10:58:48Z</time>
      </trkpt>
      <trkpt lat="39.715632917359471" lon="3.290063291788101">
        <ele>511.56</ele>
        <time>2014-09-06T10:58:54Z</time>
      </trkpt>
      <trkpt lat="39.715678011998534" lon="3.290141662582755">
        <ele>510.60000000000002</ele>
        <time>2014-09-06T10:59:01Z</time>
      </trkpt>
      <trkpt lat="39.715698882937431" lon="3.290201425552368">
        <ele>509.63999999999999</ele>
        <time>2014-09-06T10:59:05Z</time>
      </trkpt>
      <trkpt lat="39.715705253183842" lon="3.290265463292599">
        <ele>508.19</ele>
        <time>2014-09-06T10:59:11Z</time>
      </trkpt>
      <trkpt lat="39.715759316459298" lon="3.290383983403444">
        <ele>506.26999999999998</ele>
        <time>2014-09-06T10:59:19Z</time>
      </trkpt>
      <trkpt lat="39.71576333977282" lon="3.290394209325314">
        <ele>506.26999999999998</ele>
        <time>2014-09-06T10:59:23Z</time>
      </trkpt>
      <trkpt lat="39.715847158804536" lon="3.290476351976395">
        <ele>505.79000000000002</ele>
        <time>2014-09-06T10:59:30Z</time>
      </trkpt>
      <trkpt lat="39.715879345312715" lon="3.290524380281568">
        <ele>504.82999999999998</ele>
        <time>2014-09-06T10:59:34Z</time>
      </trkpt>
      <trkpt lat="39.715900886803865" lon="3.290555309504271">
        <ele>504.35000000000002</ele>
        <time>2014-09-06T10:59:36Z</time>
      </trkpt>
      <trkpt lat="39.715997027233243" lon="3.290711799636483">
        <ele>502.91000000000003</ele>
        <time>2014-09-06T10:59:46Z</time>
      </trkpt>
      <trkpt lat="39.716051844879985" lon="3.290782375261188">
        <ele>501.94999999999999</ele>
        <time>2014-09-06T10:59:54Z</time>
      </trkpt>
      <trkpt lat="39.716091323643923" lon="3.29084406606853">
        <ele>500.5</ele>
        <time>2014-09-06T10:59:58Z</time>
      </trkpt>
      <trkpt lat="39.716101381927729" lon="3.290854124352336">
        <ele>500.01999999999998</ele>
        <time>2014-09-06T11:00:02Z</time>
      </trkpt>
      <trkpt lat="39.716159887611866" lon="3.290899805724621">
        <ele>498.57999999999998</ele>
        <time>2014-09-06T11:00:10Z</time>
      </trkpt>
      <trkpt lat="39.716140609234571" lon="3.290990414097905">
        <ele>497.62</ele>
        <time>2014-09-06T11:00:17Z</time>
      </trkpt>
      <trkpt lat="39.716200456023216" lon="3.291119914501905">
        <ele>495.22000000000003</ele>
        <time>2014-09-06T11:00:28Z</time>
      </trkpt>
      <trkpt lat="39.716204311698675" lon="3.291122764348984">
        <ele>494.74000000000001</ele>
        <time>2014-09-06T11:00:30Z</time>
      </trkpt>
      <trkpt lat="39.716239012777805" lon="3.291164170950651">
        <ele>492.81</ele>
        <time>2014-09-06T11:00:34Z</time>
      </trkpt>
      <trkpt lat="39.716267259791493" lon="3.291206834837794">
        <ele>491.85000000000002</ele>
        <time>2014-09-06T11:00:40Z</time>
      </trkpt>
      <trkpt lat="39.716297937557101" lon="3.291262574493885">
        <ele>490.88999999999999</ele>
        <time>2014-09-06T11:00:47Z</time>
      </trkpt>
      <trkpt lat="39.716356778517365" lon="3.291332144290209">
        <ele>488.00999999999999</ele>
        <time>2014-09-06T11:00:55Z</time>
      </trkpt>
      <trkpt lat="39.716392736881971" lon="3.291396433487535">
        <ele>486.07999999999998</ele>
        <time>2014-09-06T11:01:03Z</time>
      </trkpt>
      <trkpt lat="39.716405896469951" lon="3.291436247527599">
        <ele>486.07999999999998</ele>
        <time>2014-09-06T11:01:06Z</time>
      </trkpt>
      <trkpt lat="39.716421402990818" lon="3.29150271601975">
        <ele>484.16000000000003</ele>
        <time>2014-09-06T11:01:13Z</time>
      </trkpt>
      <trkpt lat="39.716441854834557" lon="3.291590893641114">
        <ele>483.19999999999999</ele>
        <time>2014-09-06T11:01:21Z</time>
      </trkpt>
      <trkpt lat="39.716441854834557" lon="3.291590893641114">
        <ele>483.19999999999999</ele>
        <time>2014-09-06T11:01:22Z</time>
      </trkpt>
      <trkpt lat="39.716480663046241" lon="3.291625678539276">
        <ele>481.75999999999999</ele>
        <time>2014-09-06T11:01:28Z</time>
      </trkpt>
      <trkpt lat="39.716498097404838" lon="3.291657445952296">
        <ele>479.35000000000002</ele>
        <time>2014-09-06T11:01:33Z</time>
      </trkpt>
      <trkpt lat="39.716517543420196" lon="3.291717376559973">
        <ele>476.47000000000003</ele>
        <time>2014-09-06T11:01:42Z</time>
      </trkpt>
      <trkpt lat="39.716547382995486" lon="3.291794322431088">
        <ele>475.50999999999999</ele>
        <time>2014-09-06T11:01:55Z</time>
      </trkpt>
      <trkpt lat="39.716551406309009" lon="3.291805386543274">
        <ele>474.55000000000001</ele>
        <time>2014-09-06T11:02:05Z</time>
      </trkpt>
      <trkpt lat="39.716612258926034" lon="3.291958775371313">
        <ele>471.66000000000003</ele>
        <time>2014-09-06T11:02:18Z</time>
      </trkpt>
      <trkpt lat="39.716610414907336" lon="3.291970510035753">
        <ele>471.66000000000003</ele>
        <time>2014-09-06T11:02:19Z</time>
      </trkpt>
      <trkpt lat="39.716640003025532" lon="3.292089700698853">
        <ele>468.77999999999997</ele>
        <time>2014-09-06T11:02:32Z</time>
      </trkpt>
      <trkpt lat="39.716641595587134" lon="3.292100597172976">
        <ele>467.81999999999999</ele>
        <time>2014-09-06T11:02:33Z</time>
      </trkpt>
      <trkpt lat="39.71666481345892" lon="3.292186511680484">
        <ele>466.38</ele>
        <time>2014-09-06T11:02:39Z</time>
      </trkpt>
      <trkpt lat="39.716671267524362" lon="3.292197911068797">
        <ele>465.89999999999998</ele>
        <time>2014-09-06T11:02:41Z</time>
      </trkpt>
      <trkpt lat="39.716685768216848" lon="3.292259685695171">
        <ele>464.93000000000001</ele>
        <time>2014-09-06T11:02:46Z</time>
      </trkpt>
      <trkpt lat="39.716697251424193" lon="3.292300589382649">
        <ele>463.97000000000003</ele>
        <time>2014-09-06T11:02:51Z</time>
      </trkpt>
      <trkpt lat="39.716734383255243" lon="3.29231240786612">
        <ele>463.00999999999999</ele>
        <time>2014-09-06T11:02:56Z</time>
      </trkpt>
      <trkpt lat="39.716786267235875" lon="3.29237443394959">
        <ele>461.08999999999997</ele>
        <time>2014-09-06T11:03:07Z</time>
      </trkpt>
      <trkpt lat="39.716786937788129" lon="3.292377954348922">
        <ele>460.61000000000001</ele>
        <time>2014-09-06T11:03:08Z</time>
      </trkpt>
      <trkpt lat="39.716838737949729" lon="3.292454062029719">
        <ele>461.08999999999997</ele>
        <time>2014-09-06T11:03:15Z</time>
      </trkpt>
      <trkpt lat="39.716873858124018" lon="3.29252447001636">
        <ele>458.69</ele>
        <time>2014-09-06T11:03:21Z</time>
      </trkpt>
      <trkpt lat="39.716916857287288" lon="3.292563613504171">
        <ele>458.69</ele>
        <time>2014-09-06T11:03:27Z</time>
      </trkpt>
      <trkpt lat="39.716925239190459" lon="3.292602170258761">
        <ele>455.31999999999999</ele>
        <time>2014-09-06T11:03:36Z</time>
      </trkpt>
      <trkpt lat="39.716925993561745" lon="3.292605020105839">
        <ele>458.69</ele>
        <time>2014-09-06T11:03:39Z</time>
      </trkpt>
      <trkpt lat="39.716945355758071" lon="3.292679870501161">
        <ele>455.31999999999999</ele>
        <time>2014-09-06T11:03:51Z</time>
      </trkpt>
      <trkpt lat="39.716978799551725" lon="3.292721444740892">
        <ele>454.36000000000001</ele>
        <time>2014-09-06T11:03:58Z</time>
      </trkpt>
      <trkpt lat="39.717021295800805" lon="3.292868044227362">
        <ele>452.92000000000002</ele>
        <time>2014-09-06T11:04:08Z</time>
      </trkpt>
      <trkpt lat="39.717030515894294" lon="3.29289142973721">
        <ele>451.48000000000002</ele>
        <time>2014-09-06T11:04:12Z</time>
      </trkpt>
      <trkpt lat="39.717055829241872" lon="3.292972063645721">
        <ele>450.51999999999998</ele>
        <time>2014-09-06T11:04:18Z</time>
      </trkpt>
      <trkpt lat="39.717058343812823" lon="3.293009866029024">
        <ele>450.02999999999997</ele>
        <time>2014-09-06T11:04:21Z</time>
      </trkpt>
      <trkpt lat="39.717064714059234" lon="3.293080944567919">
        <ele>450.02999999999997</ele>
        <time>2014-09-06T11:04:27Z</time>
      </trkpt>
      <trkpt lat="39.717091955244541" lon="3.293207678943873">
        <ele>448.11000000000001</ele>
        <time>2014-09-06T11:04:38Z</time>
      </trkpt>
      <trkpt lat="39.717146269977093" lon="3.293277248740196">
        <ele>446.67000000000002</ele>
        <time>2014-09-06T11:04:49Z</time>
      </trkpt>
      <trkpt lat="39.717221623286605" lon="3.293345980346203">
        <ele>444.75</ele>
        <time>2014-09-06T11:04:59Z</time>
      </trkpt>
      <trkpt lat="39.717256408184767" lon="3.293367186561227">
        <ele>442.81999999999999</ele>
        <time>2014-09-06T11:05:06Z</time>
      </trkpt>
      <trkpt lat="39.717325642704964" lon="3.293456956744194">
        <ele>442.33999999999997</ele>
        <time>2014-09-06T11:05:17Z</time>
      </trkpt>
      <trkpt lat="39.717375263571739" lon="3.293524850159884">
        <ele>441.38</ele>
        <time>2014-09-06T11:05:24Z</time>
      </trkpt>
      <trkpt lat="39.717391859740019" lon="3.293544882908464">
        <ele>440.42000000000002</ele>
        <time>2014-09-06T11:05:28Z</time>
      </trkpt>
      <trkpt lat="39.717434858903289" lon="3.293592743575573">
        <ele>439.45999999999998</ele>
        <time>2014-09-06T11:05:40Z</time>
      </trkpt>
      <trkpt lat="39.717434858903289" lon="3.293592743575573">
        <ele>439.45999999999998</ele>
        <time>2014-09-06T11:05:42Z</time>
      </trkpt>
      <trkpt lat="39.717466458678246" lon="3.293651584535837">
        <ele>438.5</ele>
        <time>2014-09-06T11:05:48Z</time>
      </trkpt>
      <trkpt lat="39.717565951868892" lon="3.29373967833817">
        <ele>436.57999999999998</ele>
        <time>2014-09-06T11:06:01Z</time>
      </trkpt>
      <trkpt lat="39.717589002102613" lon="3.293756358325481">
        <ele>435.13</ele>
        <time>2014-09-06T11:06:04Z</time>
      </trkpt>
      <trkpt lat="39.717690758407116" lon="3.293832298368216">
        <ele>433.69</ele>
        <time>2014-09-06T11:06:16Z</time>
      </trkpt>
      <trkpt lat="39.717736188322306" lon="3.293873704969883">
        <ele>433.20999999999998</ele>
        <time>2014-09-06T11:06:21Z</time>
      </trkpt>
      <trkpt lat="39.71778379753232" lon="3.293883847072721">
        <ele>432.25</ele>
        <time>2014-09-06T11:06:27Z</time>
      </trkpt>
      <trkpt lat="39.717817828059196" lon="3.293893067166209">
        <ele>432.25</ele>
        <time>2014-09-06T11:06:39Z</time>
      </trkpt>
      <trkpt lat="39.717823024839163" lon="3.293890384957194">
        <ele>430.81</ele>
        <time>2014-09-06T11:06:54Z</time>
      </trkpt>
      <trkpt lat="39.717823024839163" lon="3.293890384957194">
        <ele>431.29000000000002</ele>
        <time>2014-09-06T11:06:55Z</time>
      </trkpt>
      <trkpt lat="39.717860827222466" lon="3.293913519009948">
        <ele>430.32999999999998</ele>
        <time>2014-09-06T11:07:00Z</time>
      </trkpt>
      <trkpt lat="39.717923272401094" lon="3.293917626142502">
        <ele>428.88999999999999</ele>
        <time>2014-09-06T11:07:08Z</time>
      </trkpt>
      <trkpt lat="39.717932576313615" lon="3.293929612264037">
        <ele>428.88999999999999</ele>
        <time>2014-09-06T11:07:10Z</time>
      </trkpt>
      <trkpt lat="39.717977922409773" lon="3.293980658054352">
        <ele>427.44</ele>
        <time>2014-09-06T11:07:19Z</time>
      </trkpt>
      <trkpt lat="39.718010947108269" lon="3.293990045785904">
        <ele>426.95999999999998</ele>
        <time>2014-09-06T11:07:24Z</time>
      </trkpt>
      <trkpt lat="39.718052186071873" lon="3.293984346091747">
        <ele>426</ele>
        <time>2014-09-06T11:07:29Z</time>
      </trkpt>
      <trkpt lat="39.718072386458516" lon="3.294005300849676">
        <ele>426</ele>
        <time>2014-09-06T11:07:32Z</time>
      </trkpt>
      <trkpt lat="39.718104992061853" lon="3.294025668874383">
        <ele>425.04000000000002</ele>
        <time>2014-09-06T11:07:35Z</time>
      </trkpt>
      <trkpt lat="39.718157295137644" lon="3.294038157910109">
        <ele>424.07999999999998</ele>
        <time>2014-09-06T11:07:41Z</time>
      </trkpt>
      <trkpt lat="39.718206413090229" lon="3.294073613360524">
        <ele>423.60000000000002</ele>
        <time>2014-09-06T11:07:45Z</time>
      </trkpt>
      <trkpt lat="39.718238683417439" lon="3.294070847332478">
        <ele>423.12</ele>
        <time>2014-09-06T11:07:49Z</time>
      </trkpt>
      <trkpt lat="39.718257375061512" lon="3.294091634452343">
        <ele>423.12</ele>
        <time>2014-09-06T11:07:52Z</time>
      </trkpt>
      <trkpt lat="39.718272713944316" lon="3.294122731313109">
        <ele>421.68000000000001</ele>
        <time>2014-09-06T11:07:55Z</time>
      </trkpt>
      <trkpt lat="39.718286711722612" lon="3.29413547180593">
        <ele>421.19</ele>
        <time>2014-09-06T11:07:57Z</time>
      </trkpt>
      <trkpt lat="39.718354102224112" lon="3.294214261695743">
        <ele>419.75</ele>
        <time>2014-09-06T11:08:08Z</time>
      </trkpt>
      <trkpt lat="39.718378577381372" lon="3.294222978875041">
        <ele>419.75</ele>
        <time>2014-09-06T11:08:15Z</time>
      </trkpt>
      <trkpt lat="39.718386456370354" lon="3.294168831780553">
        <ele>420.23000000000002</ele>
        <time>2014-09-06T11:08:19Z</time>
      </trkpt>
      <trkpt lat="39.718429874628782" lon="3.294146535918117">
        <ele>420.70999999999998</ele>
        <time>2014-09-06T11:08:24Z</time>
      </trkpt>
      <trkpt lat="39.718474131077528" lon="3.29416329972446">
        <ele>420.23000000000002</ele>
        <time>2014-09-06T11:08:28Z</time>
      </trkpt>
      <trkpt lat="39.718514615669847" lon="3.294185092672706">
        <ele>420.70999999999998</ele>
        <time>2014-09-06T11:08:32Z</time>
      </trkpt>
      <trkpt lat="39.718535570427775" lon="3.294197078794241">
        <ele>420.70999999999998</ele>
        <time>2014-09-06T11:08:35Z</time>
      </trkpt>
      <trkpt lat="39.718576641753316" lon="3.29422096721828">
        <ele>420.70999999999998</ele>
        <time>2014-09-06T11:08:40Z</time>
      </trkpt>
      <trkpt lat="39.718609331175685" lon="3.294264553114772">
        <ele>421.19</ele>
        <time>2014-09-06T11:08:45Z</time>
      </trkpt>
      <trkpt lat="39.718670686706901" lon="3.294328926131129">
        <ele>421.68000000000001</ele>
        <time>2014-09-06T11:08:52Z</time>
      </trkpt>
      <trkpt lat="39.718698849901557" lon="3.294358514249325">
        <ele>422.63999999999999</ele>
        <time>2014-09-06T11:08:56Z</time>
      </trkpt>
      <trkpt lat="39.718723325058818" lon="3.294394807890058">
        <ele>422.63999999999999</ele>
        <time>2014-09-06T11:09:00Z</time>
      </trkpt>
      <trkpt lat="39.718754757195711" lon="3.294413080438972">
        <ele>424.56</ele>
        <time>2014-09-06T11:09:08Z</time>
      </trkpt>
      <trkpt lat="39.718767078593373" lon="3.294411571696401">
        <ele>424.07999999999998</ele>
        <time>2014-09-06T11:09:10Z</time>
      </trkpt>
      <trkpt lat="39.718801025301218" lon="3.294418109580874">
        <ele>424.56</ele>
        <time>2014-09-06T11:09:13Z</time>
      </trkpt>
      <trkpt lat="39.718824662268162" lon="3.294415259733796">
        <ele>425.04000000000002</ele>
        <time>2014-09-06T11:09:16Z</time>
      </trkpt>
      <trkpt lat="39.718876462429762" lon="3.294427916407585">
        <ele>426</ele>
        <time>2014-09-06T11:09:22Z</time>
      </trkpt>
      <trkpt lat="39.718969585373998" lon="3.294461611658335">
        <ele>427.92000000000002</ele>
        <time>2014-09-06T11:09:33Z</time>
      </trkpt>
      <trkpt lat="39.718990372493863" lon="3.29447996802628">
        <ele>428.88999999999999</ele>
        <time>2014-09-06T11:09:39Z</time>
      </trkpt>
      <trkpt lat="39.719034126028419" lon="3.294537970796228">
        <ele>431.29000000000002</ele>
        <time>2014-09-06T11:09:49Z</time>
      </trkpt>
      <trkpt lat="39.719046950340271" lon="3.294556830078363">
        <ele>431.76999999999998</ele>
        <time>2014-09-06T11:09:51Z</time>
      </trkpt>
      <trkpt lat="39.719067066907883" lon="3.294577114284039">
        <ele>431.76999999999998</ele>
        <time>2014-09-06T11:09:54Z</time>
      </trkpt>
      <trkpt lat="39.719156250357628" lon="3.294606283307076">
        <ele>432.73000000000002</ele>
        <time>2014-09-06T11:10:05Z</time>
      </trkpt>
      <trkpt lat="39.719166727736592" lon="3.294611480087042">
        <ele>433.69</ele>
        <time>2014-09-06T11:10:07Z</time>
      </trkpt>
      <trkpt lat="39.719198076054454" lon="3.29463972710073">
        <ele>434.17000000000002</ele>
        <time>2014-09-06T11:10:12Z</time>
      </trkpt>
      <trkpt lat="39.719227999448776" lon="3.294673087075353">
        <ele>435.13</ele>
        <time>2014-09-06T11:10:17Z</time>
      </trkpt>
      <trkpt lat="39.7192716691643" lon="3.294685408473015">
        <ele>437.06</ele>
        <time>2014-09-06T11:10:23Z</time>
      </trkpt>
      <trkpt lat="39.719293713569641" lon="3.294695131480694">
        <ele>437.06</ele>
        <time>2014-09-06T11:10:26Z</time>
      </trkpt>
      <trkpt lat="39.719327492639422" lon="3.294694880023599">
        <ele>437.54000000000002</ele>
        <time>2014-09-06T11:10:31Z</time>
      </trkpt>
      <trkpt lat="39.719337550923228" lon="3.294670404866338">
        <ele>438.01999999999998</ele>
        <time>2014-09-06T11:10:44Z</time>
      </trkpt>
      <trkpt lat="39.719337550923228" lon="3.294670404866338">
        <ele>438.01999999999998</ele>
        <time>2014-09-06T11:11:00Z</time>
      </trkpt>
      <trkpt lat="39.719347860664129" lon="3.294661100953817">
        <ele>438.98000000000002</ele>
        <time>2014-09-06T11:11:03Z</time>
      </trkpt>
      <trkpt lat="39.719421789050102" lon="3.294713655486703">
        <ele>438.5</ele>
        <time>2014-09-06T11:11:13Z</time>
      </trkpt>
      <trkpt lat="39.719464872032404" lon="3.2947345264256">
        <ele>441.38</ele>
        <time>2014-09-06T11:11:23Z</time>
      </trkpt>
      <trkpt lat="39.719475181773305" lon="3.294739136472344">
        <ele>441.86000000000001</ele>
        <time>2014-09-06T11:11:25Z</time>
      </trkpt>
      <trkpt lat="39.719499237835407" lon="3.294772999361157">
        <ele>443.31</ele>
        <time>2014-09-06T11:11:31Z</time>
      </trkpt>
      <trkpt lat="39.719575010240078" lon="3.29486109316349">
        <ele>445.23000000000002</ele>
        <time>2014-09-06T11:11:43Z</time>
      </trkpt>
      <trkpt lat="39.719595881178975" lon="3.294865535572171">
        <ele>445.70999999999998</ele>
        <time>2014-09-06T11:11:47Z</time>
      </trkpt>
      <trkpt lat="39.719637790694833" lon="3.294937452301383">
        <ele>448.58999999999997</ele>
        <time>2014-09-06T11:11:58Z</time>
      </trkpt>
      <trkpt lat="39.719683974981308" lon="3.294942649081349">
        <ele>449.55000000000001</ele>
        <time>2014-09-06T11:12:04Z</time>
      </trkpt>
      <trkpt lat="39.71974809654057" lon="3.294937033206224">
        <ele>451.95999999999998</ele>
        <time>2014-09-06T11:12:15Z</time>
      </trkpt>
      <trkpt lat="39.71976175904274" lon="3.2949348539114">
        <ele>451.95999999999998</ele>
        <time>2014-09-06T11:12:17Z</time>
      </trkpt>
      <trkpt lat="39.719786904752254" lon="3.294969135895371">
        <ele>451.95999999999998</ele>
        <time>2014-09-06T11:12:22Z</time>
      </trkpt>
      <trkpt lat="39.719809200614691" lon="3.294982882216573">
        <ele>453.39999999999998</ele>
        <time>2014-09-06T11:12:25Z</time>
      </trkpt>
      <trkpt lat="39.719849182292819" lon="3.294998640194535">
        <ele>454.36000000000001</ele>
        <time>2014-09-06T11:12:30Z</time>
      </trkpt>
      <trkpt lat="39.719910705462098" lon="3.295025127008557">
        <ele>456.27999999999997</ele>
        <time>2014-09-06T11:12:42Z</time>
      </trkpt>
      <trkpt lat="39.719956805929542" lon="3.295035772025585">
        <ele>456.75999999999999</ele>
        <time>2014-09-06T11:12:47Z</time>
      </trkpt>
      <trkpt lat="39.719987818971276" lon="3.295045075938106">
        <ele>457.72000000000003</ele>
        <time>2014-09-06T11:12:50Z</time>
      </trkpt>
      <trkpt lat="39.720018915832043" lon="3.295055804774165">
        <ele>458.20999999999998</ele>
        <time>2014-09-06T11:12:55Z</time>
      </trkpt>
      <trkpt lat="39.720038613304496" lon="3.295061001554132">
        <ele>458.20999999999998</ele>
        <time>2014-09-06T11:12:57Z</time>
      </trkpt>
      <trkpt lat="39.720087228342891" lon="3.295101150870323">
        <ele>459.17000000000002</ele>
        <time>2014-09-06T11:13:04Z</time>
      </trkpt>
      <trkpt lat="39.720133664086461" lon="3.295188406482339">
        <ele>461.08999999999997</ele>
        <time>2014-09-06T11:13:15Z</time>
      </trkpt>
      <trkpt lat="39.720174232497811" lon="3.295234506949782">
        <ele>461.08999999999997</ele>
        <time>2014-09-06T11:13:22Z</time>
      </trkpt>
      <trkpt lat="39.720182530581951" lon="3.295306339859963">
        <ele>462.52999999999997</ele>
        <time>2014-09-06T11:13:28Z</time>
      </trkpt>
      <trkpt lat="39.720194516703486" lon="3.29535998404026">
        <ele>463.00999999999999</ele>
        <time>2014-09-06T11:13:33Z</time>
      </trkpt>
      <trkpt lat="39.720213627442718" lon="3.295379849150777">
        <ele>463.49000000000001</ele>
        <time>2014-09-06T11:13:36Z</time>
      </trkpt>
      <trkpt lat="39.720244808122516" lon="3.29538144171238">
        <ele>464.44999999999999</ele>
        <time>2014-09-06T11:13:40Z</time>
      </trkpt>
      <trkpt lat="39.720263248309493" lon="3.295387728139758">
        <ele>464.93000000000001</ele>
        <time>2014-09-06T11:13:43Z</time>
      </trkpt>
      <trkpt lat="39.720351509749889" lon="3.295417567715049">
        <ele>465.89999999999998</ele>
        <time>2014-09-06T11:13:53Z</time>
      </trkpt>
      <trkpt lat="39.720374140888453" lon="3.29546257853508">
        <ele>468.30000000000001</ele>
        <time>2014-09-06T11:13:58Z</time>
      </trkpt>
      <trkpt lat="39.720403226092458" lon="3.29550557769835">
        <ele>468.77999999999997</ele>
        <time>2014-09-06T11:14:03Z</time>
      </trkpt>
      <trkpt lat="39.720442537218332" lon="3.295523431152105">
        <ele>469.25999999999999</ele>
        <time>2014-09-06T11:14:14Z</time>
      </trkpt>
      <trkpt lat="39.72046785056591" lon="3.29554514028132">
        <ele>469.74000000000001</ele>
        <time>2014-09-06T11:14:17Z</time>
      </trkpt>
      <trkpt lat="39.720509173348546" lon="3.295581182464957">
        <ele>470.69999999999999</ele>
        <time>2014-09-06T11:14:20Z</time>
      </trkpt>
      <trkpt lat="39.720542952418327" lon="3.295599622651935">
        <ele>471.18000000000001</ele>
        <time>2014-09-06T11:14:24Z</time>
      </trkpt>
      <trkpt lat="39.720583604648709" lon="3.295610267668963">
        <ele>471.66000000000003</ele>
        <time>2014-09-06T11:14:28Z</time>
      </trkpt>
      <trkpt lat="39.720613025128841" lon="3.295612530782819">
        <ele>471.66000000000003</ele>
        <time>2014-09-06T11:14:30Z</time>
      </trkpt>
      <trkpt lat="39.720638254657388" lon="3.295618146657944">
        <ele>471.66000000000003</ele>
        <time>2014-09-06T11:14:32Z</time>
      </trkpt>
      <trkpt lat="39.720772197470069" lon="3.295642286539078">
        <ele>473.11000000000001</ele>
        <time>2014-09-06T11:14:45Z</time>
      </trkpt>
      <trkpt lat="39.720843778923154" lon="3.295649662613869">
        <ele>474.06999999999999</ele>
        <time>2014-09-06T11:14:54Z</time>
      </trkpt>
      <trkpt lat="39.720875797793269" lon="3.295666761696339">
        <ele>474.55000000000001</ele>
        <time>2014-09-06T11:14:58Z</time>
      </trkpt>
      <trkpt lat="39.720910331234336" lon="3.295696768909693">
        <ele>475.50999999999999</ele>
        <time>2014-09-06T11:15:03Z</time>
      </trkpt>
      <trkpt lat="39.720941511914134" lon="3.295709257945418">
        <ele>474.55000000000001</ele>
        <time>2014-09-06T11:15:06Z</time>
      </trkpt>
      <trkpt lat="39.720983924344182" lon="3.295727111399174">
        <ele>475.02999999999997</ele>
        <time>2014-09-06T11:15:11Z</time>
      </trkpt>
      <trkpt lat="39.721024660393596" lon="3.295732224360108">
        <ele>475.02999999999997</ele>
        <time>2014-09-06T11:15:15Z</time>
      </trkpt>
      <trkpt lat="39.721079980954528" lon="3.295742282643914">
        <ele>475.99000000000001</ele>
        <time>2014-09-06T11:15:20Z</time>
      </trkpt>
      <trkpt lat="39.721150808036327" lon="3.295762650668621">
        <ele>475.99000000000001</ele>
        <time>2014-09-06T11:15:27Z</time>
      </trkpt>
      <trkpt lat="39.721195986494422" lon="3.295762483030558">
        <ele>475.99000000000001</ele>
        <time>2014-09-06T11:15:31Z</time>
      </trkpt>
      <trkpt lat="39.721241164952517" lon="3.295776145532727">
        <ele>476.47000000000003</ele>
        <time>2014-09-06T11:15:36Z</time>
      </trkpt>
      <trkpt lat="39.721306627616286" lon="3.295797016471624">
        <ele>476.94999999999999</ele>
        <time>2014-09-06T11:15:40Z</time>
      </trkpt>
      <trkpt lat="39.721365887671709" lon="3.295809254050255">
        <ele>476.47000000000003</ele>
        <time>2014-09-06T11:15:46Z</time>
      </trkpt>
      <trkpt lat="39.721386255696416" lon="3.295826688408852">
        <ele>477.43000000000001</ele>
        <time>2014-09-06T11:15:48Z</time>
      </trkpt>
      <trkpt lat="39.721464710310102" lon="3.295877985656261">
        <ele>478.38999999999999</ele>
        <time>2014-09-06T11:15:57Z</time>
      </trkpt>
      <trkpt lat="39.721558084711432" lon="3.295948728919029">
        <ele>480.31999999999999</ele>
        <time>2014-09-06T11:16:07Z</time>
      </trkpt>
      <trkpt lat="39.721561353653669" lon="3.295956775546074">
        <ele>480.80000000000001</ele>
        <time>2014-09-06T11:16:08Z</time>
      </trkpt>
      <trkpt lat="39.721611812710762" lon="3.296011257916689">
        <ele>480.80000000000001</ele>
        <time>2014-09-06T11:16:14Z</time>
      </trkpt>
      <trkpt lat="39.721637545153499" lon="3.296029446646571">
        <ele>480.80000000000001</ele>
        <time>2014-09-06T11:16:23Z</time>
      </trkpt>
      <trkpt lat="39.721643580123782" lon="3.296031458303332">
        <ele>481.27999999999997</ele>
        <time>2014-09-06T11:16:39Z</time>
      </trkpt>
      <trkpt lat="39.721648525446653" lon="3.29603816382587">
        <ele>480.80000000000001</ele>
        <time>2014-09-06T11:16:47Z</time>
      </trkpt>
      <trkpt lat="39.721648525446653" lon="3.29603816382587">
        <ele>478.87</ele>
        <time>2014-09-06T11:16:52Z</time>
      </trkpt>
      <trkpt lat="39.721704097464681" lon="3.296103542670608">
        <ele>481.27999999999997</ele>
        <time>2014-09-06T11:16:58Z</time>
      </trkpt>
      <trkpt lat="39.721723292022943" lon="3.296124832704663">
        <ele>481.75999999999999</ele>
        <time>2014-09-06T11:17:00Z</time>
      </trkpt>
      <trkpt lat="39.721758579835296" lon="3.296161210164428">
        <ele>481.27999999999997</ele>
        <time>2014-09-06T11:17:05Z</time>
      </trkpt>
      <trkpt lat="39.721758831292391" lon="3.296161126345396">
        <ele>480.80000000000001</ele>
        <time>2014-09-06T11:17:07Z</time>
      </trkpt>
      <trkpt lat="39.721765788272023" lon="3.296174118295312">
        <ele>479.83999999999997</ele>
        <time>2014-09-06T11:17:09Z</time>
      </trkpt>
      <trkpt lat="39.721782049164176" lon="3.296205718070269">
        <ele>479.35000000000002</ele>
        <time>2014-09-06T11:17:16Z</time>
      </trkpt>
      <trkpt lat="39.721796466037631" lon="3.296261206269264">
        <ele>479.83999999999997</ele>
        <time>2014-09-06T11:17:20Z</time>
      </trkpt>
      <trkpt lat="39.721797639504075" lon="3.296339409425855">
        <ele>482.24000000000001</ele>
        <time>2014-09-06T11:17:24Z</time>
      </trkpt>
      <trkpt lat="39.721789006143808" lon="3.296428509056568">
        <ele>479.83999999999997</ele>
        <time>2014-09-06T11:17:28Z</time>
      </trkpt>
      <trkpt lat="39.721792694181204" lon="3.296484081074596">
        <ele>479.83999999999997</ele>
        <time>2014-09-06T11:17:32Z</time>
      </trkpt>
      <trkpt lat="39.721778528764844" lon="3.29657125286758">
        <ele>480.80000000000001</ele>
        <time>2014-09-06T11:17:37Z</time>
      </trkpt>
      <trkpt lat="39.721768219023943" lon="3.296624645590782">
        <ele>477.91000000000003</ele>
        <time>2014-09-06T11:17:46Z</time>
      </trkpt>
      <trkpt lat="39.721751203760505" lon="3.296677703037858">
        <ele>478.38999999999999</ele>
        <time>2014-09-06T11:17:50Z</time>
      </trkpt>
      <trkpt lat="39.721723794937134" lon="3.29673495143652">
        <ele>477.43000000000001</ele>
        <time>2014-09-06T11:17:54Z</time>
      </trkpt>
      <trkpt lat="39.721710383892059" lon="3.296777363866568">
        <ele>478.87</ele>
        <time>2014-09-06T11:17:57Z</time>
      </trkpt>
      <trkpt lat="39.721696302294731" lon="3.296787170693278">
        <ele>476.47000000000003</ele>
        <time>2014-09-06T11:18:00Z</time>
      </trkpt>
      <trkpt lat="39.721652800217271" lon="3.296948187053204">
        <ele>477.43000000000001</ele>
        <time>2014-09-06T11:18:09Z</time>
      </trkpt>
      <trkpt lat="39.721602005884051" lon="3.297094702720642">
        <ele>476.94999999999999</ele>
        <time>2014-09-06T11:18:18Z</time>
      </trkpt>
      <trkpt lat="39.721596222370863" lon="3.297238368541002">
        <ele>475.02999999999997</ele>
        <time>2014-09-06T11:18:27Z</time>
      </trkpt>
      <trkpt lat="39.721570992842317" lon="3.297397373244166">
        <ele>473.58999999999997</ele>
        <time>2014-09-06T11:18:39Z</time>
      </trkpt>
      <trkpt lat="39.721566215157509" lon="3.297460321336985">
        <ele>472.63</ele>
        <time>2014-09-06T11:18:43Z</time>
      </trkpt>
      <trkpt lat="39.721553307026625" lon="3.297509271651506">
        <ele>472.63</ele>
        <time>2014-09-06T11:18:47Z</time>
      </trkpt>
      <trkpt lat="39.721562108024955" lon="3.297582445666194">
        <ele>471.66000000000003</ele>
        <time>2014-09-06T11:18:52Z</time>
      </trkpt>
      <trkpt lat="39.721538219600916" lon="3.297648997977376">
        <ele>472.13999999999999</ele>
        <time>2014-09-06T11:18:59Z</time>
      </trkpt>
      <trkpt lat="39.721517348662019" lon="3.297767685726285">
        <ele>472.13999999999999</ele>
        <time>2014-09-06T11:19:07Z</time>
      </trkpt>
      <trkpt lat="39.721488012000918" lon="3.297872794792056">
        <ele>472.13999999999999</ele>
        <time>2014-09-06T11:19:12Z</time>
      </trkpt>
      <trkpt lat="39.721443839371204" lon="3.297967510297895">
        <ele>471.66000000000003</ele>
        <time>2014-09-06T11:19:20Z</time>
      </trkpt>
      <trkpt lat="39.721442079171538" lon="3.297973042353988">
        <ele>471.66000000000003</ele>
        <time>2014-09-06T11:19:21Z</time>
      </trkpt>
      <trkpt lat="39.72138399258256" lon="3.298063734546304">
        <ele>471.66000000000003</ele>
        <time>2014-09-06T11:19:27Z</time>
      </trkpt>
      <trkpt lat="39.721340909600258" lon="3.298248890787363">
        <ele>470.69999999999999</ele>
        <time>2014-09-06T11:19:38Z</time>
      </trkpt>
      <trkpt lat="39.721307549625635" lon="3.298412002623081">
        <ele>470.22000000000003</ele>
        <time>2014-09-06T11:19:47Z</time>
      </trkpt>
      <trkpt lat="39.721263879910111" lon="3.29851602204144">
        <ele>469.74000000000001</ele>
        <time>2014-09-06T11:19:55Z</time>
      </trkpt>
      <trkpt lat="39.721252396702766" lon="3.298539407551289">
        <ele>469.74000000000001</ele>
        <time>2014-09-06T11:19:57Z</time>
      </trkpt>
      <trkpt lat="39.721214761957526" lon="3.298664717003703">
        <ele>469.74000000000001</ele>
        <time>2014-09-06T11:20:03Z</time>
      </trkpt>
      <trkpt lat="39.721206966787577" lon="3.298674942925572">
        <ele>469.74000000000001</ele>
        <time>2014-09-06T11:20:04Z</time>
      </trkpt>
      <trkpt lat="39.721189616248012" lon="3.298682319000363">
        <ele>470.22000000000003</ele>
        <time>2014-09-06T11:20:06Z</time>
      </trkpt>
      <trkpt lat="39.721113676205277" lon="3.298703022301197">
        <ele>470.69999999999999</ele>
        <time>2014-09-06T11:20:12Z</time>
      </trkpt>
      <trkpt lat="39.721028851345181" lon="3.298852471634746">
        <ele>470.69999999999999</ele>
        <time>2014-09-06T11:20:24Z</time>
      </trkpt>
      <trkpt lat="39.721008399501443" lon="3.298933357000351">
        <ele>470.22000000000003</ele>
        <time>2014-09-06T11:20:33Z</time>
      </trkpt>
      <trkpt lat="39.721002029255033" lon="3.299028826877475">
        <ele>469.25999999999999</ele>
        <time>2014-09-06T11:20:37Z</time>
      </trkpt>
      <trkpt lat="39.72095550969243" lon="3.299117926508188">
        <ele>470.22000000000003</ele>
        <time>2014-09-06T11:20:45Z</time>
      </trkpt>
      <trkpt lat="39.720934387296438" lon="3.299140641465783">
        <ele>469.74000000000001</ele>
        <time>2014-09-06T11:20:48Z</time>
      </trkpt>
      <trkpt lat="39.720928687602282" lon="3.299152459949255">
        <ele>469.25999999999999</ele>
        <time>2014-09-06T11:20:53Z</time>
      </trkpt>
      <trkpt lat="39.720891304314137" lon="3.299242649227381">
        <ele>468.30000000000001</ele>
        <time>2014-09-06T11:20:58Z</time>
      </trkpt>
      <trkpt lat="39.720883592963219" lon="3.299273494631052">
        <ele>468.30000000000001</ele>
        <time>2014-09-06T11:21:00Z</time>
      </trkpt>
      <trkpt lat="39.720848221331835" lon="3.299302496016026">
        <ele>466.86000000000001</ele>
        <time>2014-09-06T11:21:03Z</time>
      </trkpt>
      <trkpt lat="39.720820477232337" lon="3.299371311441064">
        <ele>465.89999999999998</ele>
        <time>2014-09-06T11:21:09Z</time>
      </trkpt>
      <trkpt lat="39.720823829993606" lon="3.299426296725869">
        <ele>464.44999999999999</ele>
        <time>2014-09-06T11:21:22Z</time>
      </trkpt>
      <trkpt lat="39.720810418948531" lon="3.299451107159257">
        <ele>463.49000000000001</ele>
        <time>2014-09-06T11:21:27Z</time>
      </trkpt>
      <trkpt lat="39.720794660970569" lon="3.299473486840725">
        <ele>464.44999999999999</ele>
        <time>2014-09-06T11:21:29Z</time>
      </trkpt>
      <trkpt lat="39.720776807516813" lon="3.299498967826366">
        <ele>465.42000000000002</ele>
        <time>2014-09-06T11:21:31Z</time>
      </trkpt>
      <trkpt lat="39.720740597695112" lon="3.299544816836715">
        <ele>462.52999999999997</ele>
        <time>2014-09-06T11:21:36Z</time>
      </trkpt>
      <trkpt lat="39.720704555511475" lon="3.299578260630369">
        <ele>464.93000000000001</ele>
        <time>2014-09-06T11:21:40Z</time>
      </trkpt>
      <trkpt lat="39.720702208578587" lon="3.299571974202991">
        <ele>463.00999999999999</ele>
        <time>2014-09-06T11:21:42Z</time>
      </trkpt>
      <trkpt lat="39.720684941858053" lon="3.299571555107832">
        <ele>463.49000000000001</ele>
        <time>2014-09-06T11:21:47Z</time>
      </trkpt>
      <trkpt lat="39.720655102282763" lon="3.299656379967928">
        <ele>461.08999999999997</ele>
        <time>2014-09-06T11:21:54Z</time>
      </trkpt>
      <trkpt lat="39.720617299899459" lon="3.299734499305487">
        <ele>459.17000000000002</ele>
        <time>2014-09-06T11:22:01Z</time>
      </trkpt>
      <trkpt lat="39.720528200268745" lon="3.299811696633697">
        <ele>458.20999999999998</ele>
        <time>2014-09-06T11:22:10Z</time>
      </trkpt>
      <trkpt lat="39.720453266054392" lon="3.299864502623677">
        <ele>456.27999999999997</ele>
        <time>2014-09-06T11:22:17Z</time>
      </trkpt>
      <trkpt lat="39.720433736220002" lon="3.29988612793386">
        <ele>456.27999999999997</ele>
        <time>2014-09-06T11:22:19Z</time>
      </trkpt>
      <trkpt lat="39.720412362366915" lon="3.299912950024009">
        <ele>454.83999999999997</ele>
        <time>2014-09-06T11:22:22Z</time>
      </trkpt>
      <trkpt lat="39.720393000170588" lon="3.299933318048716">
        <ele>455.31999999999999</ele>
        <time>2014-09-06T11:22:25Z</time>
      </trkpt>
      <trkpt lat="39.720343379303813" lon="3.300077486783266">
        <ele>451</ele>
        <time>2014-09-06T11:22:37Z</time>
      </trkpt>
      <trkpt lat="39.720291327685118" lon="3.30017639324069">
        <ele>448.58999999999997</ele>
        <time>2014-09-06T11:22:48Z</time>
      </trkpt>
      <trkpt lat="39.72026165574789" lon="3.300215536728501">
        <ele>447.14999999999998</ele>
        <time>2014-09-06T11:22:53Z</time>
      </trkpt>
      <trkpt lat="39.72015512175858" lon="3.300380995497108">
        <ele>446.19</ele>
        <time>2014-09-06T11:23:06Z</time>
      </trkpt>
      <trkpt lat="39.720132071524858" lon="3.300415361300111">
        <ele>445.23000000000002</ele>
        <time>2014-09-06T11:23:10Z</time>
      </trkpt>
      <trkpt lat="39.7200798522681" lon="3.300479901954532">
        <ele>444.26999999999998</ele>
        <time>2014-09-06T11:23:16Z</time>
      </trkpt>
      <trkpt lat="39.72007742151618" lon="3.300554249435663">
        <ele>443.79000000000002</ele>
        <time>2014-09-06T11:23:21Z</time>
      </trkpt>
      <trkpt lat="39.720087312161922" lon="3.300591045990586">
        <ele>442.33999999999997</ele>
        <time>2014-09-06T11:23:24Z</time>
      </trkpt>
      <trkpt lat="39.720085551962256" lon="3.300655167549849">
        <ele>441.38</ele>
        <time>2014-09-06T11:23:29Z</time>
      </trkpt>
      <trkpt lat="39.720089826732874" lon="3.300681989639998">
        <ele>441.38</ele>
        <time>2014-09-06T11:23:31Z</time>
      </trkpt>
      <trkpt lat="39.720075912773609" lon="3.300842251628637">
        <ele>438.5</ele>
        <time>2014-09-06T11:23:42Z</time>
      </trkpt>
      <trkpt lat="39.720087144523859" lon="3.300848957151175">
        <ele>438.01999999999998</ele>
        <time>2014-09-06T11:23:45Z</time>
      </trkpt>
      <trkpt lat="39.720077672973275" lon="3.300894889980555">
        <ele>436.57999999999998</ele>
        <time>2014-09-06T11:23:50Z</time>
      </trkpt>
      <trkpt lat="39.720049928873777" lon="3.300975523889065">
        <ele>435.61000000000001</ele>
        <time>2014-09-06T11:23:54Z</time>
      </trkpt>
      <trkpt lat="39.719993686303496" lon="3.30115363933146">
        <ele>434.17000000000002</ele>
        <time>2014-09-06T11:24:06Z</time>
      </trkpt>
      <trkpt lat="39.719951273873448" lon="3.301182724535465">
        <ele>433.69</ele>
        <time>2014-09-06T11:24:10Z</time>
      </trkpt>
      <trkpt lat="39.719903329387307" lon="3.301309123635292">
        <ele>432.25</ele>
        <time>2014-09-06T11:24:21Z</time>
      </trkpt>
      <trkpt lat="39.719980023801327" lon="3.301350027322769">
        <ele>429.85000000000002</ele>
        <time>2014-09-06T11:24:30Z</time>
      </trkpt>
      <trkpt lat="39.719982286915183" lon="3.301361175253987">
        <ele>429.85000000000002</ele>
        <time>2014-09-06T11:24:31Z</time>
      </trkpt>
      <trkpt lat="39.720010114833713" lon="3.301506852731109">
        <ele>426</ele>
        <time>2014-09-06T11:24:39Z</time>
      </trkpt>
      <trkpt lat="39.72001145593822" lon="3.301519844681025">
        <ele>426</ele>
        <time>2014-09-06T11:24:40Z</time>
      </trkpt>
      <trkpt lat="39.720023609697819" lon="3.301547421142459">
        <ele>427.44</ele>
        <time>2014-09-06T11:24:44Z</time>
      </trkpt>
      <trkpt lat="39.720033165067434" lon="3.301555467769504">
        <ele>426</ele>
        <time>2014-09-06T11:24:55Z</time>
      </trkpt>
      <trkpt lat="39.720055377110839" lon="3.301613386720419">
        <ele>425.51999999999998</ele>
        <time>2014-09-06T11:24:59Z</time>
      </trkpt>
      <trkpt lat="39.720078175887465" lon="3.301702653989196">
        <ele>425.51999999999998</ele>
        <time>2014-09-06T11:25:05Z</time>
      </trkpt>
      <trkpt lat="39.72007691860199" lon="3.301715981215239">
        <ele>425.51999999999998</ele>
        <time>2014-09-06T11:25:06Z</time>
      </trkpt>
      <trkpt lat="39.720082618296146" lon="3.301768787205219">
        <ele>423.60000000000002</ele>
        <time>2014-09-06T11:25:09Z</time>
      </trkpt>
      <trkpt lat="39.720099801197648" lon="3.30187532119453">
        <ele>423.12</ele>
        <time>2014-09-06T11:25:16Z</time>
      </trkpt>
      <trkpt lat="39.720176914706826" lon="3.301947908475995">
        <ele>420.70999999999998</ele>
        <time>2014-09-06T11:25:25Z</time>
      </trkpt>
      <trkpt lat="39.720234666019678" lon="3.301988141611219">
        <ele>419.26999999999998</ele>
        <time>2014-09-06T11:25:31Z</time>
      </trkpt>
      <trkpt lat="39.720235671848059" lon="3.30199409276247">
        <ele>419.26999999999998</ele>
        <time>2014-09-06T11:25:32Z</time>
      </trkpt>
      <trkpt lat="39.720245394855738" lon="3.302011527121067">
        <ele>418.79000000000002</ele>
        <time>2014-09-06T11:25:34Z</time>
      </trkpt>
      <trkpt lat="39.720367100089788" lon="3.302098531275988">
        <ele>416.38999999999999</ele>
        <time>2014-09-06T11:25:44Z</time>
      </trkpt>
      <trkpt lat="39.720429461449385" lon="3.302173214033246">
        <ele>416.38999999999999</ele>
        <time>2014-09-06T11:25:51Z</time>
      </trkpt>
      <trkpt lat="39.720492996275425" lon="3.30225745216012">
        <ele>414.94999999999999</ele>
        <time>2014-09-06T11:25:59Z</time>
      </trkpt>
      <trkpt lat="39.720593327656388" lon="3.302387790754437">
        <ele>414.47000000000003</ele>
        <time>2014-09-06T11:26:09Z</time>
      </trkpt>
      <trkpt lat="39.720596177503467" lon="3.302392652258277">
        <ele>413.5</ele>
        <time>2014-09-06T11:26:10Z</time>
      </trkpt>
      <trkpt lat="39.720636745914817" lon="3.302526427432895">
        <ele>413.98000000000002</ele>
        <time>2014-09-06T11:26:19Z</time>
      </trkpt>
      <trkpt lat="39.720641355961561" lon="3.302606390789151">
        <ele>413.5</ele>
        <time>2014-09-06T11:26:23Z</time>
      </trkpt>
      <trkpt lat="39.720667507499456" lon="3.302747290581465">
        <ele>411.10000000000002</ele>
        <time>2014-09-06T11:26:33Z</time>
      </trkpt>
      <trkpt lat="39.720667507499456" lon="3.302811244502664">
        <ele>411.10000000000002</ele>
        <time>2014-09-06T11:26:38Z</time>
      </trkpt>
      <trkpt lat="39.720672117546201" lon="3.302826499566436">
        <ele>410.62</ele>
        <time>2014-09-06T11:26:39Z</time>
      </trkpt>
      <trkpt lat="39.720672704279423" lon="3.302844101563096">
        <ele>410.62</ele>
        <time>2014-09-06T11:26:40Z</time>
      </trkpt>
      <trkpt lat="39.720669686794281" lon="3.302866648882628">
        <ele>409.66000000000003</ele>
        <time>2014-09-06T11:26:41Z</time>
      </trkpt>
      <trkpt lat="39.720667926594615" lon="3.302892046049237">
        <ele>409.66000000000003</ele>
        <time>2014-09-06T11:26:42Z</time>
      </trkpt>
      <trkpt lat="39.720668764784932" lon="3.30291316844523">
        <ele>409.66000000000003</ele>
        <time>2014-09-06T11:26:43Z</time>
      </trkpt>
      <trkpt lat="39.720678739249706" lon="3.302941666916013">
        <ele>409.66000000000003</ele>
        <time>2014-09-06T11:26:45Z</time>
      </trkpt>
      <trkpt lat="39.720732467249036" lon="3.303025653585792">
        <ele>406.76999999999998</ele>
        <time>2014-09-06T11:26:55Z</time>
      </trkpt>
      <trkpt lat="39.720757864415646" lon="3.303160518407822">
        <ele>404.85000000000002</ele>
        <time>2014-09-06T11:27:04Z</time>
      </trkpt>
      <trkpt lat="39.720764150843024" lon="3.303195051848888">
        <ele>403.88999999999999</ele>
        <time>2014-09-06T11:27:08Z</time>
      </trkpt>
      <trkpt lat="39.720774963498116" lon="3.303214497864246">
        <ele>403.41000000000003</ele>
        <time>2014-09-06T11:27:09Z</time>
      </trkpt>
      <trkpt lat="39.720787201076746" lon="3.303234614431858">
        <ele>403.88999999999999</ele>
        <time>2014-09-06T11:27:10Z</time>
      </trkpt>
      <trkpt lat="39.720797510817647" lon="3.303256742656231">
        <ele>403.41000000000003</ele>
        <time>2014-09-06T11:27:11Z</time>
      </trkpt>
      <trkpt lat="39.72080597653985" lon="3.303276859223843">
        <ele>402.93000000000001</ele>
        <time>2014-09-06T11:27:12Z</time>
      </trkpt>
      <trkpt lat="39.720811676234007" lon="3.303291443735361">
        <ele>402.93000000000001</ele>
        <time>2014-09-06T11:27:13Z</time>
      </trkpt>
      <trkpt lat="39.720833553001285" lon="3.303297143429518">
        <ele>401.97000000000003</ele>
        <time>2014-09-06T11:27:16Z</time>
      </trkpt>
      <trkpt lat="39.720941679552197" lon="3.303360007703304">
        <ele>400.05000000000001</ele>
        <time>2014-09-06T11:27:29Z</time>
      </trkpt>
      <trkpt lat="39.721051314845681" lon="3.303427146747708">
        <ele>396.68000000000001</ele>
        <time>2014-09-06T11:27:40Z</time>
      </trkpt>
      <trkpt lat="39.72110009752214" lon="3.303454387933016">
        <ele>395.72000000000003</ele>
        <time>2014-09-06T11:27:46Z</time>
      </trkpt>
      <trkpt lat="39.721161955967546" lon="3.303463272750378">
        <ele>395.24000000000001</ele>
        <time>2014-09-06T11:27:50Z</time>
      </trkpt>
      <trkpt lat="39.721203949302435" lon="3.303478108718991">
        <ele>394.75999999999999</ele>
        <time>2014-09-06T11:27:56Z</time>
      </trkpt>
      <trkpt lat="39.721264382824302" lon="3.303467631340027">
        <ele>393.80000000000001</ele>
        <time>2014-09-06T11:27:59Z</time>
      </trkpt>
      <trkpt lat="39.721417352557182" lon="3.303519012406468">
        <ele>393.31999999999999</ele>
        <time>2014-09-06T11:28:10Z</time>
      </trkpt>
      <trkpt lat="39.721524389460683" lon="3.303551701828837">
        <ele>392.36000000000001</ele>
        <time>2014-09-06T11:28:19Z</time>
      </trkpt>
      <trkpt lat="39.721549954265356" lon="3.303555892780423">
        <ele>392.36000000000001</ele>
        <time>2014-09-06T11:28:20Z</time>
      </trkpt>
      <trkpt lat="39.721604268997908" lon="3.303569639101625">
        <ele>392.83999999999997</ele>
        <time>2014-09-06T11:28:24Z</time>
      </trkpt>
      <trkpt lat="39.721677610650659" lon="3.303572237491608">
        <ele>392.36000000000001</ele>
        <time>2014-09-06T11:28:29Z</time>
      </trkpt>
      <trkpt lat="39.721730081364512" lon="3.303594281896949">
        <ele>392.36000000000001</ele>
        <time>2014-09-06T11:28:35Z</time>
      </trkpt>
      <trkpt lat="39.721876094117761" lon="3.303651278838515">
        <ele>391.87</ele>
        <time>2014-09-06T11:28:47Z</time>
      </trkpt>
      <trkpt lat="39.721985477954149" lon="3.303679022938013">
        <ele>391.38999999999999</ele>
        <time>2014-09-06T11:28:56Z</time>
      </trkpt>
      <trkpt lat="39.72202705219388" lon="3.303686063736677">
        <ele>390.91000000000003</ele>
        <time>2014-09-06T11:28:58Z</time>
      </trkpt>
      <trkpt lat="39.72205345518887" lon="3.303690170869231">
        <ele>390.91000000000003</ele>
        <time>2014-09-06T11:28:59Z</time>
      </trkpt>
      <trkpt lat="39.722123611718416" lon="3.303696708753705">
        <ele>390.43000000000001</ele>
        <time>2014-09-06T11:29:08Z</time>
      </trkpt>
      <trkpt lat="39.722155798226595" lon="3.303695283830166">
        <ele>389.94999999999999</ele>
        <time>2014-09-06T11:29:19Z</time>
      </trkpt>
      <trkpt lat="39.722180021926761" lon="3.303693775087595">
        <ele>390.43000000000001</ele>
        <time>2014-09-06T11:29:23Z</time>
      </trkpt>
      <trkpt lat="39.722196785733104" lon="3.303690925240517">
        <ele>389.94999999999999</ele>
        <time>2014-09-06T11:29:24Z</time>
      </trkpt>
      <trkpt lat="39.722223272547126" lon="3.303680950775743">
        <ele>389.47000000000003</ele>
        <time>2014-09-06T11:29:27Z</time>
      </trkpt>
      <trkpt lat="39.722241042181849" lon="3.303669383749366">
        <ele>389.47000000000003</ele>
        <time>2014-09-06T11:29:28Z</time>
      </trkpt>
      <trkpt lat="39.722275407984853" lon="3.303643567487598">
        <ele>389.47000000000003</ele>
        <time>2014-09-06T11:29:33Z</time>
      </trkpt>
      <trkpt lat="39.722404656931758" lon="3.303490011021495">
        <ele>387.06999999999999</ele>
        <time>2014-09-06T11:29:43Z</time>
      </trkpt>
      <trkpt lat="39.722414715215564" lon="3.303476264700294">
        <ele>387.06999999999999</ele>
        <time>2014-09-06T11:29:47Z</time>
      </trkpt>
      <trkpt lat="39.722506664693356" lon="3.303387835621834">
        <ele>386.58999999999997</ele>
        <time>2014-09-06T11:29:57Z</time>
      </trkpt>
      <trkpt lat="39.722617389634252" lon="3.303329832851887">
        <ele>387.06999999999999</ele>
        <time>2014-09-06T11:30:06Z</time>
      </trkpt>
      <trkpt lat="39.72270430997014" lon="3.303290773183107">
        <ele>386.11000000000001</ele>
        <time>2014-09-06T11:30:15Z</time>
      </trkpt>
      <trkpt lat="39.722801456227899" lon="3.303252886980772">
        <ele>385.14999999999998</ele>
        <time>2014-09-06T11:30:24Z</time>
      </trkpt>
      <trkpt lat="39.722860548645258" lon="3.303226819261909">
        <ele>385.14999999999998</ele>
        <time>2014-09-06T11:30:30Z</time>
      </trkpt>
      <trkpt lat="39.72295886836946" lon="3.303188346326351">
        <ele>385.14999999999998</ele>
        <time>2014-09-06T11:30:38Z</time>
      </trkpt>
      <trkpt lat="39.723047884181142" lon="3.303164122626185">
        <ele>384.66000000000003</ele>
        <time>2014-09-06T11:30:46Z</time>
      </trkpt>
      <trkpt lat="39.723064312711358" lon="3.303162613883615">
        <ele>384.66000000000003</ele>
        <time>2014-09-06T11:30:49Z</time>
      </trkpt>
      <trkpt lat="39.72315726801753" lon="3.303102515637875">
        <ele>382.74000000000001</ele>
        <time>2014-09-06T11:30:58Z</time>
      </trkpt>
      <trkpt lat="39.723176127299666" lon="3.303088936954737">
        <ele>382.25999999999999</ele>
        <time>2014-09-06T11:31:01Z</time>
      </trkpt>
      <trkpt lat="39.723238237202168" lon="3.303039399906993">
        <ele>379.38</ele>
        <time>2014-09-06T11:31:09Z</time>
      </trkpt>
      <trkpt lat="39.723248882219195" lon="3.303035963326693">
        <ele>380.81999999999999</ele>
        <time>2014-09-06T11:31:27Z</time>
      </trkpt>
      <trkpt lat="39.72328525967896" lon="3.303016014397144">
        <ele>379.38</ele>
        <time>2014-09-06T11:31:36Z</time>
      </trkpt>
      <trkpt lat="39.723394475877285" lon="3.302967315539718">
        <ele>376.00999999999999</ele>
        <time>2014-09-06T11:31:48Z</time>
      </trkpt>
      <trkpt lat="39.723460609093308" lon="3.302947115153074">
        <ele>374.08999999999997</ele>
        <time>2014-09-06T11:31:58Z</time>
      </trkpt>
      <trkpt lat="39.723593462258577" lon="3.302948707714677">
        <ele>373.13</ele>
        <time>2014-09-06T11:32:08Z</time>
      </trkpt>
      <trkpt lat="39.723714832216501" lon="3.302962454035878">
        <ele>372.17000000000002</ele>
        <time>2014-09-06T11:32:15Z</time>
      </trkpt>
      <trkpt lat="39.723729752004147" lon="3.302959352731705">
        <ele>371.69</ele>
        <time>2014-09-06T11:32:19Z</time>
      </trkpt>
      <trkpt lat="39.723745509982109" lon="3.302958430722356">
        <ele>366.88</ele>
        <time>2014-09-06T11:32:21Z</time>
      </trkpt>
      <trkpt lat="39.723762860521674" lon="3.302957005798817">
        <ele>373.13</ele>
        <time>2014-09-06T11:32:22Z</time>
      </trkpt>
      <trkpt lat="39.723827484995127" lon="3.302956921979785">
        <ele>371.20999999999998</ele>
        <time>2014-09-06T11:32:26Z</time>
      </trkpt>
      <trkpt lat="39.723957739770412" lon="3.30301777459681">
        <ele>369.75999999999999</ele>
        <time>2014-09-06T11:32:37Z</time>
      </trkpt>
      <trkpt lat="39.724038792774081" lon="3.303102180361748">
        <ele>369.27999999999997</ele>
        <time>2014-09-06T11:32:45Z</time>
      </trkpt>
      <trkpt lat="39.724110960960388" lon="3.303210977464914">
        <ele>367.83999999999997</ele>
        <time>2014-09-06T11:32:54Z</time>
      </trkpt>
      <trkpt lat="39.724189331755042" lon="3.303293539211154">
        <ele>365.92000000000002</ele>
        <time>2014-09-06T11:33:05Z</time>
      </trkpt>
      <trkpt lat="39.724254040047526" lon="3.303379202261567">
        <ele>363.51999999999998</ele>
        <time>2014-09-06T11:33:12Z</time>
      </trkpt>
      <trkpt lat="39.724260661751032" lon="3.303380543366075">
        <ele>363.04000000000002</ele>
        <time>2014-09-06T11:33:14Z</time>
      </trkpt>
      <trkpt lat="39.724310366436839" lon="3.303468218073249">
        <ele>362.06999999999999</ele>
        <time>2014-09-06T11:33:22Z</time>
      </trkpt>
      <trkpt lat="39.724315144121647" lon="3.303481377661228">
        <ele>361.11000000000001</ele>
        <time>2014-09-06T11:33:24Z</time>
      </trkpt>
      <trkpt lat="39.724342385306954" lon="3.303558323532343">
        <ele>359.67000000000002</ele>
        <time>2014-09-06T11:33:30Z</time>
      </trkpt>
      <trkpt lat="39.724365351721644" lon="3.303681453689933">
        <ele>357.26999999999998</ele>
        <time>2014-09-06T11:33:40Z</time>
      </trkpt>
      <trkpt lat="39.724386474117637" lon="3.303770218044519">
        <ele>355.33999999999997</ele>
        <time>2014-09-06T11:33:46Z</time>
      </trkpt>
      <trkpt lat="39.724539527669549" lon="3.303830903023481">
        <ele>353.42000000000002</ele>
        <time>2014-09-06T11:33:57Z</time>
      </trkpt>
      <trkpt lat="39.72459627315402" lon="3.303799722343683">
        <ele>352.94</ele>
        <time>2014-09-06T11:34:03Z</time>
      </trkpt>
      <trkpt lat="39.724684869870543" lon="3.303699726238847">
        <ele>351.98000000000002</ele>
        <time>2014-09-06T11:34:13Z</time>
      </trkpt>
      <trkpt lat="39.724695766344666" lon="3.30368229188025">
        <ele>352.45999999999998</ele>
        <time>2014-09-06T11:34:14Z</time>
      </trkpt>
      <trkpt lat="39.724714625626802" lon="3.303664522245526">
        <ele>351.98000000000002</ele>
        <time>2014-09-06T11:34:17Z</time>
      </trkpt>
      <trkpt lat="39.724726444110274" lon="3.303637700155377">
        <ele>351.5</ele>
        <time>2014-09-06T11:34:19Z</time>
      </trkpt>
      <trkpt lat="39.724753769114614" lon="3.303597634658217">
        <ele>351.01999999999998</ele>
        <time>2014-09-06T11:34:24Z</time>
      </trkpt>
      <trkpt lat="39.724814621731639" lon="3.303571231663227">
        <ele>350.54000000000002</ele>
        <time>2014-09-06T11:34:31Z</time>
      </trkpt>
      <trkpt lat="39.724879497662187" lon="3.303520604968071">
        <ele>349.10000000000002</ele>
        <time>2014-09-06T11:34:39Z</time>
      </trkpt>
      <trkpt lat="39.724964154884219" lon="3.303512139245868">
        <ele>346.69</ele>
        <time>2014-09-06T11:34:48Z</time>
      </trkpt>
      <trkpt lat="39.725028108805418" lon="3.303504260256887">
        <ele>345.25</ele>
        <time>2014-09-06T11:34:53Z</time>
      </trkpt>
      <trkpt lat="39.725034479051828" lon="3.303503086790443">
        <ele>344.76999999999998</ele>
        <time>2014-09-06T11:34:55Z</time>
      </trkpt>
      <trkpt lat="39.725151071324944" lon="3.303477186709642">
        <ele>343.32999999999998</ele>
        <time>2014-09-06T11:35:05Z</time>
      </trkpt>
      <trkpt lat="39.725256599485874" lon="3.303475175052881">
        <ele>341.41000000000003</ele>
        <time>2014-09-06T11:35:14Z</time>
      </trkpt>
      <trkpt lat="39.725350309163332" lon="3.303527561947703">
        <ele>339.95999999999998</ele>
        <time>2014-09-06T11:35:22Z</time>
      </trkpt>
      <trkpt lat="39.725407222285867" lon="3.303572153672576">
        <ele>339</ele>
        <time>2014-09-06T11:35:29Z</time>
      </trkpt>
      <trkpt lat="39.725506212562323" lon="3.303607609122992">
        <ele>338.04000000000002</ele>
        <time>2014-09-06T11:35:37Z</time>
      </trkpt>
      <trkpt lat="39.725627582520247" lon="3.303635185584426">
        <ele>336.12</ele>
        <time>2014-09-06T11:35:46Z</time>
      </trkpt>
      <trkpt lat="39.725700924172997" lon="3.303659912198782">
        <ele>335.16000000000003</ele>
        <time>2014-09-06T11:35:54Z</time>
      </trkpt>
      <trkpt lat="39.72575481981039" lon="3.303669970482588">
        <ele>334.19999999999999</ele>
        <time>2014-09-06T11:36:00Z</time>
      </trkpt>
      <trkpt lat="39.725815001875162" lon="3.303670641034842">
        <ele>333.23000000000002</ele>
        <time>2014-09-06T11:36:07Z</time>
      </trkpt>
      <trkpt lat="39.725866299122572" lon="3.303671479225159">
        <ele>331.79000000000002</ele>
        <time>2014-09-06T11:36:10Z</time>
      </trkpt>
      <trkpt lat="39.725939724594355" lon="3.303681202232838">
        <ele>329.87</ele>
        <time>2014-09-06T11:36:17Z</time>
      </trkpt>
      <trkpt lat="39.726067129522562" lon="3.30369452945888">
        <ele>327.94999999999999</ele>
        <time>2014-09-06T11:36:27Z</time>
      </trkpt>
      <trkpt lat="39.726138208061457" lon="3.303696792572737">
        <ele>326.99000000000001</ele>
        <time>2014-09-06T11:36:35Z</time>
      </trkpt>
      <trkpt lat="39.726194785907865" lon="3.303692685440183">
        <ele>325.54000000000002</ele>
        <time>2014-09-06T11:36:40Z</time>
      </trkpt>
      <trkpt lat="39.726286567747593" lon="3.303668880835176">
        <ele>323.13999999999999</ele>
        <time>2014-09-06T11:36:49Z</time>
      </trkpt>
      <trkpt lat="39.726353287696838" lon="3.303686985746026">
        <ele>323.13999999999999</ele>
        <time>2014-09-06T11:36:55Z</time>
      </trkpt>
      <trkpt lat="39.726439286023378" lon="3.303637364879251">
        <ele>322.18000000000001</ele>
        <time>2014-09-06T11:37:01Z</time>
      </trkpt>
      <trkpt lat="39.726493768393993" lon="3.303660498932004">
        <ele>321.69999999999999</ele>
        <time>2014-09-06T11:37:06Z</time>
      </trkpt>
      <trkpt lat="39.726586556062102" lon="3.303754376247525">
        <ele>319.77999999999997</ele>
        <time>2014-09-06T11:37:16Z</time>
      </trkpt>
      <trkpt lat="39.726587142795324" lon="3.303772816434503">
        <ele>319.77999999999997</ele>
        <time>2014-09-06T11:37:18Z</time>
      </trkpt>
      <trkpt lat="39.726575408130884" lon="3.30377952195704">
        <ele>318.81</ele>
        <time>2014-09-06T11:37:20Z</time>
      </trkpt>
      <trkpt lat="39.726540790870786" lon="3.303815564140678">
        <ele>318.32999999999998</ele>
        <time>2014-09-06T11:37:25Z</time>
      </trkpt>
      <trkpt lat="39.726507179439068" lon="3.303881697356701">
        <ele>316.88999999999999</ele>
        <time>2014-09-06T11:37:31Z</time>
      </trkpt>
      <trkpt lat="39.726437022909522" lon="3.304049083963037">
        <ele>315.44999999999999</ele>
        <time>2014-09-06T11:37:39Z</time>
      </trkpt>
      <trkpt lat="39.72641933709383" lon="3.304078923538327">
        <ele>315.44999999999999</ele>
        <time>2014-09-06T11:37:41Z</time>
      </trkpt>
      <trkpt lat="39.726365944370627" lon="3.304099962115288">
        <ele>314.97000000000003</ele>
        <time>2014-09-06T11:37:46Z</time>
      </trkpt>
      <trkpt lat="39.726317245513201" lon="3.304119743406773">
        <ele>314.97000000000003</ele>
        <time>2014-09-06T11:37:54Z</time>
      </trkpt>
      <trkpt lat="39.72624683752656" lon="3.304208926856518">
        <ele>314.00999999999999</ele>
        <time>2014-09-06T11:38:02Z</time>
      </trkpt>
      <trkpt lat="39.726174669340253" lon="3.304336750879884">
        <ele>311.60000000000002</ele>
        <time>2014-09-06T11:38:11Z</time>
      </trkpt>
      <trkpt lat="39.726117756217718" lon="3.304360136389732">
        <ele>312.08999999999997</ele>
        <time>2014-09-06T11:38:17Z</time>
      </trkpt>
      <trkpt lat="39.726032512262464" lon="3.304390227422118">
        <ele>313.52999999999997</ele>
        <time>2014-09-06T11:38:28Z</time>
      </trkpt>
      <trkpt lat="39.726032512262464" lon="3.304390227422118">
        <ele>313.05000000000001</ele>
        <time>2014-09-06T11:38:29Z</time>
      </trkpt>
      <trkpt lat="39.725998817011714" lon="3.304382767528296">
        <ele>314.00999999999999</ele>
        <time>2014-09-06T11:38:33Z</time>
      </trkpt>
      <trkpt lat="39.725962104275823" lon="3.304373463615775">
        <ele>315.44999999999999</ele>
        <time>2014-09-06T11:38:38Z</time>
      </trkpt>
      <trkpt lat="39.725841907784343" lon="3.304391317069531">
        <ele>316.88999999999999</ele>
        <time>2014-09-06T11:38:47Z</time>
      </trkpt>
      <trkpt lat="39.725839477032423" lon="3.304391317069531">
        <ele>316.88999999999999</ele>
        <time>2014-09-06T11:38:49Z</time>
      </trkpt>
      <trkpt lat="39.725778372958302" lon="3.304386120289564">
        <ele>317.85000000000002</ele>
        <time>2014-09-06T11:38:54Z</time>
      </trkpt>
      <trkpt lat="39.725764878094196" lon="3.304388886317611">
        <ele>318.32999999999998</ele>
        <time>2014-09-06T11:38:55Z</time>
      </trkpt>
      <trkpt lat="39.725705031305552" lon="3.304430628195405">
        <ele>318.32999999999998</ele>
        <time>2014-09-06T11:39:02Z</time>
      </trkpt>
      <trkpt lat="39.725675191730261" lon="3.30447287298739">
        <ele>316.41000000000003</ele>
        <time>2014-09-06T11:39:08Z</time>
      </trkpt>
      <trkpt lat="39.725609980523586" lon="3.304550992324948">
        <ele>314.49000000000001</ele>
        <time>2014-09-06T11:39:14Z</time>
      </trkpt>
      <trkpt lat="39.725632527843118" lon="3.304571947082877">
        <ele>314.00999999999999</ele>
        <time>2014-09-06T11:39:17Z</time>
      </trkpt>
      <trkpt lat="39.725511576980352" lon="3.304712092503905">
        <ele>313.05000000000001</ele>
        <time>2014-09-06T11:39:26Z</time>
      </trkpt>
      <trkpt lat="39.725511576980352" lon="3.304712092503905">
        <ele>313.05000000000001</ele>
        <time>2014-09-06T11:39:27Z</time>
      </trkpt>
      <trkpt lat="39.725429266691208" lon="3.304781913757324">
        <ele>312.56999999999999</ele>
        <time>2014-09-06T11:39:36Z</time>
      </trkpt>
      <trkpt lat="39.725326336920261" lon="3.304850813001394">
        <ele>312.08999999999997</ele>
        <time>2014-09-06T11:39:42Z</time>
      </trkpt>
      <trkpt lat="39.725191136822104" lon="3.304946199059486">
        <ele>310.63999999999999</ele>
        <time>2014-09-06T11:39:52Z</time>
      </trkpt>
      <trkpt lat="39.725184850394726" lon="3.30496933311224">
        <ele>310.63999999999999</ele>
        <time>2014-09-06T11:39:56Z</time>
      </trkpt>
      <trkpt lat="39.725064318627119" lon="3.305027084425092">
        <ele>310.16000000000003</ele>
        <time>2014-09-06T11:40:07Z</time>
      </trkpt>
      <trkpt lat="39.724964154884219" lon="3.305110735818744">
        <ele>310.16000000000003</ele>
        <time>2014-09-06T11:40:16Z</time>
      </trkpt>
      <trkpt lat="39.724838007241488" lon="3.305218024179339">
        <ele>309.68000000000001</ele>
        <time>2014-09-06T11:40:27Z</time>
      </trkpt>
      <trkpt lat="39.724814789369702" lon="3.305248282849789">
        <ele>309.68000000000001</ele>
        <time>2014-09-06T11:40:30Z</time>
      </trkpt>
      <trkpt lat="39.724792996421456" lon="3.30541742965579">
        <ele>310.63999999999999</ele>
        <time>2014-09-06T11:40:41Z</time>
      </trkpt>
      <trkpt lat="39.724808838218451" lon="3.305515749379993">
        <ele>311.12</ele>
        <time>2014-09-06T11:40:50Z</time>
      </trkpt>
      <trkpt lat="39.724850161001086" lon="3.305615242570639">
        <ele>313.52999999999997</ele>
        <time>2014-09-06T11:41:00Z</time>
      </trkpt>
      <trkpt lat="39.724925430491567" lon="3.305723536759615">
        <ele>314.00999999999999</ele>
        <time>2014-09-06T11:41:11Z</time>
      </trkpt>
      <trkpt lat="39.724925430491567" lon="3.305723536759615">
        <ele>312.08999999999997</ele>
        <time>2014-09-06T11:41:30Z</time>
      </trkpt>
      <trkpt lat="39.724925430491567" lon="3.305723536759615">
        <ele>315.93000000000001</ele>
        <time>2014-09-06T11:41:37Z</time>
      </trkpt>
      <trkpt lat="39.724925430491567" lon="3.305723536759615">
        <ele>315.93000000000001</ele>
        <time>2014-09-06T11:41:38Z</time>
      </trkpt>
      <trkpt lat="39.724925430491567" lon="3.305723536759615">
        <ele>313.52999999999997</ele>
        <time>2014-09-06T11:41:39Z</time>
      </trkpt>
      <trkpt lat="39.724925430491567" lon="3.305723536759615">
        <ele>313.52999999999997</ele>
        <time>2014-09-06T11:41:41Z</time>
      </trkpt>
      <trkpt lat="39.724929202347994" lon="3.305704509839416">
        <ele>313.05000000000001</ele>
        <time>2014-09-06T11:41:59Z</time>
      </trkpt>
      <trkpt lat="39.724929202347994" lon="3.305704509839416">
        <ele>312.56999999999999</ele>
        <time>2014-09-06T11:42:14Z</time>
      </trkpt>
      <trkpt lat="39.724940015003085" lon="3.305699983611703">
        <ele>313.05000000000001</ele>
        <time>2014-09-06T11:42:29Z</time>
      </trkpt>
      <trkpt lat="39.724940015003085" lon="3.305699983611703">
        <ele>313.05000000000001</ele>
        <time>2014-09-06T11:42:52Z</time>
      </trkpt>
      <trkpt lat="39.724994748830795" lon="3.305727308616042">
        <ele>312.08999999999997</ele>
        <time>2014-09-06T11:43:06Z</time>
      </trkpt>
      <trkpt lat="39.725086614489555" lon="3.305793860927224">
        <ele>311.60000000000002</ele>
        <time>2014-09-06T11:43:14Z</time>
      </trkpt>
      <trkpt lat="39.72509952262044" lon="3.305807188153267">
        <ele>311.60000000000002</ele>
        <time>2014-09-06T11:43:18Z</time>
      </trkpt>
      <trkpt lat="39.725237991660833" lon="3.30587818287313">
        <ele>309.68000000000001</ele>
        <time>2014-09-06T11:43:28Z</time>
      </trkpt>
      <trkpt lat="39.72534486092627" lon="3.30593048594892">
        <ele>308.24000000000001</ele>
        <time>2014-09-06T11:43:38Z</time>
      </trkpt>
      <trkpt lat="39.725414514541626" lon="3.305985052138567">
        <ele>307.75999999999999</ele>
        <time>2014-09-06T11:43:45Z</time>
      </trkpt>
      <trkpt lat="39.725466566160321" lon="3.306046659126878">
        <ele>308.24000000000001</ele>
        <time>2014-09-06T11:43:52Z</time>
      </trkpt>
      <trkpt lat="39.725526748225093" lon="3.306146655231714">
        <ele>308.72000000000003</ele>
        <time>2014-09-06T11:44:00Z</time>
      </trkpt>
      <trkpt lat="39.725610064342618" lon="3.306198874488473">
        <ele>308.24000000000001</ele>
        <time>2014-09-06T11:44:07Z</time>
      </trkpt>
      <trkpt lat="39.725626576691866" lon="3.306235000491142">
        <ele>307.27999999999997</ele>
        <time>2014-09-06T11:44:09Z</time>
      </trkpt>
      <trkpt lat="39.725740319117904" lon="3.30635754391551">
        <ele>305.83999999999997</ele>
        <time>2014-09-06T11:44:20Z</time>
      </trkpt>
      <trkpt lat="39.725743923336267" lon="3.306365422904491">
        <ele>305.83999999999997</ele>
        <time>2014-09-06T11:44:21Z</time>
      </trkpt>
      <trkpt lat="39.725784324109554" lon="3.306423593312502">
        <ele>305.83999999999997</ele>
        <time>2014-09-06T11:44:28Z</time>
      </trkpt>
      <trkpt lat="39.725810643285513" lon="3.306538425385952">
        <ele>306.31999999999999</ele>
        <time>2014-09-06T11:44:32Z</time>
      </trkpt>
      <trkpt lat="39.725827490910888" lon="3.306589890271425">
        <ele>305.83999999999997</ele>
        <time>2014-09-06T11:44:38Z</time>
      </trkpt>
      <trkpt lat="39.725855318829417" lon="3.30670983530581">
        <ele>304.88</ele>
        <time>2014-09-06T11:44:47Z</time>
      </trkpt>
      <trkpt lat="39.725858168676496" lon="3.306719558313489">
        <ele>304.88</ele>
        <time>2014-09-06T11:44:48Z</time>
      </trkpt>
      <trkpt lat="39.725918350741267" lon="3.306821146979928">
        <ele>305.36000000000001</ele>
        <time>2014-09-06T11:44:56Z</time>
      </trkpt>
      <trkpt lat="39.725953387096524" lon="3.306888621300459">
        <ele>304.88</ele>
        <time>2014-09-06T11:45:02Z</time>
      </trkpt>
      <trkpt lat="39.72598004154861" lon="3.30697906203568">
        <ele>305.36000000000001</ele>
        <time>2014-09-06T11:45:07Z</time>
      </trkpt>
      <trkpt lat="39.726056568324566" lon="3.307084925472736">
        <ele>306.80000000000001</ele>
        <time>2014-09-06T11:45:16Z</time>
      </trkpt>
      <trkpt lat="39.726105853915215" lon="3.30710219219327">
        <ele>306.80000000000001</ele>
        <time>2014-09-06T11:45:21Z</time>
      </trkpt>
      <trkpt lat="39.726155390962958" lon="3.307130606845021">
        <ele>307.27999999999997</ele>
        <time>2014-09-06T11:45:26Z</time>
      </trkpt>
      <trkpt lat="39.726210040971637" lon="3.307164050638676">
        <ele>307.75999999999999</ele>
        <time>2014-09-06T11:45:32Z</time>
      </trkpt>
      <trkpt lat="39.72627910785377" lon="3.307180730625987">
        <ele>308.24000000000001</ele>
        <time>2014-09-06T11:45:38Z</time>
      </trkpt>
      <trkpt lat="39.726329566910863" lon="3.307191794738174">
        <ele>308.24000000000001</ele>
        <time>2014-09-06T11:45:42Z</time>
      </trkpt>
      <trkpt lat="39.726441716775298" lon="3.307249462231994">
        <ele>310.16000000000003</ele>
        <time>2014-09-06T11:45:53Z</time>
      </trkpt>
      <trkpt lat="39.726544311270118" lon="3.307278715074062">
        <ele>311.12</ele>
        <time>2014-09-06T11:46:03Z</time>
      </trkpt>
      <trkpt lat="39.726665681228042" lon="3.307283660396934">
        <ele>311.60000000000002</ele>
        <time>2014-09-06T11:46:12Z</time>
      </trkpt>
      <trkpt lat="39.726675571873784" lon="3.307283325120807">
        <ele>311.60000000000002</ele>
        <time>2014-09-06T11:46:14Z</time>
      </trkpt>
      <trkpt lat="39.726794930174947" lon="3.307400671765208">
        <ele>313.05000000000001</ele>
        <time>2014-09-06T11:46:27Z</time>
      </trkpt>
      <trkpt lat="39.726865505799651" lon="3.307480216026306">
        <ele>312.56999999999999</ele>
        <time>2014-09-06T11:46:37Z</time>
      </trkpt>
      <trkpt lat="39.726948570460081" lon="3.307586498558521">
        <ele>311.12</ele>
        <time>2014-09-06T11:46:46Z</time>
      </trkpt>
      <trkpt lat="39.72696709446609" lon="3.30773008055985">
        <ele>310.16000000000003</ele>
        <time>2014-09-06T11:46:52Z</time>
      </trkpt>
      <trkpt lat="39.726980421692133" lon="3.307745754718781">
        <ele>310.16000000000003</ele>
        <time>2014-09-06T11:46:55Z</time>
      </trkpt>
      <trkpt lat="39.727008249610662" lon="3.30780291929841">
        <ele>309.68000000000001</ele>
        <time>2014-09-06T11:46:59Z</time>
      </trkpt>
      <trkpt lat="39.727059882134199" lon="3.30793091095984">
        <ele>307.75999999999999</ele>
        <time>2014-09-06T11:47:09Z</time>
      </trkpt>
      <trkpt lat="39.72712148912251" lon="3.308040630072355">
        <ele>307.27999999999997</ele>
        <time>2014-09-06T11:47:17Z</time>
      </trkpt>
      <trkpt lat="39.727126434445381" lon="3.308062255382538">
        <ele>307.75999999999999</ele>
        <time>2014-09-06T11:47:19Z</time>
      </trkpt>
      <trkpt lat="39.727183766663074" lon="3.308098213747144">
        <ele>307.75999999999999</ele>
        <time>2014-09-06T11:47:26Z</time>
      </trkpt>
      <trkpt lat="39.7273257561028" lon="3.308141548186541">
        <ele>308.24000000000001</ele>
        <time>2014-09-06T11:47:36Z</time>
      </trkpt>
      <trkpt lat="39.727353164926171" lon="3.308143308386207">
        <ele>307.75999999999999</ele>
        <time>2014-09-06T11:47:39Z</time>
      </trkpt>
      <trkpt lat="39.727458693087101" lon="3.308157557621598">
        <ele>308.72000000000003</ele>
        <time>2014-09-06T11:47:47Z</time>
      </trkpt>
      <trkpt lat="39.727522060275078" lon="3.308144146576524">
        <ele>309.68000000000001</ele>
        <time>2014-09-06T11:47:54Z</time>
      </trkpt>
      <trkpt lat="39.727575117722154" lon="3.308090837672353">
        <ele>309.68000000000001</ele>
        <time>2014-09-06T11:48:02Z</time>
      </trkpt>
      <trkpt lat="39.72767410799861" lon="3.308074744418263">
        <ele>309.68000000000001</ele>
        <time>2014-09-06T11:48:10Z</time>
      </trkpt>
      <trkpt lat="39.727740325033665" lon="3.308059154078364">
        <ele>310.16000000000003</ele>
        <time>2014-09-06T11:48:16Z</time>
      </trkpt>
      <trkpt lat="39.727933779358864" lon="3.307978101074696">
        <ele>310.63999999999999</ele>
        <time>2014-09-06T11:48:29Z</time>
      </trkpt>
      <trkpt lat="39.728036457672715" lon="3.307946920394898">
        <ele>311.60000000000002</ele>
        <time>2014-09-06T11:48:39Z</time>
      </trkpt>
      <trkpt lat="39.728048946708441" lon="3.307946333661676">
        <ele>312.08999999999997</ele>
        <time>2014-09-06T11:48:41Z</time>
      </trkpt>
      <trkpt lat="39.728081384673715" lon="3.307939376682043">
        <ele>312.08999999999997</ele>
        <time>2014-09-06T11:48:45Z</time>
      </trkpt>
      <trkpt lat="39.728190517053008" lon="3.307931078597903">
        <ele>312.56999999999999</ele>
        <time>2014-09-06T11:48:54Z</time>
      </trkpt>
      <trkpt lat="39.728280957788229" lon="3.307922193780541">
        <ele>312.56999999999999</ele>
        <time>2014-09-06T11:49:01Z</time>
      </trkpt>
      <trkpt lat="39.728385396301746" lon="3.307915236800909">
        <ele>313.52999999999997</ele>
        <time>2014-09-06T11:49:09Z</time>
      </trkpt>
      <trkpt lat="39.728435352444649" lon="3.30791381187737">
        <ele>314.00999999999999</ele>
        <time>2014-09-06T11:49:15Z</time>
      </trkpt>
      <trkpt lat="39.728494696319103" lon="3.30795438028872">
        <ele>315.44999999999999</ele>
        <time>2014-09-06T11:49:20Z</time>
      </trkpt>
      <trkpt lat="39.728573234751821" lon="3.308024704456329">
        <ele>316.88999999999999</ele>
        <time>2014-09-06T11:49:29Z</time>
      </trkpt>
      <trkpt lat="39.728627298027277" lon="3.308139201253653">
        <ele>318.81</ele>
        <time>2014-09-06T11:49:42Z</time>
      </trkpt>
      <trkpt lat="39.728657808154821" lon="3.308175494894385">
        <ele>319.77999999999997</ele>
        <time>2014-09-06T11:49:48Z</time>
      </trkpt>
      <trkpt lat="39.728696113452315" lon="3.308231988921762">
        <ele>320.74000000000001</ele>
        <time>2014-09-06T11:49:53Z</time>
      </trkpt>
      <trkpt lat="39.728709943592548" lon="3.308264762163162">
        <ele>321.22000000000003</ele>
        <time>2014-09-06T11:49:56Z</time>
      </trkpt>
      <trkpt lat="39.728734837844968" lon="3.308272389695048">
        <ele>321.69999999999999</ele>
        <time>2014-09-06T11:50:01Z</time>
      </trkpt>
      <trkpt lat="39.728825194761157" lon="3.308231318369508">
        <ele>323.62</ele>
        <time>2014-09-06T11:50:12Z</time>
      </trkpt>
      <trkpt lat="39.72889669239521" lon="3.308141632005572">
        <ele>325.06</ele>
        <time>2014-09-06T11:50:23Z</time>
      </trkpt>
      <trkpt lat="39.728920161724091" lon="3.308127298951149">
        <ele>325.54000000000002</ele>
        <time>2014-09-06T11:50:27Z</time>
      </trkpt>
      <trkpt lat="39.728948324918747" lon="3.308102656155825">
        <ele>326.5</ele>
        <time>2014-09-06T11:50:31Z</time>
      </trkpt>
      <trkpt lat="39.728954024612904" lon="3.30818354152143">
        <ele>327.47000000000003</ele>
        <time>2014-09-06T11:50:39Z</time>
      </trkpt>
      <trkpt lat="39.729001298546791" lon="3.308229725807905">
        <ele>330.82999999999998</ele>
        <time>2014-09-06T11:50:50Z</time>
      </trkpt>
      <trkpt lat="39.729059049859643" lon="3.308152863755822">
        <ele>330.82999999999998</ele>
        <time>2014-09-06T11:50:58Z</time>
      </trkpt>
      <trkpt lat="39.729107497259974" lon="3.30808924511075">
        <ele>332.26999999999998</ele>
        <time>2014-09-06T11:51:06Z</time>
      </trkpt>
      <trkpt lat="39.729128703474998" lon="3.308033840730786">
        <ele>332.75</ele>
        <time>2014-09-06T11:51:10Z</time>
      </trkpt>
      <trkpt lat="39.729135492816567" lon="3.308021519333124">
        <ele>332.26999999999998</ele>
        <time>2014-09-06T11:51:11Z</time>
      </trkpt>
      <trkpt lat="39.729158626869321" lon="3.307953206822276">
        <ele>333.23000000000002</ele>
        <time>2014-09-06T11:51:16Z</time>
      </trkpt>
      <trkpt lat="39.729196345433593" lon="3.307819683104754">
        <ele>334.19999999999999</ele>
        <time>2014-09-06T11:51:26Z</time>
      </trkpt>
      <trkpt lat="39.729200201109052" lon="3.307761093601584">
        <ele>335.16000000000003</ele>
        <time>2014-09-06T11:51:31Z</time>
      </trkpt>
      <trkpt lat="39.729218976572156" lon="3.307701917365193">
        <ele>335.16000000000003</ele>
        <time>2014-09-06T11:51:35Z</time>
      </trkpt>
      <trkpt lat="39.729262981563807" lon="3.307599658146501">
        <ele>337.07999999999998</ele>
        <time>2014-09-06T11:51:44Z</time>
      </trkpt>
      <trkpt lat="39.729268345981836" lon="3.307609800249338">
        <ele>337.07999999999998</ele>
        <time>2014-09-06T11:51:46Z</time>
      </trkpt>
      <trkpt lat="39.729307070374489" lon="3.307716669514775">
        <ele>339</ele>
        <time>2014-09-06T11:51:57Z</time>
      </trkpt>
      <trkpt lat="39.729338251054287" lon="3.3077188488096">
        <ele>339</ele>
        <time>2014-09-06T11:52:01Z</time>
      </trkpt>
      <trkpt lat="39.729352751746774" lon="3.307690685614944">
        <ele>339.48000000000002</ele>
        <time>2014-09-06T11:52:04Z</time>
      </trkpt>
      <trkpt lat="39.729369431734085" lon="3.307601837441325">
        <ele>340.44</ele>
        <time>2014-09-06T11:52:10Z</time>
      </trkpt>
      <trkpt lat="39.729367587715387" lon="3.307551881298423">
        <ele>340.92000000000002</ele>
        <time>2014-09-06T11:52:15Z</time>
      </trkpt>
      <trkpt lat="39.729371275752783" lon="3.307532351464033">
        <ele>341.41000000000003</ele>
        <time>2014-09-06T11:52:17Z</time>
      </trkpt>
      <trkpt lat="39.729370353743434" lon="3.307484071701765">
        <ele>341.41000000000003</ele>
        <time>2014-09-06T11:52:20Z</time>
      </trkpt>
      <trkpt lat="39.729387033730745" lon="3.307432942092419">
        <ele>341.88999999999999</ele>
        <time>2014-09-06T11:52:23Z</time>
      </trkpt>
      <trkpt lat="39.729459201917052" lon="3.307283241301775">
        <ele>342.85000000000002</ele>
        <time>2014-09-06T11:52:36Z</time>
      </trkpt>
      <trkpt lat="39.729461129754782" lon="3.307279720902443">
        <ele>342.85000000000002</ele>
        <time>2014-09-06T11:52:37Z</time>
      </trkpt>
      <trkpt lat="39.729573614895344" lon="3.307178048416972">
        <ele>346.20999999999998</ele>
        <time>2014-09-06T11:52:50Z</time>
      </trkpt>
      <trkpt lat="39.729596581310034" lon="3.307164385914803">
        <ele>346.20999999999998</ele>
        <time>2014-09-06T11:52:54Z</time>
      </trkpt>
      <trkpt lat="39.729635892435908" lon="3.307147119194269">
        <ele>346.69</ele>
        <time>2014-09-06T11:52:59Z</time>
      </trkpt>
      <trkpt lat="39.729682831093669" lon="3.307131696492434">
        <ele>347.64999999999998</ele>
        <time>2014-09-06T11:53:04Z</time>
      </trkpt>
      <trkpt lat="39.729731865227222" lon="3.307115519419313">
        <ele>348.13</ele>
        <time>2014-09-06T11:53:09Z</time>
      </trkpt>
      <trkpt lat="39.729785593226552" lon="3.307130355387926">
        <ele>349.10000000000002</ele>
        <time>2014-09-06T11:53:18Z</time>
      </trkpt>
      <trkpt lat="39.729793053120375" lon="3.307137060910463">
        <ele>348.62</ele>
        <time>2014-09-06T11:53:23Z</time>
      </trkpt>
      <trkpt lat="39.729839153587818" lon="3.307163631543517">
        <ele>348.62</ele>
        <time>2014-09-06T11:53:26Z</time>
      </trkpt>
      <trkpt lat="39.72987687215209" lon="3.307177210226655">
        <ele>347.17000000000002</ele>
        <time>2014-09-06T11:53:32Z</time>
      </trkpt>
      <trkpt lat="39.729951806366444" lon="3.30717645585537">
        <ele>346.69</ele>
        <time>2014-09-06T11:53:39Z</time>
      </trkpt>
      <trkpt lat="39.72996287047863" lon="3.307174947112799">
        <ele>345.73000000000002</ele>
        <time>2014-09-06T11:53:40Z</time>
      </trkpt>
      <trkpt lat="39.730023304000497" lon="3.307187100872397">
        <ele>345.25</ele>
        <time>2014-09-06T11:53:44Z</time>
      </trkpt>
      <trkpt lat="39.730055993422866" lon="3.307183161377907">
        <ele>344.76999999999998</ele>
        <time>2014-09-06T11:53:49Z</time>
      </trkpt>
      <trkpt lat="39.730158504098654" lon="3.307193974032998">
        <ele>343.32999999999998</ele>
        <time>2014-09-06T11:54:00Z</time>
      </trkpt>
      <trkpt lat="39.730185493826866" lon="3.307185592129827">
        <ele>343.32999999999998</ele>
        <time>2014-09-06T11:54:04Z</time>
      </trkpt>
      <trkpt lat="39.730287753045559" lon="3.307206630706787">
        <ele>340.92000000000002</ele>
        <time>2014-09-06T11:54:12Z</time>
      </trkpt>
      <trkpt lat="39.730287920683622" lon="3.307211240753532">
        <ele>340.92000000000002</ele>
        <time>2014-09-06T11:54:14Z</time>
      </trkpt>
      <trkpt lat="39.730376098304987" lon="3.307229680940509">
        <ele>339.95999999999998</ele>
        <time>2014-09-06T11:54:22Z</time>
      </trkpt>
      <trkpt lat="39.730548933148384" lon="3.307327665388584">
        <ele>339</ele>
        <time>2014-09-06T11:54:31Z</time>
      </trkpt>
      <trkpt lat="39.730689330026507" lon="3.307437552139163">
        <ele>338.04000000000002</ele>
        <time>2014-09-06T11:54:47Z</time>
      </trkpt>
      <trkpt lat="39.730764264240861" lon="3.307481640949845">
        <ele>336.12</ele>
        <time>2014-09-06T11:54:56Z</time>
      </trkpt>
      <trkpt lat="39.730829810723662" lon="3.307524640113115">
        <ele>336.60000000000002</ele>
        <time>2014-09-06T11:55:00Z</time>
      </trkpt>
      <trkpt lat="39.731003819033504" lon="3.307667467743158">
        <ele>333.70999999999998</ele>
        <time>2014-09-06T11:55:17Z</time>
      </trkpt>
      <trkpt lat="39.73109845072031" lon="3.307730415835977">
        <ele>331.79000000000002</ele>
        <time>2014-09-06T11:55:24Z</time>
      </trkpt>
      <trkpt lat="39.731164835393429" lon="3.307779198512435">
        <ele>332.75</ele>
        <time>2014-09-06T11:55:39Z</time>
      </trkpt>
      <trkpt lat="39.731230884790421" lon="3.307827562093735">
        <ele>330.35000000000002</ele>
        <time>2014-09-06T11:55:44Z</time>
      </trkpt>
      <trkpt lat="39.731296263635159" lon="3.307883301749826">
        <ele>329.38999999999999</ele>
        <time>2014-09-06T11:55:54Z</time>
      </trkpt>
      <trkpt lat="39.731414029374719" lon="3.308012885972858">
        <ele>328.91000000000003</ele>
        <time>2014-09-06T11:56:06Z</time>
      </trkpt>
      <trkpt lat="39.731468260288239" lon="3.308093184605241">
        <ele>327.94999999999999</ele>
        <time>2014-09-06T11:56:15Z</time>
      </trkpt>
      <trkpt lat="39.731493657454848" lon="3.308107936754823">
        <ele>327.47000000000003</ele>
        <time>2014-09-06T11:56:17Z</time>
      </trkpt>
      <trkpt lat="39.731557359918952" lon="3.308130735531449">
        <ele>326.99000000000001</ele>
        <time>2014-09-06T11:56:21Z</time>
      </trkpt>
      <trkpt lat="39.731640424579382" lon="3.308203406631947">
        <ele>326.01999999999998</ele>
        <time>2014-09-06T11:56:28Z</time>
      </trkpt>
      <trkpt lat="39.731710916385055" lon="3.308238694444299">
        <ele>325.06</ele>
        <time>2014-09-06T11:56:32Z</time>
      </trkpt>
      <trkpt lat="39.731731116771698" lon="3.308248333632946">
        <ele>324.57999999999998</ele>
        <time>2014-09-06T11:56:36Z</time>
      </trkpt>
      <trkpt lat="39.73174880258739" lon="3.308260655030608">
        <ele>323.62</ele>
        <time>2014-09-06T11:56:38Z</time>
      </trkpt>
      <trkpt lat="39.731840752065182" lon="3.308310862630606">
        <ele>323.13999999999999</ele>
        <time>2014-09-06T11:56:46Z</time>
      </trkpt>
      <trkpt lat="39.731949213892221" lon="3.308336930349469">
        <ele>321.69999999999999</ele>
        <time>2014-09-06T11:56:56Z</time>
      </trkpt>
      <trkpt lat="39.73199900239706" lon="3.308350844308734">
        <ele>321.22000000000003</ele>
        <time>2014-09-06T11:57:01Z</time>
      </trkpt>
      <trkpt lat="39.732083659619093" lon="3.308345647528768">
        <ele>320.25999999999999</ele>
        <time>2014-09-06T11:57:06Z</time>
      </trkpt>
      <trkpt lat="39.732135375961661" lon="3.30835503526032">
        <ele>319.77999999999997</ele>
        <time>2014-09-06T11:57:10Z</time>
      </trkpt>
      <trkpt lat="39.732167311012745" lon="3.308350425213575">
        <ele>318.81</ele>
        <time>2014-09-06T11:57:14Z</time>
      </trkpt>
      <trkpt lat="39.732303516939282" lon="3.308306587859988">
        <ele>318.32999999999998</ele>
        <time>2014-09-06T11:57:25Z</time>
      </trkpt>
      <trkpt lat="39.732331177219748" lon="3.308288063853979">
        <ele>317.85000000000002</ele>
        <time>2014-09-06T11:57:27Z</time>
      </trkpt>
      <trkpt lat="39.732422204688191" lon="3.308273479342461">
        <ele>317.37</ele>
        <time>2014-09-06T11:57:35Z</time>
      </trkpt>
      <trkpt lat="39.732421869412065" lon="3.30827540718019">
        <ele>317.85000000000002</ele>
        <time>2014-09-06T11:57:36Z</time>
      </trkpt>
      <trkpt lat="39.73253695294261" lon="3.308221595361829">
        <ele>316.88999999999999</ele>
        <time>2014-09-06T11:57:45Z</time>
      </trkpt>
      <trkpt lat="39.732593949884176" lon="3.308201311156154">
        <ele>315.93000000000001</ele>
        <time>2014-09-06T11:57:50Z</time>
      </trkpt>
      <trkpt lat="39.73267575725913" lon="3.308171890676022">
        <ele>315.44999999999999</ele>
        <time>2014-09-06T11:57:56Z</time>
      </trkpt>
      <trkpt lat="39.732733005657792" lon="3.308151355013251">
        <ele>315.93000000000001</ele>
        <time>2014-09-06T11:58:00Z</time>
      </trkpt>
      <trkpt lat="39.732798552140594" lon="3.308143727481365">
        <ele>315.44999999999999</ele>
        <time>2014-09-06T11:58:06Z</time>
      </trkpt>
      <trkpt lat="39.732871642336249" lon="3.308113971725106">
        <ele>314.97000000000003</ele>
        <time>2014-09-06T11:58:10Z</time>
      </trkpt>
      <trkpt lat="39.732950432226062" lon="3.308135261759162">
        <ele>314.97000000000003</ele>
        <time>2014-09-06T11:58:17Z</time>
      </trkpt>
      <trkpt lat="39.733003322035074" lon="3.308140793815255">
        <ele>314.49000000000001</ele>
        <time>2014-09-06T11:58:23Z</time>
      </trkpt>
      <trkpt lat="39.733031401410699" lon="3.308176081627607">
        <ele>314.49000000000001</ele>
        <time>2014-09-06T11:58:27Z</time>
      </trkpt>
      <trkpt lat="39.733034586533904" lon="3.308230899274349">
        <ele>314.00999999999999</ele>
        <time>2014-09-06T11:58:31Z</time>
      </trkpt>
      <trkpt lat="39.732992928475142" lon="3.308392418548465">
        <ele>313.05000000000001</ele>
        <time>2014-09-06T11:58:40Z</time>
      </trkpt>
      <trkpt lat="39.732962837442756" lon="3.308531474322081">
        <ele>313.05000000000001</ele>
        <time>2014-09-06T11:58:49Z</time>
      </trkpt>
      <trkpt lat="39.732921933755279" lon="3.30864580348134">
        <ele>311.12</ele>
        <time>2014-09-06T11:58:58Z</time>
      </trkpt>
      <trkpt lat="39.732893770560622" lon="3.308677989989519">
        <ele>310.16000000000003</ele>
        <time>2014-09-06T11:59:03Z</time>
      </trkpt>
      <trkpt lat="39.732862673699856" lon="3.308740938082337">
        <ele>310.16000000000003</ele>
        <time>2014-09-06T11:59:06Z</time>
      </trkpt>
      <trkpt lat="39.732850855216384" lon="3.308832971379161">
        <ele>308.24000000000001</ele>
        <time>2014-09-06T11:59:14Z</time>
      </trkpt>
      <trkpt lat="39.732813891023397" lon="3.308957358822227">
        <ele>306.31999999999999</ele>
        <time>2014-09-06T11:59:24Z</time>
      </trkpt>
      <trkpt lat="39.732778100296855" lon="3.309029778465629">
        <ele>304.88</ele>
        <time>2014-09-06T11:59:30Z</time>
      </trkpt>
      <trkpt lat="39.732779860496521" lon="3.309093564748764">
        <ele>303.43000000000001</ele>
        <time>2014-09-06T11:59:38Z</time>
      </trkpt>
      <trkpt lat="39.732742644846439" lon="3.309251647442579">
        <ele>301.50999999999999</ele>
        <time>2014-09-06T11:59:48Z</time>
      </trkpt>
      <trkpt lat="39.73271238617599" lon="3.309358516708016">
        <ele>300.55000000000001</ele>
        <time>2014-09-06T11:59:52Z</time>
      </trkpt>
      <trkpt lat="39.732706435024738" lon="3.30938994884491">
        <ele>300.06999999999999</ele>
        <time>2014-09-06T11:59:55Z</time>
      </trkpt>
      <trkpt lat="39.732707357034087" lon="3.309461027383804">
        <ele>298.63</ele>
        <time>2014-09-06T12:00:03Z</time>
      </trkpt>
      <trkpt lat="39.732688749209046" lon="3.309517186135054">
        <ele>298.14999999999998</ele>
        <time>2014-09-06T12:00:07Z</time>
      </trkpt>
      <trkpt lat="39.73266988992691" lon="3.309579212218523">
        <ele>297.18000000000001</ele>
        <time>2014-09-06T12:00:12Z</time>
      </trkpt>
      <trkpt lat="39.732649605721235" lon="3.309639729559422">
        <ele>296.69999999999999</ele>
        <time>2014-09-06T12:00:17Z</time>
      </trkpt>
      <trkpt lat="39.732640469446778" lon="3.30967141315341">
        <ele>296.22000000000003</ele>
        <time>2014-09-06T12:00:20Z</time>
      </trkpt>
      <trkpt lat="39.732602499425411" lon="3.309723800048232">
        <ele>295.74000000000001</ele>
        <time>2014-09-06T12:00:31Z</time>
      </trkpt>
      <trkpt lat="39.732512980699539" lon="3.309825053438544">
        <ele>296.22000000000003</ele>
        <time>2014-09-06T12:00:44Z</time>
      </trkpt>
      <trkpt lat="39.732470652088523" lon="3.309915577992797">
        <ele>294.77999999999997</ele>
        <time>2014-09-06T12:00:51Z</time>
      </trkpt>
      <trkpt lat="39.732481129467487" lon="3.309972826391459">
        <ele>294.77999999999997</ele>
        <time>2014-09-06T12:00:54Z</time>
      </trkpt>
      <trkpt lat="39.7324631921947" lon="3.310065362602472">
        <ele>294.77999999999997</ele>
        <time>2014-09-06T12:00:59Z</time>
      </trkpt>
      <trkpt lat="39.732463443651795" lon="3.310092436149716">
        <ele>295.25999999999999</ele>
        <time>2014-09-06T12:01:01Z</time>
      </trkpt>
      <trkpt lat="39.732444919645786" lon="3.310164269059897">
        <ele>294.77999999999997</ele>
        <time>2014-09-06T12:01:06Z</time>
      </trkpt>
      <trkpt lat="39.732418432831764" lon="3.310257727280259">
        <ele>293.33999999999997</ele>
        <time>2014-09-06T12:01:20Z</time>
      </trkpt>
      <trkpt lat="39.732407284900546" lon="3.310283292084932">
        <ele>293.81999999999999</ele>
        <time>2014-09-06T12:01:22Z</time>
      </trkpt>
      <trkpt lat="39.732394544407725" lon="3.310311958193779">
        <ele>295.74000000000001</ele>
        <time>2014-09-06T12:01:24Z</time>
      </trkpt>
      <trkpt lat="39.732368476688862" lon="3.310394017025828">
        <ele>291.89999999999998</ele>
        <time>2014-09-06T12:01:29Z</time>
      </trkpt>
      <trkpt lat="39.732367638498545" lon="3.310419581830502">
        <ele>292.86000000000001</ele>
        <time>2014-09-06T12:01:31Z</time>
      </trkpt>
      <trkpt lat="39.732328243553638" lon="3.31052016466856">
        <ele>290.94</ele>
        <time>2014-09-06T12:01:40Z</time>
      </trkpt>
      <trkpt lat="39.732283819466829" lon="3.310616221278906">
        <ele>289.97000000000003</ele>
        <time>2014-09-06T12:01:49Z</time>
      </trkpt>
      <trkpt lat="39.732256075367332" lon="3.310750164091587">
        <ele>288.52999999999997</ele>
        <time>2014-09-06T12:02:01Z</time>
      </trkpt>
      <trkpt lat="39.732232438400388" lon="3.310811519622803">
        <ele>288.52999999999997</ele>
        <time>2014-09-06T12:02:05Z</time>
      </trkpt>
      <trkpt lat="39.732214836403728" lon="3.310861894860864">
        <ele>288.52999999999997</ele>
        <time>2014-09-06T12:02:07Z</time>
      </trkpt>
      <trkpt lat="39.73218122497201" lon="3.310905229300261">
        <ele>287.56999999999999</ele>
        <time>2014-09-06T12:02:11Z</time>
      </trkpt>
      <trkpt lat="39.732156749814749" lon="3.310947977006435">
        <ele>287.08999999999997</ele>
        <time>2014-09-06T12:02:14Z</time>
      </trkpt>
      <trkpt lat="39.732103943824768" lon="3.31098142080009">
        <ele>287.56999999999999</ele>
        <time>2014-09-06T12:02:22Z</time>
      </trkpt>
      <trkpt lat="39.732147362083197" lon="3.31099365837872">
        <ele>287.56999999999999</ele>
        <time>2014-09-06T12:02:25Z</time>
      </trkpt>
      <trkpt lat="39.732304271310568" lon="3.311084685847163">
        <ele>285.64999999999998</ele>
        <time>2014-09-06T12:02:37Z</time>
      </trkpt>
      <trkpt lat="39.732470149174333" lon="3.311154674738646">
        <ele>285.17000000000002</ele>
        <time>2014-09-06T12:02:51Z</time>
      </trkpt>
      <trkpt lat="39.732516333460808" lon="3.311168923974037">
        <ele>285.17000000000002</ele>
        <time>2014-09-06T12:02:54Z</time>
      </trkpt>
      <trkpt lat="39.732608953490853" lon="3.311181832104921">
        <ele>283.73000000000002</ele>
        <time>2014-09-06T12:03:00Z</time>
      </trkpt>
      <trkpt lat="39.732764521613717" lon="3.311213431879878">
        <ele>283.25</ele>
        <time>2014-09-06T12:03:14Z</time>
      </trkpt>
      <trkpt lat="39.732784889638424" lon="3.311215443536639">
        <ele>283.25</ele>
        <time>2014-09-06T12:03:16Z</time>
      </trkpt>
      <trkpt lat="39.732822440564632" lon="3.31121938303113">
        <ele>283.73000000000002</ele>
        <time>2014-09-06T12:03:18Z</time>
      </trkpt>
      <trkpt lat="39.732929980382323" lon="3.311188872903585">
        <ele>283.25</ele>
        <time>2014-09-06T12:03:26Z</time>
      </trkpt>
      <trkpt lat="39.733030563220382" lon="3.311128774657846">
        <ele>283.25</ele>
        <time>2014-09-06T12:03:35Z</time>
      </trkpt>
      <trkpt lat="39.733088063076138" lon="3.31105325371027">
        <ele>282.76999999999998</ele>
        <time>2014-09-06T12:03:40Z</time>
      </trkpt>
      <trkpt lat="39.733204068616033" lon="3.311039339751005">
        <ele>282.76999999999998</ele>
        <time>2014-09-06T12:03:50Z</time>
      </trkpt>
      <trkpt lat="39.733316972851753" lon="3.31103908829391">
        <ele>282.27999999999997</ele>
        <time>2014-09-06T12:03:59Z</time>
      </trkpt>
      <trkpt lat="39.733465332537889" lon="3.310988126322627">
        <ele>283.25</ele>
        <time>2014-09-06T12:04:11Z</time>
      </trkpt>
      <trkpt lat="39.733603382483125" lon="3.310948144644499">
        <ele>283.25</ele>
        <time>2014-09-06T12:04:22Z</time>
      </trkpt>
      <trkpt lat="39.733635485172272" lon="3.310902966186404">
        <ele>283.73000000000002</ele>
        <time>2014-09-06T12:04:31Z</time>
      </trkpt>
      <trkpt lat="39.733670186251402" lon="3.310898272320628">
        <ele>284.20999999999998</ele>
        <time>2014-09-06T12:04:43Z</time>
      </trkpt>
      <trkpt lat="39.733678232878447" lon="3.310890980064869">
        <ele>283.73000000000002</ele>
        <time>2014-09-06T12:04:44Z</time>
      </trkpt>
      <trkpt lat="39.733731038868427" lon="3.310848483815789">
        <ele>284.20999999999998</ele>
        <time>2014-09-06T12:04:48Z</time>
      </trkpt>
      <trkpt lat="39.733778228983283" lon="3.310843287035823">
        <ele>283.73000000000002</ele>
        <time>2014-09-06T12:04:52Z</time>
      </trkpt>
      <trkpt lat="39.73387042991817" lon="3.310780338943005">
        <ele>284.20999999999998</ele>
        <time>2014-09-06T12:05:01Z</time>
      </trkpt>
      <trkpt lat="39.73392809741199" lon="3.310778914019465">
        <ele>284.69</ele>
        <time>2014-09-06T12:05:05Z</time>
      </trkpt>
      <trkpt lat="39.734019292518497" lon="3.310799617320299">
        <ele>285.64999999999998</ele>
        <time>2014-09-06T12:05:12Z</time>
      </trkpt>
      <trkpt lat="39.734092466533184" lon="3.310804646462202">
        <ele>286.13</ele>
        <time>2014-09-06T12:05:18Z</time>
      </trkpt>
      <trkpt lat="39.734157593920827" lon="3.310819901525974">
        <ele>287.08999999999997</ele>
        <time>2014-09-06T12:05:24Z</time>
      </trkpt>
      <trkpt lat="39.734285250306129" lon="3.31080892123282">
        <ele>288.05000000000001</ele>
        <time>2014-09-06T12:05:34Z</time>
      </trkpt>
      <trkpt lat="39.734290698543191" lon="3.310809759423137">
        <ele>288.05000000000001</ele>
        <time>2014-09-06T12:05:35Z</time>
      </trkpt>
      <trkpt lat="39.734300840646029" lon="3.31081185489893">
        <ele>288.52999999999997</ele>
        <time>2014-09-06T12:05:37Z</time>
      </trkpt>
      <trkpt lat="39.734320119023323" lon="3.310814034193754">
        <ele>288.52999999999997</ele>
        <time>2014-09-06T12:05:39Z</time>
      </trkpt>
      <trkpt lat="39.734372086822987" lon="3.310759887099266">
        <ele>288.52999999999997</ele>
        <time>2014-09-06T12:05:45Z</time>
      </trkpt>
      <trkpt lat="39.734472082927823" lon="3.310716301202774">
        <ele>289.49000000000001</ele>
        <time>2014-09-06T12:05:52Z</time>
      </trkpt>
      <trkpt lat="39.734522541984916" lon="3.310705572366715">
        <ele>289.49000000000001</ele>
        <time>2014-09-06T12:05:56Z</time>
      </trkpt>
      <trkpt lat="39.734539557248354" lon="3.31069509498775">
        <ele>290.45999999999998</ele>
        <time>2014-09-06T12:05:58Z</time>
      </trkpt>
      <trkpt lat="39.734607031568885" lon="3.310683695599437">
        <ele>290.45999999999998</ele>
        <time>2014-09-06T12:06:04Z</time>
      </trkpt>
      <trkpt lat="39.734709290787578" lon="3.310646396130323">
        <ele>290.45999999999998</ele>
        <time>2014-09-06T12:06:13Z</time>
      </trkpt>
      <trkpt lat="39.734809119254351" lon="3.310629380866885">
        <ele>289.97000000000003</ele>
        <time>2014-09-06T12:06:22Z</time>
      </trkpt>
      <trkpt lat="39.73492780700326" lon="3.310604905709624">
        <ele>289.97000000000003</ele>
        <time>2014-09-06T12:06:30Z</time>
      </trkpt>
      <trkpt lat="39.734928896650672" lon="3.310604235157371">
        <ele>289.97000000000003</ele>
        <time>2014-09-06T12:06:32Z</time>
      </trkpt>
      <trkpt lat="39.735071221366525" lon="3.310604905709624">
        <ele>289.97000000000003</ele>
        <time>2014-09-06T12:06:43Z</time>
      </trkpt>
      <trkpt lat="39.735198626294732" lon="3.310610856860876">
        <ele>289.97000000000003</ele>
        <time>2014-09-06T12:06:51Z</time>
      </trkpt>
      <trkpt lat="39.735256042331457" lon="3.31062326207757">
        <ele>289.97000000000003</ele>
        <time>2014-09-06T12:06:55Z</time>
      </trkpt>
      <trkpt lat="39.73537003621459" lon="3.310667267069221">
        <ele>289.49000000000001</ele>
        <time>2014-09-06T12:07:05Z</time>
      </trkpt>
      <trkpt lat="39.735465003177524" lon="3.310770615935326">
        <ele>288.05000000000001</ele>
        <time>2014-09-06T12:07:16Z</time>
      </trkpt>
      <trkpt lat="39.735541362315416" lon="3.310900200158358">
        <ele>286.13</ele>
        <time>2014-09-06T12:07:26Z</time>
      </trkpt>
      <trkpt lat="39.73557279445231" lon="3.310991143807769">
        <ele>286.61000000000001</ele>
        <time>2014-09-06T12:07:31Z</time>
      </trkpt>
      <trkpt lat="39.735580589622259" lon="3.311027940362692">
        <ele>286.13</ele>
        <time>2014-09-06T12:07:35Z</time>
      </trkpt>
      <trkpt lat="39.735612273216248" lon="3.311112094670534">
        <ele>286.61000000000001</ele>
        <time>2014-09-06T12:07:39Z</time>
      </trkpt>
      <trkpt lat="39.73561730235815" lon="3.311185603961349">
        <ele>285.64999999999998</ele>
        <time>2014-09-06T12:07:45Z</time>
      </trkpt>
      <trkpt lat="39.735679076984525" lon="3.311314769089222">
        <ele>284.69</ele>
        <time>2014-09-06T12:07:55Z</time>
      </trkpt>
      <trkpt lat="39.735753173008561" lon="3.311399091035128">
        <ele>284.20999999999998</ele>
        <time>2014-09-06T12:08:04Z</time>
      </trkpt>
      <trkpt lat="39.735807068645954" lon="3.311477461829782">
        <ele>283.73000000000002</ele>
        <time>2014-09-06T12:08:09Z</time>
      </trkpt>
      <trkpt lat="39.735835902392864" lon="3.311504870653153">
        <ele>282.76999999999998</ele>
        <time>2014-09-06T12:08:16Z</time>
      </trkpt>
      <trkpt lat="39.735886109992862" lon="3.311577625572681">
        <ele>281.31999999999999</ele>
        <time>2014-09-06T12:08:24Z</time>
      </trkpt>
      <trkpt lat="39.735955344513059" lon="3.311690781265497">
        <ele>281.31999999999999</ele>
        <time>2014-09-06T12:08:29Z</time>
      </trkpt>
      <trkpt lat="39.735962972044945" lon="3.311723135411739">
        <ele>281.31999999999999</ele>
        <time>2014-09-06T12:08:31Z</time>
      </trkpt>
      <trkpt lat="39.736005552113056" lon="3.311781557276845">
        <ele>279.39999999999998</ele>
        <time>2014-09-06T12:08:39Z</time>
      </trkpt>
      <trkpt lat="39.736080234870315" lon="3.311905860900879">
        <ele>278.44</ele>
        <time>2014-09-06T12:08:48Z</time>
      </trkpt>
      <trkpt lat="39.73608685657382" lon="3.311931677162647">
        <ele>278.44</ele>
        <time>2014-09-06T12:08:49Z</time>
      </trkpt>
      <trkpt lat="39.736168161034584" lon="3.31202463246882">
        <ele>277</ele>
        <time>2014-09-06T12:08:57Z</time>
      </trkpt>
      <trkpt lat="39.736200934275985" lon="3.312051622197032">
        <ele>276.04000000000002</ele>
        <time>2014-09-06T12:09:04Z</time>
      </trkpt>
      <trkpt lat="39.736218955367804" lon="3.312077019363642">
        <ele>275.56</ele>
        <time>2014-09-06T12:09:06Z</time>
      </trkpt>
      <trkpt lat="39.736240999773145" lon="3.312104009091854">
        <ele>275.06999999999999</ele>
        <time>2014-09-06T12:09:07Z</time>
      </trkpt>
      <trkpt lat="39.736256254836917" lon="3.31213359721005">
        <ele>275.06999999999999</ele>
        <time>2014-09-06T12:09:08Z</time>
      </trkpt>
      <trkpt lat="39.736275114119053" lon="3.312195539474487">
        <ele>275.06999999999999</ele>
        <time>2014-09-06T12:09:12Z</time>
      </trkpt>
      <trkpt lat="39.736327668651938" lon="3.312231916934252">
        <ele>275.06999999999999</ele>
        <time>2014-09-06T12:09:18Z</time>
      </trkpt>
      <trkpt lat="39.736363124102354" lon="3.312281621620059">
        <ele>274.11000000000001</ele>
        <time>2014-09-06T12:09:26Z</time>
      </trkpt>
      <trkpt lat="39.736405536532402" lon="3.312304755672813">
        <ele>274.11000000000001</ele>
        <time>2014-09-06T12:09:38Z</time>
      </trkpt>
      <trkpt lat="39.736416349187493" lon="3.312309281900525">
        <ele>274.11000000000001</ele>
        <time>2014-09-06T12:09:54Z</time>
      </trkpt>
      <trkpt lat="39.736415343359113" lon="3.312308862805367">
        <ele>274.58999999999997</ele>
        <time>2014-09-06T12:10:05Z</time>
      </trkpt>
      <trkpt lat="39.736415343359113" lon="3.312308862805367">
        <ele>273.63</ele>
        <time>2014-09-06T12:10:34Z</time>
      </trkpt>
      <trkpt lat="39.736397406086326" lon="3.312335852533579">
        <ele>273.14999999999998</ele>
        <time>2014-09-06T12:10:44Z</time>
      </trkpt>
      <trkpt lat="39.7364142537117" lon="3.312360411509872">
        <ele>273.14999999999998</ele>
        <time>2014-09-06T12:10:53Z</time>
      </trkpt>
      <trkpt lat="39.736418109387159" lon="3.312359154224396">
        <ele>273.14999999999998</ele>
        <time>2014-09-06T12:11:08Z</time>
      </trkpt>
      <trkpt lat="39.736428083851933" lon="3.312362004071474">
        <ele>272.67000000000002</ele>
        <time>2014-09-06T12:11:27Z</time>
      </trkpt>
      <trkpt lat="39.736441997811198" lon="3.312357058748603">
        <ele>272.67000000000002</ele>
        <time>2014-09-06T12:11:58Z</time>
      </trkpt>
      <trkpt lat="39.736450044438243" lon="3.312348928302527">
        <ele>272.67000000000002</ele>
        <time>2014-09-06T12:12:18Z</time>
      </trkpt>
      <trkpt lat="39.736449206247926" lon="3.312349431216717">
        <ele>272.19</ele>
        <time>2014-09-06T12:12:44Z</time>
      </trkpt>
      <trkpt lat="39.736449206247926" lon="3.312349431216717">
        <ele>272.67000000000002</ele>
        <time>2014-09-06T12:13:06Z</time>
      </trkpt>
      <trkpt lat="39.736446775496006" lon="3.312345994636416">
        <ele>273.14999999999998</ele>
        <time>2014-09-06T12:13:20Z</time>
      </trkpt>
      <trkpt lat="39.736446775496006" lon="3.312345994636416">
        <ele>272.67000000000002</ele>
        <time>2014-09-06T12:13:45Z</time>
      </trkpt>
      <trkpt lat="39.736431520432234" lon="3.31234565936029">
        <ele>272.67000000000002</ele>
        <time>2014-09-06T12:14:07Z</time>
      </trkpt>
      <trkpt lat="39.736387180164456" lon="3.312238538637757">
        <ele>272.67000000000002</ele>
        <time>2014-09-06T12:14:20Z</time>
      </trkpt>
      <trkpt lat="39.736439399421215" lon="3.312151283025742">
        <ele>273.63</ele>
        <time>2014-09-06T12:14:33Z</time>
      </trkpt>
      <trkpt lat="39.736447110772133" lon="3.312189253047109">
        <ele>272.67000000000002</ele>
        <time>2014-09-06T12:14:46Z</time>
      </trkpt>
      <trkpt lat="39.736447697505355" lon="3.312194617465138">
        <ele>273.14999999999998</ele>
        <time>2014-09-06T12:15:06Z</time>
      </trkpt>
      <trkpt lat="39.736454151570797" lon="3.312197970226407">
        <ele>272.67000000000002</ele>
        <time>2014-09-06T12:15:32Z</time>
      </trkpt>
      <trkpt lat="39.736464209854603" lon="3.312196461483836">
        <ele>272.67000000000002</ele>
        <time>2014-09-06T12:15:47Z</time>
      </trkpt>
      <trkpt lat="39.736476363614202" lon="3.312167124822736">
        <ele>273.14999999999998</ele>
        <time>2014-09-06T12:15:59Z</time>
      </trkpt>
      <trkpt lat="39.73647041246295" lon="3.312168382108212">
        <ele>273.14999999999998</ele>
        <time>2014-09-06T12:16:16Z</time>
      </trkpt>
      <trkpt lat="39.736496647819877" lon="3.312041312456131">
        <ele>273.14999999999998</ele>
        <time>2014-09-06T12:16:29Z</time>
      </trkpt>
      <trkpt lat="39.736533276736736" lon="3.311975682154298">
        <ele>273.63</ele>
        <time>2014-09-06T12:16:37Z</time>
      </trkpt>
      <trkpt lat="39.736552471294999" lon="3.311927737668157">
        <ele>273.14999999999998</ele>
        <time>2014-09-06T12:16:42Z</time>
      </trkpt>
      <trkpt lat="39.736617598682642" lon="3.311850037425757">
        <ele>276.04000000000002</ele>
        <time>2014-09-06T12:16:52Z</time>
      </trkpt>
      <trkpt lat="39.736636122688651" lon="3.311824472621083">
        <ele>273.14999999999998</ele>
        <time>2014-09-06T12:16:55Z</time>
      </trkpt>
      <trkpt lat="39.736731005832553" lon="3.311715926975012">
        <ele>273.63</ele>
        <time>2014-09-06T12:17:10Z</time>
      </trkpt>
      <trkpt lat="39.736740728840232" lon="3.311710562556982">
        <ele>274.58999999999997</ele>
        <time>2014-09-06T12:17:11Z</time>
      </trkpt>
      <trkpt lat="39.736785069108009" lon="3.3116474468261">
        <ele>273.14999999999998</ele>
        <time>2014-09-06T12:17:19Z</time>
      </trkpt>
      <trkpt lat="39.736799905076623" lon="3.311625234782696">
        <ele>274.11000000000001</ele>
        <time>2014-09-06T12:17:22Z</time>
      </trkpt>
      <trkpt lat="39.736827984452248" lon="3.311599502339959">
        <ele>274.11000000000001</ele>
        <time>2014-09-06T12:17:25Z</time>
      </trkpt>
      <trkpt lat="39.736843490973115" lon="3.311590366065502">
        <ele>275.06999999999999</ele>
        <time>2014-09-06T12:17:28Z</time>
      </trkpt>
      <trkpt lat="39.736868049949408" lon="3.311560526490212">
        <ele>275.06999999999999</ele>
        <time>2014-09-06T12:17:31Z</time>
      </trkpt>
      <trkpt lat="39.736887160688639" lon="3.311538398265839">
        <ele>277.48000000000002</ele>
        <time>2014-09-06T12:17:33Z</time>
      </trkpt>
      <trkpt lat="39.73688380792737" lon="3.31152917817235">
        <ele>275.06999999999999</ele>
        <time>2014-09-06T12:17:43Z</time>
      </trkpt>
      <trkpt lat="39.736884394660592" lon="3.311533369123936">
        <ele>275.56</ele>
        <time>2014-09-06T12:18:08Z</time>
      </trkpt>
      <trkpt lat="39.736880119889975" lon="3.311531776562333">
        <ele>275.56</ele>
        <time>2014-09-06T12:18:15Z</time>
      </trkpt>
      <trkpt lat="39.736904678866267" lon="3.311510151252151">
        <ele>275.56</ele>
        <time>2014-09-06T12:18:19Z</time>
      </trkpt>
      <trkpt lat="39.736933596432209" lon="3.311478300020099">
        <ele>276.04000000000002</ele>
        <time>2014-09-06T12:18:23Z</time>
      </trkpt>
      <trkpt lat="39.73701624199748" lon="3.311368329450488">
        <ele>277</ele>
        <time>2014-09-06T12:18:36Z</time>
      </trkpt>
      <trkpt lat="39.737026384100318" lon="3.311348212882876">
        <ele>277.95999999999998</ele>
        <time>2014-09-06T12:18:41Z</time>
      </trkpt>
      <trkpt lat="39.737020852044225" lon="3.311278307810426">
        <ele>278.92000000000002</ele>
        <time>2014-09-06T12:18:45Z</time>
      </trkpt>
      <trkpt lat="39.737039543688297" lon="3.311216030269861">
        <ele>278.44</ele>
        <time>2014-09-06T12:18:56Z</time>
      </trkpt>
      <trkpt lat="39.737039543688297" lon="3.311216030269861">
        <ele>278.92000000000002</ele>
        <time>2014-09-06T12:19:19Z</time>
      </trkpt>
      <trkpt lat="39.737039543688297" lon="3.311216030269861">
        <ele>276.51999999999998</ele>
        <time>2014-09-06T12:19:28Z</time>
      </trkpt>
      <trkpt lat="39.737039543688297" lon="3.311216030269861">
        <ele>279.39999999999998</ele>
        <time>2014-09-06T12:19:29Z</time>
      </trkpt>
      <trkpt lat="39.737039543688297" lon="3.311216030269861">
        <ele>278.92000000000002</ele>
        <time>2014-09-06T12:19:30Z</time>
      </trkpt>
      <trkpt lat="39.736987911164761" lon="3.311222484335303">
        <ele>280.36000000000001</ele>
        <time>2014-09-06T12:19:49Z</time>
      </trkpt>
      <trkpt lat="39.736980115994811" lon="3.311213683336973">
        <ele>277.95999999999998</ele>
        <time>2014-09-06T12:19:50Z</time>
      </trkpt>
      <trkpt lat="39.736907780170441" lon="3.311119135469198">
        <ele>279.39999999999998</ele>
        <time>2014-09-06T12:20:01Z</time>
      </trkpt>
      <trkpt lat="39.736884227022529" lon="3.311118129640818">
        <ele>277.95999999999998</ele>
        <time>2014-09-06T12:20:05Z</time>
      </trkpt>
      <trkpt lat="39.736884897574782" lon="3.311115363612771">
        <ele>277.95999999999998</ele>
        <time>2014-09-06T12:20:29Z</time>
      </trkpt>
      <trkpt lat="39.736886490136385" lon="3.311116704717279">
        <ele>278.92000000000002</ele>
        <time>2014-09-06T12:20:52Z</time>
      </trkpt>
      <trkpt lat="39.736885819584131" lon="3.311113938689232">
        <ele>278.92000000000002</ele>
        <time>2014-09-06T12:21:11Z</time>
      </trkpt>
      <trkpt lat="39.736924041062593" lon="3.311136486008763">
        <ele>278.44</ele>
        <time>2014-09-06T12:21:30Z</time>
      </trkpt>
      <trkpt lat="39.737009955570102" lon="3.311256850138307">
        <ele>277</ele>
        <time>2014-09-06T12:21:45Z</time>
      </trkpt>
      <trkpt lat="39.73701473325491" lon="3.311257101595402">
        <ele>277</ele>
        <time>2014-09-06T12:22:07Z</time>
      </trkpt>
      <trkpt lat="39.737012973055243" lon="3.311255676671863">
        <ele>277</ele>
        <time>2014-09-06T12:22:25Z</time>
      </trkpt>
      <trkpt lat="39.737013056874275" lon="3.311255425214768">
        <ele>277</ele>
        <time>2014-09-06T12:22:59Z</time>
      </trkpt>
      <trkpt lat="39.737013056874275" lon="3.311255425214768">
        <ele>277</ele>
        <time>2014-09-06T12:23:24Z</time>
      </trkpt>
      <trkpt lat="39.737011045217514" lon="3.311255760490894">
        <ele>277</ele>
        <time>2014-09-06T12:23:57Z</time>
      </trkpt>
      <trkpt lat="39.737008614465594" lon="3.311255676671863">
        <ele>277</ele>
        <time>2014-09-06T12:24:21Z</time>
      </trkpt>
      <trkpt lat="39.737008614465594" lon="3.311255676671863">
        <ele>281.80000000000001</ele>
        <time>2014-09-06T12:24:46Z</time>
      </trkpt>
      <trkpt lat="39.737008614465594" lon="3.311255676671863">
        <ele>277.48000000000002</ele>
        <time>2014-09-06T12:24:47Z</time>
      </trkpt>
      <trkpt lat="39.737007943913341" lon="3.311255844309926">
        <ele>277.48000000000002</ele>
        <time>2014-09-06T12:25:18Z</time>
      </trkpt>
      <trkpt lat="39.737008111551404" lon="3.311255173757672">
        <ele>277.48000000000002</ele>
        <time>2014-09-06T12:25:57Z</time>
      </trkpt>
      <trkpt lat="39.737008949741721" lon="3.311253916472197">
        <ele>277.48000000000002</ele>
        <time>2014-09-06T12:26:28Z</time>
      </trkpt>
      <trkpt lat="39.737006518989801" lon="3.311254922300577">
        <ele>277.95999999999998</ele>
        <time>2014-09-06T12:27:01Z</time>
      </trkpt>
      <trkpt lat="39.737015655264258" lon="3.311263052746654">
        <ele>278.44</ele>
        <time>2014-09-06T12:27:11Z</time>
      </trkpt>
      <trkpt lat="39.737009536474943" lon="3.311267830431461">
        <ele>278.92000000000002</ele>
        <time>2014-09-06T12:27:13Z</time>
      </trkpt>
      <trkpt lat="39.73700450733304" lon="3.311295239254832">
        <ele>278.44</ele>
        <time>2014-09-06T12:27:25Z</time>
      </trkpt>
      <trkpt lat="39.736984642222524" lon="3.311269003897905">
        <ele>279.88</ele>
        <time>2014-09-06T12:27:35Z</time>
      </trkpt>
      <trkpt lat="39.736987492069602" lon="3.311247210949659">
        <ele>279.39999999999998</ele>
        <time>2014-09-06T12:27:41Z</time>
      </trkpt>
      <trkpt lat="39.736993694677949" lon="3.311215359717608">
        <ele>276.51999999999998</ele>
        <time>2014-09-06T12:27:43Z</time>
      </trkpt>
      <trkpt lat="39.736997717991471" lon="3.311197003349662">
        <ele>277.95999999999998</ele>
        <time>2014-09-06T12:27:44Z</time>
      </trkpt>
      <trkpt lat="39.737004842609167" lon="3.311173198744655">
        <ele>281.80000000000001</ele>
        <time>2014-09-06T12:27:46Z</time>
      </trkpt>
      <trkpt lat="39.737015822902322" lon="3.311148388311267">
        <ele>278.44</ele>
        <time>2014-09-06T12:27:48Z</time>
      </trkpt>
      <trkpt lat="39.737041303887963" lon="3.311113519594073">
        <ele>281.31999999999999</ele>
        <time>2014-09-06T12:27:51Z</time>
      </trkpt>
      <trkpt lat="39.737063935026526" lon="3.311075633391738">
        <ele>277.48000000000002</ele>
        <time>2014-09-06T12:27:54Z</time>
      </trkpt>
      <trkpt lat="39.737084303051233" lon="3.311059204861522">
        <ele>281.31999999999999</ele>
        <time>2014-09-06T12:27:56Z</time>
      </trkpt>
      <trkpt lat="39.737112047150731" lon="3.311035400256515">
        <ele>277.48000000000002</ele>
        <time>2014-09-06T12:27:59Z</time>
      </trkpt>
      <trkpt lat="39.737132918089628" lon="3.311024755239487">
        <ele>282.27999999999997</ele>
        <time>2014-09-06T12:28:01Z</time>
      </trkpt>
      <trkpt lat="39.737140545621514" lon="3.311016708612442">
        <ele>282.27999999999997</ele>
        <time>2014-09-06T12:28:02Z</time>
      </trkpt>
      <trkpt lat="39.737160326912999" lon="3.311012014746666">
        <ele>279.39999999999998</ele>
        <time>2014-09-06T12:28:04Z</time>
      </trkpt>
      <trkpt lat="39.737166110426188" lon="3.311005476862192">
        <ele>282.76999999999998</ele>
        <time>2014-09-06T12:28:05Z</time>
      </trkpt>
      <trkpt lat="39.737169714644551" lon="3.310999106615782">
        <ele>281.31999999999999</ele>
        <time>2014-09-06T12:28:06Z</time>
      </trkpt>
      <trkpt lat="39.737124452367425" lon="3.31099902279675">
        <ele>280.36000000000001</ele>
        <time>2014-09-06T12:28:16Z</time>
      </trkpt>
      <trkpt lat="39.737126464024186" lon="3.31099902279675">
        <ele>278.92000000000002</ele>
        <time>2014-09-06T12:28:20Z</time>
      </trkpt>
      <trkpt lat="39.737111376598477" lon="3.311022408306599">
        <ele>278.44</ele>
        <time>2014-09-06T12:28:22Z</time>
      </trkpt>
      <trkpt lat="39.737057145684958" lon="3.311063479632139">
        <ele>278.44</ele>
        <time>2014-09-06T12:28:26Z</time>
      </trkpt>
      <trkpt lat="39.737033173441887" lon="3.311078902333975">
        <ele>279.88</ele>
        <time>2014-09-06T12:28:28Z</time>
      </trkpt>
      <trkpt lat="39.736998723819852" lon="3.311121566221118">
        <ele>277.95999999999998</ele>
        <time>2014-09-06T12:28:34Z</time>
      </trkpt>
      <trkpt lat="39.736993610858917" lon="3.311157776042819">
        <ele>278.44</ele>
        <time>2014-09-06T12:28:36Z</time>
      </trkpt>
      <trkpt lat="39.736993107944727" lon="3.311204044148326">
        <ele>279.88</ele>
        <time>2014-09-06T12:28:39Z</time>
      </trkpt>
      <trkpt lat="39.737024120986462" lon="3.311243439093232">
        <ele>277.48000000000002</ele>
        <time>2014-09-06T12:28:42Z</time>
      </trkpt>
      <trkpt lat="39.737015906721354" lon="3.311312254518271">
        <ele>278.92000000000002</ele>
        <time>2014-09-06T12:28:47Z</time>
      </trkpt>
      <trkpt lat="39.737003585323691" lon="3.311324827373028">
        <ele>278.44</ele>
        <time>2014-09-06T12:28:49Z</time>
      </trkpt>
      <trkpt lat="39.737007021903992" lon="3.311353912577033">
        <ele>276.51999999999998</ele>
        <time>2014-09-06T12:28:52Z</time>
      </trkpt>
      <trkpt lat="39.736982714384794" lon="3.31137964501977">
        <ele>275.56</ele>
        <time>2014-09-06T12:28:54Z</time>
      </trkpt>
      <trkpt lat="39.73695027641952" lon="3.31141384318471">
        <ele>273.63</ele>
        <time>2014-09-06T12:28:57Z</time>
      </trkpt>
      <trkpt lat="39.736862685531378" lon="3.311522975564003">
        <ele>275.06999999999999</ele>
        <time>2014-09-06T12:29:05Z</time>
      </trkpt>
      <trkpt lat="39.736819351091981" lon="3.311580391600728">
        <ele>272.19</ele>
        <time>2014-09-06T12:29:09Z</time>
      </trkpt>
      <trkpt lat="39.736813483759761" lon="3.311591539531946">
        <ele>272.19</ele>
        <time>2014-09-06T12:29:10Z</time>
      </trkpt>
      <trkpt lat="39.736767634749413" lon="3.311646189540625">
        <ele>275.06999999999999</ele>
        <time>2014-09-06T12:29:14Z</time>
      </trkpt>
      <trkpt lat="39.736747182905674" lon="3.311678795143962">
        <ele>275.56</ele>
        <time>2014-09-06T12:29:16Z</time>
      </trkpt>
      <trkpt lat="39.736732011660933" lon="3.311702515929937">
        <ele>273.14999999999998</ele>
        <time>2014-09-06T12:29:18Z</time>
      </trkpt>
      <trkpt lat="39.736708542332053" lon="3.311758926138282">
        <ele>272.19</ele>
        <time>2014-09-06T12:29:22Z</time>
      </trkpt>
      <trkpt lat="39.736660346388817" lon="3.311810810118914">
        <ele>273.63</ele>
        <time>2014-09-06T12:29:27Z</time>
      </trkpt>
      <trkpt lat="39.736590273678303" lon="3.31190787255764">
        <ele>271.23000000000002</ele>
        <time>2014-09-06T12:29:35Z</time>
      </trkpt>
      <trkpt lat="39.736557919532061" lon="3.311940897256136">
        <ele>272.67000000000002</ele>
        <time>2014-09-06T12:29:39Z</time>
      </trkpt>
      <trkpt lat="39.736533276736736" lon="3.311980376020074">
        <ele>274.58999999999997</ele>
        <time>2014-09-06T12:29:42Z</time>
      </trkpt>
      <trkpt lat="39.736511064693332" lon="3.312010802328587">
        <ele>272.67000000000002</ele>
        <time>2014-09-06T12:29:44Z</time>
      </trkpt>
      <trkpt lat="39.736472759395838" lon="3.312050700187683">
        <ele>271.70999999999998</ele>
        <time>2014-09-06T12:29:47Z</time>
      </trkpt>
      <trkpt lat="39.736405704170465" lon="3.312152372673154">
        <ele>274.58999999999997</ele>
        <time>2014-09-06T12:29:53Z</time>
      </trkpt>
      <trkpt lat="39.736396064981818" lon="3.312163688242436">
        <ele>272.67000000000002</ele>
        <time>2014-09-06T12:29:54Z</time>
      </trkpt>
      <trkpt lat="39.736357843503356" lon="3.312187409028411">
        <ele>271.23000000000002</ele>
        <time>2014-09-06T12:29:57Z</time>
      </trkpt>
      <trkpt lat="39.736326579004526" lon="3.312208279967308">
        <ele>275.56</ele>
        <time>2014-09-06T12:30:00Z</time>
      </trkpt>
      <trkpt lat="39.73631601780653" lon="3.312213895842433">
        <ele>274.58999999999997</ele>
        <time>2014-09-06T12:30:01Z</time>
      </trkpt>
      <trkpt lat="39.736289111897349" lon="3.312212638556957">
        <ele>273.14999999999998</ele>
        <time>2014-09-06T12:30:03Z</time>
      </trkpt>
      <trkpt lat="39.736268995329738" lon="3.31219227053225">
        <ele>269.79000000000002</ele>
        <time>2014-09-06T12:30:05Z</time>
      </trkpt>
      <trkpt lat="39.736259188503027" lon="3.312181541696191">
        <ele>273.14999999999998</ele>
        <time>2014-09-06T12:30:06Z</time>
      </trkpt>
      <trkpt lat="39.736245777457952" lon="3.312156647443771">
        <ele>275.56</ele>
        <time>2014-09-06T12:30:08Z</time>
      </trkpt>
      <trkpt lat="39.736221972852945" lon="3.312108283862472">
        <ele>271.70999999999998</ele>
        <time>2014-09-06T12:30:11Z</time>
      </trkpt>
      <trkpt lat="39.736213842406869" lon="3.312095208093524">
        <ele>270.75</ele>
        <time>2014-09-06T12:30:12Z</time>
      </trkpt>
      <trkpt lat="39.736196743324399" lon="3.312058579176664">
        <ele>277.48000000000002</ele>
        <time>2014-09-06T12:30:15Z</time>
      </trkpt>
      <trkpt lat="39.736187439411879" lon="3.312050448730588">
        <ele>272.67000000000002</ele>
        <time>2014-09-06T12:30:17Z</time>
      </trkpt>
      <trkpt lat="39.736166652292013" lon="3.312038378790021">
        <ele>277</ele>
        <time>2014-09-06T12:30:19Z</time>
      </trkpt>
      <trkpt lat="39.736144775524735" lon="3.312020190060139">
        <ele>274.11000000000001</ele>
        <time>2014-09-06T12:30:22Z</time>
      </trkpt>
      <trkpt lat="39.736140500754118" lon="3.312009377405047">
        <ele>274.11000000000001</ele>
        <time>2014-09-06T12:30:23Z</time>
      </trkpt>
      <trkpt lat="39.73613329231739" lon="3.311989931389689">
        <ele>278.92000000000002</ele>
        <time>2014-09-06T12:30:25Z</time>
      </trkpt>
      <trkpt lat="39.73612055182457" lon="3.311959588900209">
        <ele>276.51999999999998</ele>
        <time>2014-09-06T12:30:27Z</time>
      </trkpt>
      <trkpt lat="39.73611275665462" lon="3.311924636363983">
        <ele>275.56</ele>
        <time>2014-09-06T12:30:29Z</time>
      </trkpt>
      <trkpt lat="39.736106051132083" lon="3.311895383521915">
        <ele>279.39999999999998</ele>
        <time>2014-09-06T12:30:31Z</time>
      </trkpt>
      <trkpt lat="39.736100854352117" lon="3.31188197247684">
        <ele>278.92000000000002</ele>
        <time>2014-09-06T12:30:32Z</time>
      </trkpt>
      <trkpt lat="39.736092472448945" lon="3.311862945556641">
        <ele>275.56</ele>
        <time>2014-09-06T12:30:34Z</time>
      </trkpt>
      <trkpt lat="39.736069086939096" lon="3.311824640259147">
        <ele>279.88</ele>
        <time>2014-09-06T12:30:37Z</time>
      </trkpt>
      <trkpt lat="39.736038325354457" lon="3.311786083504558">
        <ele>275.56</ele>
        <time>2014-09-06T12:30:40Z</time>
      </trkpt>
      <trkpt lat="39.736033212393522" lon="3.311772840097547">
        <ele>276.51999999999998</ele>
        <time>2014-09-06T12:30:41Z</time>
      </trkpt>
      <trkpt lat="39.736024579033256" lon="3.311755657196045">
        <ele>281.80000000000001</ele>
        <time>2014-09-06T12:30:43Z</time>
      </trkpt>
      <trkpt lat="39.736016280949116" lon="3.311746520921588">
        <ele>279.39999999999998</ele>
        <time>2014-09-06T12:30:44Z</time>
      </trkpt>
      <trkpt lat="39.73599792458117" lon="3.311710227280855">
        <ele>280.36000000000001</ele>
        <time>2014-09-06T12:30:48Z</time>
      </trkpt>
      <trkpt lat="39.735995829105377" lon="3.311673179268837">
        <ele>278.92000000000002</ele>
        <time>2014-09-06T12:30:51Z</time>
      </trkpt>
      <trkpt lat="39.735981496050954" lon="3.311652727425098">
        <ele>281.31999999999999</ele>
        <time>2014-09-06T12:30:53Z</time>
      </trkpt>
      <trkpt lat="39.735969677567482" lon="3.311633029952645">
        <ele>275.56</ele>
        <time>2014-09-06T12:30:55Z</time>
      </trkpt>
      <trkpt lat="39.73596129566431" lon="3.311617523431778">
        <ele>278.92000000000002</ele>
        <time>2014-09-06T12:30:56Z</time>
      </trkpt>
      <trkpt lat="39.735951237380505" lon="3.311605621129274">
        <ele>282.76999999999998</ele>
        <time>2014-09-06T12:30:58Z</time>
      </trkpt>
      <trkpt lat="39.735947968438268" lon="3.311595479026437">
        <ele>279.88</ele>
        <time>2014-09-06T12:30:59Z</time>
      </trkpt>
      <trkpt lat="39.73589776083827" lon="3.311525573953986">
        <ele>280.36000000000001</ele>
        <time>2014-09-06T12:31:08Z</time>
      </trkpt>
      <trkpt lat="39.73581469617784" lon="3.311427840963006">
        <ele>281.80000000000001</ele>
        <time>2014-09-06T12:31:20Z</time>
      </trkpt>
      <trkpt lat="39.735795082524419" lon="3.311395067721605">
        <ele>281.80000000000001</ele>
        <time>2014-09-06T12:31:24Z</time>
      </trkpt>
      <trkpt lat="39.735730458050966" lon="3.311251988634467">
        <ele>283.25</ele>
        <time>2014-09-06T12:31:37Z</time>
      </trkpt>
      <trkpt lat="39.735735235735774" lon="3.311226004734635">
        <ele>283.25</ele>
        <time>2014-09-06T12:31:39Z</time>
      </trkpt>
      <trkpt lat="39.73572333343327" lon="3.311185101047158">
        <ele>283.25</ele>
        <time>2014-09-06T12:31:42Z</time>
      </trkpt>
      <trkpt lat="39.735676562413573" lon="3.311097091063857">
        <ele>283.25</ele>
        <time>2014-09-06T12:31:47Z</time>
      </trkpt>
      <trkpt lat="39.735634569078684" lon="3.31100388430059">
        <ele>283.73000000000002</ele>
        <time>2014-09-06T12:31:53Z</time>
      </trkpt>
      <trkpt lat="39.735637838020921" lon="3.310927608981729">
        <ele>283.25</ele>
        <time>2014-09-06T12:31:59Z</time>
      </trkpt>
      <trkpt lat="39.735654937103391" lon="3.31085242331028">
        <ele>283.25</ele>
        <time>2014-09-06T12:32:09Z</time>
      </trkpt>
      <trkpt lat="39.735634485259652" lon="3.310853932052851">
        <ele>283.25</ele>
        <time>2014-09-06T12:32:12Z</time>
      </trkpt>
      <trkpt lat="39.735603723675013" lon="3.310877485200763">
        <ele>283.73000000000002</ele>
        <time>2014-09-06T12:32:15Z</time>
      </trkpt>
      <trkpt lat="39.735579080879688" lon="3.310860469937325">
        <ele>283.73000000000002</ele>
        <time>2014-09-06T12:32:18Z</time>
      </trkpt>
      <trkpt lat="39.735527532175183" lon="3.310788804665208">
        <ele>283.73000000000002</ele>
        <time>2014-09-06T12:32:26Z</time>
      </trkpt>
      <trkpt lat="39.735508756712079" lon="3.310728957876563">
        <ele>285.17000000000002</ele>
        <time>2014-09-06T12:32:31Z</time>
      </trkpt>
      <trkpt lat="39.735387805849314" lon="3.310644887387753">
        <ele>286.61000000000001</ele>
        <time>2014-09-06T12:32:44Z</time>
      </trkpt>
      <trkpt lat="39.735276913270354" lon="3.310596104711294">
        <ele>286.61000000000001</ele>
        <time>2014-09-06T12:32:54Z</time>
      </trkpt>
      <trkpt lat="39.735231483355165" lon="3.310582945123315">
        <ele>286.13</ele>
        <time>2014-09-06T12:32:57Z</time>
      </trkpt>
      <trkpt lat="39.735211534425616" lon="3.310434920713306">
        <ele>285.64999999999998</ele>
        <time>2014-09-06T12:33:09Z</time>
      </trkpt>
      <trkpt lat="39.735213043168187" lon="3.310240795835853">
        <ele>283.25</ele>
        <time>2014-09-06T12:33:23Z</time>
      </trkpt>
      <trkpt lat="39.735223352909088" lon="3.31012730486691">
        <ele>282.27999999999997</ele>
        <time>2014-09-06T12:33:37Z</time>
      </trkpt>
      <trkpt lat="39.735233997926116" lon="3.310122024267912">
        <ele>282.27999999999997</ele>
        <time>2014-09-06T12:33:44Z</time>
      </trkpt>
      <trkpt lat="39.735251264646649" lon="3.31009067595005">
        <ele>283.73000000000002</ele>
        <time>2014-09-06T12:33:59Z</time>
      </trkpt>
      <trkpt lat="39.735264675691724" lon="3.310109954327345">
        <ele>284.69</ele>
        <time>2014-09-06T12:34:13Z</time>
      </trkpt>
      <trkpt lat="39.735286301001906" lon="3.310140632092953">
        <ele>285.17000000000002</ele>
        <time>2014-09-06T12:34:24Z</time>
      </trkpt>
      <trkpt lat="39.735326869413257" lon="3.310099309310317">
        <ele>284.69</ele>
        <time>2014-09-06T12:34:34Z</time>
      </trkpt>
      <trkpt lat="39.735293928533792" lon="3.310096878558397">
        <ele>284.69</ele>
        <time>2014-09-06T12:34:48Z</time>
      </trkpt>
      <trkpt lat="39.735265094786882" lon="3.310069721192122">
        <ele>283.73000000000002</ele>
        <time>2014-09-06T12:35:00Z</time>
      </trkpt>
      <trkpt lat="39.73526400513947" lon="3.310051532462239">
        <ele>283.73000000000002</ele>
        <time>2014-09-06T12:35:05Z</time>
      </trkpt>
      <trkpt lat="39.735280852764845" lon="3.309997133910656">
        <ele>283.73000000000002</ele>
        <time>2014-09-06T12:35:15Z</time>
      </trkpt>
      <trkpt lat="39.735273476690054" lon="3.309984477236867">
        <ele>283.25</ele>
        <time>2014-09-06T12:35:30Z</time>
      </trkpt>
      <trkpt lat="39.735232153907418" lon="3.309982465580106">
        <ele>281.80000000000001</ele>
        <time>2014-09-06T12:35:40Z</time>
      </trkpt>
      <trkpt lat="39.735230896621943" lon="3.310006940737367">
        <ele>281.80000000000001</ele>
        <time>2014-09-06T12:35:51Z</time>
      </trkpt>
      <trkpt lat="39.735230896621943" lon="3.310006940737367">
        <ele>282.76999999999998</ele>
        <time>2014-09-06T12:35:52Z</time>
      </trkpt>
      <trkpt lat="39.73522737622261" lon="3.310034433379769">
        <ele>283.25</ele>
        <time>2014-09-06T12:35:56Z</time>
      </trkpt>
      <trkpt lat="39.735197285190225" lon="3.310076594352722">
        <ele>283.25</ele>
        <time>2014-09-06T12:36:06Z</time>
      </trkpt>
      <trkpt lat="39.735203236341476" lon="3.310067038983107">
        <ele>283.73000000000002</ele>
        <time>2014-09-06T12:36:18Z</time>
      </trkpt>
      <trkpt lat="39.735204912722111" lon="3.310057567432523">
        <ele>284.20999999999998</ele>
        <time>2014-09-06T12:36:32Z</time>
      </trkpt>
      <trkpt lat="39.735221927985549" lon="3.310071313753724">
        <ele>283.73000000000002</ele>
        <time>2014-09-06T12:36:52Z</time>
      </trkpt>
      <trkpt lat="39.735216898843646" lon="3.310066536068916">
        <ele>283.25</ele>
        <time>2014-09-06T12:37:17Z</time>
      </trkpt>
      <trkpt lat="39.735319744795561" lon="3.310084640979767">
        <ele>283.25</ele>
        <time>2014-09-06T12:37:32Z</time>
      </trkpt>
      <trkpt lat="39.735317062586546" lon="3.31008380278945">
        <ele>283.25</ele>
        <time>2014-09-06T12:37:40Z</time>
      </trkpt>
      <trkpt lat="39.735226789489388" lon="3.310041138902307">
        <ele>283.25</ele>
        <time>2014-09-06T12:37:46Z</time>
      </trkpt>
      <trkpt lat="39.735144646838307" lon="3.310081958770752">
        <ele>282.27999999999997</ele>
        <time>2014-09-06T12:37:57Z</time>
      </trkpt>
      <trkpt lat="39.735141796991229" lon="3.310089502483606">
        <ele>282.27999999999997</ele>
        <time>2014-09-06T12:37:59Z</time>
      </trkpt>
      <trkpt lat="39.735169121995568" lon="3.310169717296958">
        <ele>283.73000000000002</ele>
        <time>2014-09-06T12:38:05Z</time>
      </trkpt>
      <trkpt lat="39.735173899680376" lon="3.310205088928342">
        <ele>283.25</ele>
        <time>2014-09-06T12:38:17Z</time>
      </trkpt>
      <trkpt lat="39.735175408422947" lon="3.310243310406804">
        <ele>284.20999999999998</ele>
        <time>2014-09-06T12:38:36Z</time>
      </trkpt>
      <trkpt lat="39.735192004591227" lon="3.310301061719656">
        <ele>283.73000000000002</ele>
        <time>2014-09-06T12:38:39Z</time>
      </trkpt>
      <trkpt lat="39.7351951058954" lon="3.310363423079252">
        <ele>283.73000000000002</ele>
        <time>2014-09-06T12:38:43Z</time>
      </trkpt>
      <trkpt lat="39.735187143087387" lon="3.310476914048195">
        <ele>285.17000000000002</ele>
        <time>2014-09-06T12:38:54Z</time>
      </trkpt>
      <trkpt lat="39.735189825296402" lon="3.310569617897272">
        <ele>285.17000000000002</ele>
        <time>2014-09-06T12:39:02Z</time>
      </trkpt>
      <trkpt lat="39.735284876078367" lon="3.310601552948356">
        <ele>285.64999999999998</ele>
        <time>2014-09-06T12:39:14Z</time>
      </trkpt>
      <trkpt lat="39.735353942960501" lon="3.310637092217803">
        <ele>285.17000000000002</ele>
        <time>2014-09-06T12:39:24Z</time>
      </trkpt>
      <trkpt lat="39.735409766435623" lon="3.310672463849187">
        <ele>284.69</ele>
        <time>2014-09-06T12:39:29Z</time>
      </trkpt>
      <trkpt lat="39.735466595739126" lon="3.310739686712623">
        <ele>282.76999999999998</ele>
        <time>2014-09-06T12:39:39Z</time>
      </trkpt>
      <trkpt lat="39.735533902421594" lon="3.310876563191414">
        <ele>281.80000000000001</ele>
        <time>2014-09-06T12:39:48Z</time>
      </trkpt>
      <trkpt lat="39.735549325123429" lon="3.310914114117622">
        <ele>281.80000000000001</ele>
        <time>2014-09-06T12:39:51Z</time>
      </trkpt>
      <trkpt lat="39.735565334558487" lon="3.311025844886899">
        <ele>281.31999999999999</ele>
        <time>2014-09-06T12:40:01Z</time>
      </trkpt>
      <trkpt lat="39.735594922676682" lon="3.311176300048828">
        <ele>285.64999999999998</ele>
        <time>2014-09-06T12:40:12Z</time>
      </trkpt>
      <trkpt lat="39.735601795837283" lon="3.3111881185323">
        <ele>281.31999999999999</ele>
        <time>2014-09-06T12:40:13Z</time>
      </trkpt>
      <trkpt lat="39.735615039244294" lon="3.311219550669193">
        <ele>281.31999999999999</ele>
        <time>2014-09-06T12:40:15Z</time>
      </trkpt>
      <trkpt lat="39.735669102519751" lon="3.311307728290558">
        <ele>280.83999999999997</ele>
        <time>2014-09-06T12:40:32Z</time>
      </trkpt>
      <trkpt lat="39.735691314563155" lon="3.311331197619438">
        <ele>280.36000000000001</ele>
        <time>2014-09-06T12:40:34Z</time>
      </trkpt>
      <trkpt lat="39.735725931823254" lon="3.311366401612759">
        <ele>279.88</ele>
        <time>2014-09-06T12:40:37Z</time>
      </trkpt>
      <trkpt lat="39.735816288739443" lon="3.311482239514589">
        <ele>279.39999999999998</ele>
        <time>2014-09-06T12:40:45Z</time>
      </trkpt>
      <trkpt lat="39.735840009525418" lon="3.311523227021098">
        <ele>278.92000000000002</ele>
        <time>2014-09-06T12:40:49Z</time>
      </trkpt>
      <trkpt lat="39.73589826375246" lon="3.311599669978023">
        <ele>278.44</ele>
        <time>2014-09-06T12:40:56Z</time>
      </trkpt>
      <trkpt lat="39.735908657312393" lon="3.311617271974683">
        <ele>278.44</ele>
        <time>2014-09-06T12:40:58Z</time>
      </trkpt>
      <trkpt lat="39.73593145608902" lon="3.3116699103266">
        <ele>277.95999999999998</ele>
        <time>2014-09-06T12:41:01Z</time>
      </trkpt>
      <trkpt lat="39.735932797193527" lon="3.31169631332159">
        <ele>277</ele>
        <time>2014-09-06T12:41:04Z</time>
      </trkpt>
      <trkpt lat="39.735992643982172" lon="3.311741910874844">
        <ele>277</ele>
        <time>2014-09-06T12:41:08Z</time>
      </trkpt>
      <trkpt lat="39.736009407788515" lon="3.311768230050802">
        <ele>276.51999999999998</ele>
        <time>2014-09-06T12:41:10Z</time>
      </trkpt>
      <trkpt lat="39.736028267070651" lon="3.31178667023778">
        <ele>276.04000000000002</ele>
        <time>2014-09-06T12:41:12Z</time>
      </trkpt>
      <trkpt lat="39.736085766926408" lon="3.31191080622375">
        <ele>275.06999999999999</ele>
        <time>2014-09-06T12:41:21Z</time>
      </trkpt>
      <trkpt lat="39.736098423600197" lon="3.311944920569658">
        <ele>275.56</ele>
        <time>2014-09-06T12:41:23Z</time>
      </trkpt>
      <trkpt lat="39.736133040860295" lon="3.312018178403378">
        <ele>273.63</ele>
        <time>2014-09-06T12:41:32Z</time>
      </trkpt>
      <trkpt lat="39.736203029751778" lon="3.31211993470788">
        <ele>271.70999999999998</ele>
        <time>2014-09-06T12:41:37Z</time>
      </trkpt>
      <trkpt lat="39.736281903460622" lon="3.312209621071816">
        <ele>271.23000000000002</ele>
        <time>2014-09-06T12:41:45Z</time>
      </trkpt>
      <trkpt lat="39.736302522942424" lon="3.31223082728684">
        <ele>270.75</ele>
        <time>2014-09-06T12:41:47Z</time>
      </trkpt>
      <trkpt lat="39.736321968957782" lon="3.312258571386337">
        <ele>270.75</ele>
        <time>2014-09-06T12:41:50Z</time>
      </trkpt>
      <trkpt lat="39.736424898728728" lon="3.312295703217387">
        <ele>270.26999999999998</ele>
        <time>2014-09-06T12:41:59Z</time>
      </trkpt>
      <trkpt lat="39.736435124650598" lon="3.312309700995684">
        <ele>269.31</ele>
        <time>2014-09-06T12:42:01Z</time>
      </trkpt>
      <trkpt lat="39.736417271196842" lon="3.312322273850441">
        <ele>270.75</ele>
        <time>2014-09-06T12:42:09Z</time>
      </trkpt>
      <trkpt lat="39.736403441056609" lon="3.312298972159624">
        <ele>270.26999999999998</ele>
        <time>2014-09-06T12:42:18Z</time>
      </trkpt>
      <trkpt lat="39.736413666978478" lon="3.312304420396686">
        <ele>270.75</ele>
        <time>2014-09-06T12:42:36Z</time>
      </trkpt>
      <trkpt lat="39.736401680856943" lon="3.312308946624398">
        <ele>270.75</ele>
        <time>2014-09-06T12:42:49Z</time>
      </trkpt>
      <trkpt lat="39.736401680856943" lon="3.312308946624398">
        <ele>270.26999999999998</ele>
        <time>2014-09-06T12:43:08Z</time>
      </trkpt>
      <trkpt lat="39.736404530704021" lon="3.312310790643096">
        <ele>270.26999999999998</ele>
        <time>2014-09-06T12:43:29Z</time>
      </trkpt>
      <trkpt lat="39.736404530704021" lon="3.312310790643096">
        <ele>270.26999999999998</ele>
        <time>2014-09-06T12:43:32Z</time>
      </trkpt>
      <trkpt lat="39.736360190436244" lon="3.312262091785669">
        <ele>270.75</ele>
        <time>2014-09-06T12:43:37Z</time>
      </trkpt>
    </trkseg>
  </trk>

</gpx>
